Wetterdaten: Montag, 07.11.2022
Datum Zeit Temp. I. Temp. A. Feuchte I. Feuchte A. Luftdruck Regen Wind Richtung Richtung Sonnenschein Solar Taupunkt Windchill Windböen
07.11.2022 00:00 22,3 °C 9,3 °C 57 % 79 % 1011,2 hPa 0,0 l/m² 16,1 km/h (3 Bft) SO 140 ° 0 min 0 W/m² 5,8 °C 3,8 °C 20,9 km/h (4 Bft)
07.11.2022 00:02 22,3 °C 9,4 °C 57 % 79 % 1011,2 hPa 0,0 l/m² 13,6 km/h (3 Bft) S-SO 165 ° 0 min 0 W/m² 5,9 °C 5,0 °C 20,9 km/h (4 Bft)
07.11.2022 00:03 22,3 °C 9,4 °C 57 % 79 % 1011,2 hPa 0,0 l/m² 11,5 km/h (2 Bft) S-SO 148 ° 0 min 0 W/m² 5,9 °C 6,1 °C 14,5 km/h (3 Bft)
07.11.2022 00:05 22,3 °C 9,4 °C 57 % 79 % 1011,1 hPa 0,0 l/m² 14,1 km/h (3 Bft) S-SO 157 ° 0 min 0 W/m² 5,9 °C 4,8 °C 20,9 km/h (4 Bft)
07.11.2022 00:07 22,3 °C 9,4 °C 57 % 79 % 1011,2 hPa 0,0 l/m² 11,9 km/h (2 Bft) S 169 ° 0 min 0 W/m² 5,9 °C 5,9 °C 16,1 km/h (3 Bft)
07.11.2022 00:09 22,3 °C 9,4 °C 57 % 79 % 1011,1 hPa 0,0 l/m² 11,4 km/h (2 Bft) S-SO 157 ° 0 min 0 W/m² 5,9 °C 6,1 °C 16,1 km/h (3 Bft)
07.11.2022 00:11 22,3 °C 9,4 °C 57 % 79 % 1011,1 hPa 0,0 l/m² 12,4 km/h (2 Bft) S-SO 161 ° 0 min 0 W/m² 5,9 °C 5,6 °C 16,1 km/h (3 Bft)
07.11.2022 00:12 22,3 °C 9,4 °C 57 % 79 % 1011,1 hPa 0,0 l/m² 11,6 km/h (2 Bft) S 175 ° 0 min 0 W/m² 5,9 °C 6,0 °C 14,5 km/h (3 Bft)
07.11.2022 00:13 22,3 °C 9,4 °C 57 % 79 % 1011,0 hPa 0,0 l/m² 13,1 km/h (3 Bft) S-SO 160 ° 0 min 0 W/m² 5,9 °C 5,3 °C 19,3 km/h (3 Bft)
07.11.2022 00:14 22,3 °C 9,4 °C 57 % 79 % 1011,0 hPa 0,0 l/m² 11,7 km/h (2 Bft) S-SO 168 ° 0 min 0 W/m² 5,9 °C 6,0 °C 17,7 km/h (3 Bft)
07.11.2022 00:15 22,3 °C 9,4 °C 57 % 79 % 1011,0 hPa 0,0 l/m² 14,8 km/h (3 Bft) S-SO 155 ° 0 min 0 W/m² 5,9 °C 4,5 °C 17,7 km/h (3 Bft)
07.11.2022 00:17 22,3 °C 9,3 °C 57 % 79 % 1010,9 hPa 0,0 l/m² 14,9 km/h (3 Bft) S 171 ° 0 min 0 W/m² 5,8 °C 4,3 °C 22,5 km/h (4 Bft)
07.11.2022 00:19 22,3 °C 9,3 °C 57 % 79 % 1010,9 hPa 0,0 l/m² 16,7 km/h (3 Bft) S 182 ° 0 min 0 W/m² 5,8 °C 3,6 °C 22,5 km/h (4 Bft)
07.11.2022 00:21 22,3 °C 9,2 °C 57 % 80 % 1010,8 hPa 0,0 l/m² 16,5 km/h (3 Bft) S-SO 161 ° 0 min 0 W/m² 5,9 °C 3,5 °C 24,1 km/h (4 Bft)
07.11.2022 00:22 22,3 °C 9,2 °C 57 % 80 % 1010,8 hPa 0,0 l/m² 16,9 km/h (3 Bft) S 182 ° 0 min 0 W/m² 5,9 °C 3,4 °C 22,5 km/h (4 Bft)
07.11.2022 00:23 22,3 °C 9,2 °C 57 % 80 % 1010,8 hPa 0,0 l/m² 16,1 km/h (3 Bft) S 171 ° 0 min 0 W/m² 5,9 °C 3,7 °C 20,9 km/h (4 Bft)
07.11.2022 00:25 22,3 °C 9,1 °C 57 % 80 % 1010,8 hPa 0,0 l/m² 17,6 km/h (3 Bft) S 169 ° 0 min 0 W/m² 5,8 °C 3,0 °C 24,1 km/h (4 Bft)
07.11.2022 00:27 22,3 °C 9,1 °C 57 % 80 % 1010,6 hPa 0,0 l/m² 18,8 km/h (3 Bft) S-SO 165 ° 0 min 0 W/m² 5,8 °C 2,5 °C 27,4 km/h (5 Bft)
07.11.2022 00:29 22,3 °C 9,1 °C 57 % 80 % 1010,5 hPa 0,0 l/m² 19,8 km/h (3 Bft) S-SO 153 ° 0 min 0 W/m² 5,8 °C 2,2 °C 29,0 km/h (5 Bft)
07.11.2022 00:31 22,3 °C 9,1 °C 57 % 80 % 1010,5 hPa 0,0 l/m² 21,5 km/h (4 Bft) S 178 ° 0 min 0 W/m² 5,8 °C 1,6 °C 32,2 km/h (5 Bft)
07.11.2022 00:32 22,3 °C 9,1 °C 57 % 80 % 1010,5 hPa 0,0 l/m² 19,6 km/h (3 Bft) S 172 ° 0 min 0 W/m² 5,8 °C 2,3 °C 24,1 km/h (4 Bft)
07.11.2022 00:34 22,2 °C 9,1 °C 57 % 80 % 1010,5 hPa 0,0 l/m² 19,9 km/h (4 Bft) S-SO 160 ° 0 min 0 W/m² 5,8 °C 2,2 °C 30,6 km/h (5 Bft)
07.11.2022 00:36 22,3 °C 9,1 °C 57 % 81 % 1010,6 hPa 0,0 l/m² 20,4 km/h (4 Bft) S-SW 198 ° 0 min 0 W/m² 6,0 °C 2,0 °C 30,6 km/h (5 Bft)
07.11.2022 00:38 22,3 °C 9,1 °C 57 % 81 % 1010,6 hPa 0,0 l/m² 20,7 km/h (4 Bft) S 175 ° 0 min 0 W/m² 6,0 °C 1,9 °C 29,0 km/h (5 Bft)
07.11.2022 00:40 22,3 °C 9,1 °C 57 % 81 % 1010,6 hPa 0,0 l/m² 19,2 km/h (3 Bft) S 173 ° 0 min 0 W/m² 6,0 °C 2,4 °C 29,0 km/h (5 Bft)
07.11.2022 00:42 22,3 °C 8,9 °C 57 % 81 % 1010,7 hPa 0,0 l/m² 17,9 km/h (3 Bft) S 191 ° 0 min 0 W/m² 5,8 °C 2,6 °C 27,4 km/h (5 Bft)
07.11.2022 00:43 22,2 °C 8,9 °C 57 % 81 % 1010,6 hPa 0,0 l/m² 18,3 km/h (3 Bft) S-SW 192 ° 0 min 0 W/m² 5,8 °C 2,5 °C 24,1 km/h (4 Bft)
07.11.2022 00:45 22,3 °C 8,9 °C 57 % 81 % 1010,7 hPa 0,0 l/m² 17,4 km/h (3 Bft) S 170 ° 0 min 0 W/m² 5,8 °C 2,8 °C 24,1 km/h (4 Bft)
07.11.2022 00:46 22,3 °C 8,9 °C 57 % 81 % 1010,7 hPa 0,0 l/m² 18,3 km/h (3 Bft) S 186 ° 0 min 0 W/m² 5,8 °C 2,5 °C 27,4 km/h (5 Bft)
07.11.2022 00:48 22,2 °C 8,8 °C 57 % 81 % 1010,7 hPa 0,0 l/m² 19,2 km/h (3 Bft) S 182 ° 0 min 0 W/m² 5,7 °C 2,0 °C 24,1 km/h (4 Bft)
07.11.2022 00:50 22,2 °C 8,8 °C 57 % 81 % 1010,7 hPa 0,0 l/m² 16,9 km/h (3 Bft) S 188 ° 0 min 0 W/m² 5,7 °C 2,9 °C 25,7 km/h (4 Bft)
07.11.2022 00:51 22,2 °C 8,8 °C 57 % 81 % 1010,7 hPa 0,0 l/m² 16,1 km/h (3 Bft) S 180 ° 0 min 0 W/m² 5,7 °C 3,2 °C 20,9 km/h (4 Bft)
07.11.2022 00:52 22,2 °C 8,7 °C 57 % 81 % 1010,7 hPa 0,0 l/m² 17,7 km/h (3 Bft) S 180 ° 0 min 0 W/m² 5,6 °C 2,4 °C 25,7 km/h (4 Bft)
07.11.2022 00:53 22,2 °C 8,7 °C 57 % 81 % 1010,8 hPa 0,0 l/m² 17,7 km/h (3 Bft) S 180 ° 0 min 0 W/m² 5,6 °C 2,4 °C 22,5 km/h (4 Bft)
07.11.2022 00:54 22,2 °C 8,7 °C 57 % 81 % 1010,9 hPa 0,0 l/m² 14,5 km/h (3 Bft) S 180 ° 0 min 0 W/m² 5,6 °C 3,8 °C 20,9 km/h (4 Bft)
07.11.2022 00:55 22,3 °C 8,7 °C 57 % 81 % 1010,8 hPa 0,0 l/m² 16,1 km/h (3 Bft) S-SW 202 ° 0 min 0 W/m² 5,6 °C 3,1 °C 22,5 km/h (4 Bft)
07.11.2022 00:56 22,2 °C 8,7 °C 57 % 81 % 1010,8 hPa 0,0 l/m² 17,7 km/h (3 Bft) S-SW 202 ° 0 min 0 W/m² 5,6 °C 2,4 °C 22,5 km/h (4 Bft)
07.11.2022 00:57 22,2 °C 8,8 °C 57 % 81 % 1010,8 hPa 0,0 l/m² 17,7 km/h (3 Bft) S 180 ° 0 min 0 W/m² 5,7 °C 2,6 °C 25,7 km/h (4 Bft)
07.11.2022 00:58 22,2 °C 8,7 °C 57 % 81 % 1010,8 hPa 0,0 l/m² 19,3 km/h (3 Bft) S 180 ° 0 min 0 W/m² 5,6 °C 1,9 °C 25,7 km/h (4 Bft)
07.11.2022 00:59 22,2 °C 8,8 °C 57 % 81 % 1010,7 hPa 0,0 l/m² 16,1 km/h (3 Bft) S-SW 202 ° 0 min 0 W/m² 5,7 °C 3,2 °C 20,9 km/h (4 Bft)
07.11.2022 01:00 22,2 °C 8,8 °C 57 % 81 % 1010,8 hPa 0,0 l/m² 14,5 km/h (3 Bft) S-SW 202 ° 0 min 0 W/m² 5,7 °C 3,9 °C 17,7 km/h (3 Bft)
07.11.2022 01:01 22,2 °C 8,8 °C 57 % 81 % 1010,8 hPa 0,0 l/m² 14,5 km/h (3 Bft) S 180 ° 0 min 0 W/m² 5,7 °C 3,9 °C 19,3 km/h (3 Bft)
07.11.2022 01:02 22,2 °C 8,8 °C 57 % 81 % 1010,9 hPa 0,0 l/m² 17,7 km/h (3 Bft) S-SW 202 ° 0 min 0 W/m² 5,7 °C 2,6 °C 24,1 km/h (4 Bft)
07.11.2022 01:03 22,2 °C 8,8 °C 57 % 81 % 1011,0 hPa 0,0 l/m² 16,1 km/h (3 Bft) S 180 ° 0 min 0 W/m² 5,7 °C 3,2 °C 22,5 km/h (4 Bft)
07.11.2022 01:04 22,2 °C 8,8 °C 57 % 81 % 1010,9 hPa 0,0 l/m² 14,5 km/h (3 Bft) S-SW 202 ° 0 min 0 W/m² 5,7 °C 3,9 °C 19,3 km/h (3 Bft)
07.11.2022 01:05 22,2 °C 8,8 °C 57 % 81 % 1011,0 hPa 0,0 l/m² 11,3 km/h (2 Bft) S-SW 202 ° 0 min 0 W/m² 5,7 °C 5,5 °C 19,3 km/h (3 Bft)
07.11.2022 01:06 22,2 °C 8,8 °C 57 % 81 % 1011,1 hPa 0,0 l/m² 12,9 km/h (3 Bft) S-SW 202 ° 0 min 0 W/m² 5,7 °C 4,7 °C 17,7 km/h (3 Bft)
07.11.2022 01:07 22,2 °C 8,9 °C 57 % 81 % 1011,2 hPa 0,0 l/m² 9,7 km/h (2 Bft) SW 225 ° 0 min 0 W/m² 5,8 °C 6,6 °C 17,7 km/h (3 Bft)
07.11.2022 01:08 22,2 °C 8,9 °C 57 % 81 % 1011,2 hPa 0,0 l/m² 9,7 km/h (2 Bft) SW 225 ° 0 min 0 W/m² 5,8 °C 6,6 °C 14,5 km/h (3 Bft)
07.11.2022 01:09 22,2 °C 8,9 °C 57 % 80 % 1011,3 hPa 0,0 l/m² 6,4 km/h (2 Bft) SW 225 ° 0 min 0 W/m² 5,6 °C 8,9 °C 11,3 km/h (2 Bft)
07.11.2022 01:10 22,2 °C 8,9 °C 57 % 81 % 1011,3 hPa 0,0 l/m² 6,4 km/h (2 Bft) SW 225 ° 0 min 0 W/m² 5,8 °C 8,9 °C 9,7 km/h (2 Bft)
07.11.2022 01:11 22,2 °C 8,9 °C 57 % 80 % 1011,3 hPa 0,0 l/m² 3,2 km/h (1 Bft) W-SW 247 ° 0 min 0 W/m² 5,6 °C 8,9 °C 4,8 km/h (1 Bft)
07.11.2022 01:12 22,2 °C 8,9 °C 57 % 80 % 1011,3 hPa 0,0 l/m² 1,6 km/h (1 Bft) SW 225 ° 0 min 0 W/m² 5,6 °C 8,9 °C 3,2 km/h (1 Bft)
07.11.2022 01:13 22,2 °C 8,9 °C 57 % 80 % 1011,2 hPa 0,0 l/m² 3,2 km/h (1 Bft) SW 225 ° 0 min 0 W/m² 5,6 °C 8,9 °C 4,8 km/h (1 Bft)
07.11.2022 01:14 22,2 °C 8,8 °C 57 % 80 % 1011,3 hPa 0,0 l/m² 1,6 km/h (1 Bft) SW 225 ° 0 min 0 W/m² 5,5 °C 8,8 °C 3,2 km/h (1 Bft)
07.11.2022 01:15 22,2 °C 8,8 °C 57 % 80 % 1011,3 hPa 0,0 l/m² 0,0 km/h (0 Bft) N 0 ° 0 min 0 W/m² 5,5 °C 8,8 °C 0,0 km/h (0 Bft)
07.11.2022 01:16 22,2 °C 8,8 °C 57 % 80 % 1011,2 hPa 0,0 l/m² 0,0 km/h (0 Bft) SW 225 ° 0 min 0 W/m² 5,5 °C 8,8 °C 1,6 km/h (1 Bft)
07.11.2022 01:17 22,2 °C 8,8 °C 57 % 80 % 1011,3 hPa 0,0 l/m² 1,6 km/h (1 Bft) SW 225 ° 0 min 0 W/m² 5,5 °C 8,8 °C 3,2 km/h (1 Bft)
07.11.2022 01:18 22,2 °C 8,8 °C 57 % 80 % 1011,3 hPa 0,0 l/m² 0,0 km/h (0 Bft) SW 225 ° 0 min 0 W/m² 5,5 °C 8,8 °C 1,6 km/h (1 Bft)
07.11.2022 01:19 22,2 °C 8,8 °C 57 % 80 % 1011,4 hPa 0,0 l/m² 0,0 km/h (0 Bft) N 0 ° 0 min 0 W/m² 5,5 °C 8,8 °C 0,0 km/h (0 Bft)
07.11.2022 01:20 22,2 °C 8,7 °C 57 % 80 % 1011,5 hPa 0,0 l/m² 0,0 km/h (0 Bft) SW 225 ° 0 min 0 W/m² 5,4 °C 8,7 °C 1,6 km/h (1 Bft)
07.11.2022 01:21 22,2 °C 8,7 °C 57 % 80 % 1011,5 hPa 0,0 l/m² 1,6 km/h (1 Bft) SW 225 ° 0 min 0 W/m² 5,4 °C 8,7 °C 4,8 km/h (1 Bft)
07.11.2022 01:22 22,2 °C 8,6 °C 57 % 80 % 1011,4 hPa 0,0 l/m² 3,2 km/h (1 Bft) W-NW 292 ° 0 min 0 W/m² 5,3 °C 8,6 °C 6,4 km/h (2 Bft)
07.11.2022 01:23 22,2 °C 8,6 °C 57 % 80 % 1011,5 hPa 0,0 l/m² 3,2 km/h (1 Bft) W-NW 292 ° 0 min 0 W/m² 5,3 °C 8,6 °C 3,2 km/h (1 Bft)
07.11.2022 01:24 22,2 °C 8,5 °C 57 % 81 % 1011,4 hPa 0,0 l/m² 3,2 km/h (1 Bft) W-NW 292 ° 0 min 0 W/m² 5,4 °C 8,5 °C 6,4 km/h (2 Bft)
07.11.2022 01:25 22,2 °C 8,4 °C 57 % 81 % 1011,4 hPa 0,0 l/m² 1,6 km/h (1 Bft) W-NW 292 ° 0 min 0 W/m² 5,3 °C 8,4 °C 4,8 km/h (1 Bft)
07.11.2022 01:26 22,2 °C 8,4 °C 57 % 81 % 1011,4 hPa 0,0 l/m² 1,6 km/h (1 Bft) W-NW 292 ° 0 min 0 W/m² 5,3 °C 8,4 °C 1,6 km/h (1 Bft)
07.11.2022 01:27 22,2 °C 8,3 °C 57 % 81 % 1011,4 hPa 0,0 l/m² 1,6 km/h (1 Bft) W-NW 292 ° 0 min 0 W/m² 5,2 °C 8,3 °C 4,8 km/h (1 Bft)
07.11.2022 01:28 22,2 °C 8,3 °C 57 % 81 % 1011,4 hPa 0,0 l/m² 4,8 km/h (1 Bft) W-NW 292 ° 0 min 0 W/m² 5,2 °C 8,3 °C 6,4 km/h (2 Bft)
07.11.2022 01:29 22,2 °C 8,2 °C 57 % 81 % 1011,3 hPa 0,0 l/m² 1,6 km/h (1 Bft) N-NO 22 ° 0 min 0 W/m² 5,1 °C 8,2 °C 4,8 km/h (1 Bft)
07.11.2022 01:30 22,2 °C 8,2 °C 57 % 81 % 1011,4 hPa 0,0 l/m² 1,6 km/h (1 Bft) N-NO 22 ° 0 min 0 W/m² 5,1 °C 8,2 °C 4,8 km/h (1 Bft)
07.11.2022 01:31 22,2 °C 8,1 °C 57 % 81 % 1011,4 hPa 0,0 l/m² 3,2 km/h (1 Bft) NO 45 ° 0 min 0 W/m² 5,0 °C 8,1 °C 6,4 km/h (2 Bft)
07.11.2022 01:32 22,2 °C 8,0 °C 57 % 81 % 1011,4 hPa 0,0 l/m² 1,6 km/h (1 Bft) NO 45 ° 0 min 0 W/m² 4,9 °C 8,0 °C 4,8 km/h (1 Bft)
07.11.2022 01:33 22,2 °C 7,9 °C 57 % 82 % 1011,3 hPa 0,0 l/m² 1,6 km/h (1 Bft) NO 45 ° 0 min 0 W/m² 5,0 °C 7,9 °C 4,8 km/h (1 Bft)
07.11.2022 01:34 22,2 °C 7,8 °C 57 % 82 % 1011,4 hPa 0,0 l/m² 0,0 km/h (0 Bft) N 0 ° 0 min 0 W/m² 4,9 °C 7,8 °C 0,0 km/h (0 Bft)
07.11.2022 01:35 22,2 °C 7,8 °C 57 % 82 % 1011,3 hPa 0,0 l/m² 0,0 km/h (0 Bft) N 0 ° 0 min 0 W/m² 4,9 °C 7,8 °C 0,0 km/h (0 Bft)
07.11.2022 01:36 22,2 °C 7,8 °C 57 % 82 % 1011,4 hPa 0,0 l/m² 0,0 km/h (0 Bft) N 0 ° 0 min 0 W/m² 4,9 °C 7,8 °C 0,0 km/h (0 Bft)
07.11.2022 01:37 22,2 °C 7,7 °C 57 % 83 % 1011,3 hPa 0,0 l/m² 3,2 km/h (1 Bft) NO 45 ° 0 min 0 W/m² 5,0 °C 7,7 °C 6,4 km/h (2 Bft)
07.11.2022 01:38 22,2 °C 7,7 °C 57 % 83 % 1011,4 hPa 0,0 l/m² 4,8 km/h (1 Bft) NO 45 ° 0 min 0 W/m² 5,0 °C 7,7 °C 6,4 km/h (2 Bft)
07.11.2022 01:39 22,2 °C 7,7 °C 57 % 83 % 1011,4 hPa 0,0 l/m² 3,2 km/h (1 Bft) NO 45 ° 0 min 0 W/m² 5,0 °C 7,7 °C 4,8 km/h (1 Bft)
07.11.2022 01:40 22,2 °C 7,7 °C 57 % 83 % 1011,4 hPa 0,0 l/m² 0,0 km/h (0 Bft) NO 45 ° 0 min 0 W/m² 5,0 °C 7,7 °C 3,2 km/h (1 Bft)
07.11.2022 01:41 22,2 °C 7,7 °C 57 % 83 % 1011,4 hPa 0,0 l/m² 0,0 km/h (0 Bft) NO 45 ° 0 min 0 W/m² 5,0 °C 7,7 °C 1,6 km/h (1 Bft)
07.11.2022 01:42 22,2 °C 7,7 °C 57 % 83 % 1011,5 hPa 0,0 l/m² 1,6 km/h (1 Bft) NO 45 ° 0 min 0 W/m² 5,0 °C 7,7 °C 3,2 km/h (1 Bft)
07.11.2022 01:43 22,2 °C 7,7 °C 57 % 83 % 1011,5 hPa 0,0 l/m² 0,0 km/h (0 Bft) NO 45 ° 0 min 0 W/m² 5,0 °C 7,7 °C 1,6 km/h (1 Bft)
07.11.2022 01:44 22,2 °C 7,6 °C 57 % 83 % 1011,5 hPa 0,0 l/m² 0,0 km/h (0 Bft) N 0 ° 0 min 0 W/m² 4,9 °C 7,6 °C 0,0 km/h (0 Bft)
07.11.2022 01:45 22,2 °C 7,6 °C 57 % 83 % 1011,5 hPa 0,0 l/m² 0,0 km/h (0 Bft) N 0 ° 0 min 0 W/m² 4,9 °C 7,6 °C 0,0 km/h (0 Bft)
07.11.2022 01:46 22,2 °C 7,6 °C 57 % 83 % 1011,4 hPa 0,0 l/m² 0,0 km/h (0 Bft) NO 45 ° 0 min 0 W/m² 4,9 °C 7,6 °C 3,2 km/h (1 Bft)
07.11.2022 01:47 22,2 °C 7,5 °C 57 % 83 % 1011,5 hPa 0,0 l/m² 4,8 km/h (1 Bft) NO 45 ° 0 min 0 W/m² 4,8 °C 7,5 °C 4,8 km/h (1 Bft)
07.11.2022 01:48 22,2 °C 7,4 °C 57 % 83 % 1011,5 hPa 0,0 l/m² 4,8 km/h (1 Bft) NO 45 ° 0 min 0 W/m² 4,7 °C 7,4 °C 6,4 km/h (2 Bft)
07.11.2022 01:49 22,2 °C 7,4 °C 57 % 83 % 1011,5 hPa 0,0 l/m² 4,8 km/h (1 Bft) O-NO 67 ° 0 min 0 W/m² 4,7 °C 7,4 °C 6,4 km/h (2 Bft)
07.11.2022 01:50 22,2 °C 7,4 °C 57 % 84 % 1011,5 hPa 0,0 l/m² 3,2 km/h (1 Bft) O-NO 67 ° 0 min 0 W/m² 4,9 °C 7,4 °C 4,8 km/h (1 Bft)
07.11.2022 01:51 22,2 °C 7,4 °C 57 % 83 % 1011,5 hPa 0,0 l/m² 3,2 km/h (1 Bft) O 90 ° 0 min 0 W/m² 4,7 °C 7,4 °C 4,8 km/h (1 Bft)
07.11.2022 01:52 22,2 °C 7,3 °C 57 % 83 % 1011,5 hPa 0,0 l/m² 4,8 km/h (1 Bft) O 90 ° 0 min 0 W/m² 4,6 °C 7,3 °C 6,4 km/h (2 Bft)
07.11.2022 01:53 22,2 °C 7,3 °C 57 % 83 % 1011,5 hPa 0,0 l/m² 1,6 km/h (1 Bft) O 90 ° 0 min 0 W/m² 4,6 °C 7,3 °C 3,2 km/h (1 Bft)
07.11.2022 01:54 22,2 °C 7,2 °C 57 % 83 % 1011,5 hPa 0,0 l/m² 4,8 km/h (1 Bft) O-SO 112 ° 0 min 0 W/m² 4,5 °C 7,2 °C 6,4 km/h (2 Bft)
07.11.2022 01:55 22,2 °C 7,2 °C 57 % 84 % 1011,5 hPa 0,0 l/m² 1,6 km/h (1 Bft) SO 135 ° 0 min 0 W/m² 4,7 °C 7,2 °C 3,2 km/h (1 Bft)
07.11.2022 01:56 22,2 °C 7,2 °C 57 % 84 % 1011,4 hPa 0,0 l/m² 1,6 km/h (1 Bft) SO 135 ° 0 min 0 W/m² 4,7 °C 7,2 °C 3,2 km/h (1 Bft)
07.11.2022 01:57 22,2 °C 7,2 °C 57 % 84 % 1011,5 hPa 0,0 l/m² 1,6 km/h (1 Bft) SO 135 ° 0 min 0 W/m² 4,7 °C 7,2 °C 3,2 km/h (1 Bft)
07.11.2022 01:58 22,2 °C 7,2 °C 57 % 84 % 1011,6 hPa 0,0 l/m² 3,2 km/h (1 Bft) SO 135 ° 0 min 0 W/m² 4,7 °C 7,2 °C 4,8 km/h (1 Bft)
07.11.2022 01:59 22,2 °C 7,1 °C 57 % 84 % 1011,5 hPa 0,0 l/m² 0,0 km/h (0 Bft) SO 135 ° 0 min 0 W/m² 4,6 °C 7,1 °C 3,2 km/h (1 Bft)
07.11.2022 02:00 22,2 °C 7,2 °C 57 % 84 % 1011,6 hPa 0,0 l/m² 0,0 km/h (0 Bft) N 0 ° 0 min 0 W/m² 4,7 °C 7,2 °C 0,0 km/h (0 Bft)
07.11.2022 02:01 22,2 °C 7,2 °C 57 % 84 % 1011,6 hPa 0,0 l/m² 0,0 km/h (0 Bft) SO 135 ° 0 min 0 W/m² 4,7 °C 7,2 °C 1,6 km/h (1 Bft)
07.11.2022 02:02 22,2 °C 7,2 °C 57 % 84 % 1011,7 hPa 0,0 l/m² 0,0 km/h (0 Bft) N 0 ° 0 min 0 W/m² 4,7 °C 7,2 °C 0,0 km/h (0 Bft)
07.11.2022 02:03 22,2 °C 7,3 °C 57 % 84 % 1011,6 hPa 0,0 l/m² 0,0 km/h (0 Bft) N 0 ° 0 min 0 W/m² 4,8 °C 7,3 °C 0,0 km/h (0 Bft)
07.11.2022 02:04 22,2 °C 7,3 °C 57 % 84 % 1011,7 hPa 0,0 l/m² 1,6 km/h (1 Bft) SO 135 ° 0 min 0 W/m² 4,8 °C 7,3 °C 4,8 km/h (1 Bft)
07.11.2022 02:05 22,2 °C 7,4 °C 57 % 83 % 1011,6 hPa 0,0 l/m² 0,0 km/h (0 Bft) SO 135 ° 0 min 0 W/m² 4,7 °C 7,4 °C 1,6 km/h (1 Bft)
07.11.2022 02:06 22,2 °C 7,4 °C 57 % 83 % 1011,7 hPa 0,0 l/m² 1,6 km/h (1 Bft) SO 135 ° 0 min 0 W/m² 4,7 °C 7,4 °C 1,6 km/h (1 Bft)
07.11.2022 02:07 22,2 °C 7,4 °C 57 % 83 % 1011,7 hPa 0,0 l/m² 0,0 km/h (0 Bft) N 0 ° 0 min 0 W/m² 4,7 °C 7,4 °C 0,0 km/h (0 Bft)
07.11.2022 02:08 22,2 °C 7,4 °C 57 % 83 % 1011,7 hPa 0,0 l/m² 0,0 km/h (0 Bft) SO 135 ° 0 min 0 W/m² 4,7 °C 7,4 °C 3,2 km/h (1 Bft)
07.11.2022 02:09 22,2 °C 7,4 °C 57 % 83 % 1011,7 hPa 0,0 l/m² 0,0 km/h (0 Bft) SO 135 ° 0 min 0 W/m² 4,7 °C 7,4 °C 1,6 km/h (1 Bft)
07.11.2022 02:10 22,2 °C 7,4 °C 57 % 83 % 1011,7 hPa 0,0 l/m² 0,0 km/h (0 Bft) SO 135 ° 0 min 0 W/m² 4,7 °C 7,4 °C 1,6 km/h (1 Bft)
07.11.2022 02:11 22,2 °C 7,4 °C 57 % 83 % 1011,8 hPa 0,0 l/m² 1,6 km/h (1 Bft) N-NO 22 ° 0 min 0 W/m² 4,7 °C 7,4 °C 6,4 km/h (2 Bft)
07.11.2022 02:12 22,2 °C 7,4 °C 57 % 83 % 1011,7 hPa 0,0 l/m² 3,2 km/h (1 Bft) N-NO 22 ° 0 min 0 W/m² 4,7 °C 7,4 °C 3,2 km/h (1 Bft)
07.11.2022 02:13 22,2 °C 7,4 °C 57 % 83 % 1011,7 hPa 0,0 l/m² 1,6 km/h (1 Bft) N-NO 22 ° 0 min 0 W/m² 4,7 °C 7,4 °C 4,8 km/h (1 Bft)
07.11.2022 02:14 22,2 °C 7,4 °C 57 % 83 % 1011,7 hPa 0,0 l/m² 3,2 km/h (1 Bft) W 270 ° 0 min 0 W/m² 4,7 °C 7,4 °C 4,8 km/h (1 Bft)
07.11.2022 02:15 22,2 °C 7,5 °C 57 % 83 % 1011,7 hPa 0,0 l/m² 8,0 km/h (2 Bft) SW 225 ° 0 min 0 W/m² 4,8 °C 6,2 °C 16,1 km/h (3 Bft)
07.11.2022 02:16 22,2 °C 7,6 °C 57 % 83 % 1011,8 hPa 0,0 l/m² 6,4 km/h (2 Bft) S-SW 202 ° 0 min 0 W/m² 4,9 °C 7,6 °C 11,3 km/h (2 Bft)
07.11.2022 02:17 22,2 °C 7,7 °C 57 % 83 % 1011,7 hPa 0,0 l/m² 4,8 km/h (1 Bft) S-SW 202 ° 0 min 0 W/m² 5,0 °C 7,7 °C 6,4 km/h (2 Bft)
07.11.2022 02:18 22,2 °C 7,8 °C 57 % 83 % 1011,8 hPa 0,0 l/m² 4,8 km/h (1 Bft) S-SW 202 ° 0 min 0 W/m² 5,1 °C 7,8 °C 6,4 km/h (2 Bft)
07.11.2022 02:19 22,2 °C 7,9 °C 57 % 83 % 1011,7 hPa 0,0 l/m² 9,7 km/h (2 Bft) S-SW 202 ° 0 min 0 W/m² 5,2 °C 5,5 °C 19,3 km/h (3 Bft)
07.11.2022 02:20 22,2 °C 7,9 °C 57 % 82 % 1011,8 hPa 0,0 l/m² 14,5 km/h (3 Bft) S-SW 202 ° 0 min 0 W/m² 5,0 °C 2,8 °C 16,1 km/h (3 Bft)
07.11.2022 02:21 22,2 °C 8,0 °C 57 % 82 % 1011,8 hPa 0,0 l/m² 14,5 km/h (3 Bft) S-SW 202 ° 0 min 0 W/m² 5,1 °C 2,9 °C 19,3 km/h (3 Bft)
07.11.2022 02:22 22,2 °C 8,1 °C 57 % 82 % 1011,8 hPa 0,0 l/m² 14,5 km/h (3 Bft) S-SW 202 ° 0 min 0 W/m² 5,2 °C 3,1 °C 19,3 km/h (3 Bft)
07.11.2022 02:23 22,2 °C 8,2 °C 56 % 82 % 1011,8 hPa 0,0 l/m² 9,7 km/h (2 Bft) SW 225 ° 0 min 0 W/m² 5,3 °C 5,8 °C 14,5 km/h (3 Bft)
07.11.2022 02:24 22,2 °C 8,2 °C 57 % 82 % 1011,8 hPa 0,0 l/m² 6,4 km/h (2 Bft) SW 225 ° 0 min 0 W/m² 5,3 °C 8,2 °C 8,0 km/h (2 Bft)
07.11.2022 02:25 22,2 °C 8,3 °C 56 % 82 % 1011,8 hPa 0,0 l/m² 4,8 km/h (1 Bft) SW 225 ° 0 min 0 W/m² 5,4 °C 8,3 °C 8,0 km/h (2 Bft)
07.11.2022 02:26 22,2 °C 8,3 °C 57 % 81 % 1011,8 hPa 0,0 l/m² 9,7 km/h (2 Bft) SW 225 ° 0 min 0 W/m² 5,2 °C 5,9 °C 16,1 km/h (3 Bft)
07.11.2022 02:27 22,2 °C 8,3 °C 57 % 81 % 1011,8 hPa 0,0 l/m² 11,3 km/h (2 Bft) SW 225 ° 0 min 0 W/m² 5,2 °C 4,9 °C 16,1 km/h (3 Bft)
07.11.2022 02:28 22,2 °C 8,4 °C 57 % 81 % 1011,7 hPa 0,0 l/m² 6,4 km/h (2 Bft) S-SW 202 ° 0 min 0 W/m² 5,3 °C 8,4 °C 9,7 km/h (2 Bft)
07.11.2022 02:29 22,2 °C 8,4 °C 57 % 81 % 1011,8 hPa 0,0 l/m² 8,0 km/h (2 Bft) S-SW 202 ° 0 min 0 W/m² 5,3 °C 7,2 °C 9,7 km/h (2 Bft)
07.11.2022 02:30 22,2 °C 8,4 °C 57 % 81 % 1011,8 hPa 0,0 l/m² 8,0 km/h (2 Bft) S-SW 202 ° 0 min 0 W/m² 5,3 °C 7,2 °C 9,7 km/h (2 Bft)
07.11.2022 02:31 22,2 °C 8,4 °C 57 % 80 % 1011,9 hPa 0,0 l/m² 6,4 km/h (2 Bft) S-SW 202 ° 0 min 0 W/m² 5,2 °C 8,4 °C 9,7 km/h (2 Bft)
07.11.2022 02:32 22,2 °C 8,5 °C 57 % 80 % 1011,9 hPa 0,0 l/m² 4,8 km/h (1 Bft) S-SW 202 ° 0 min 0 W/m² 5,3 °C 8,5 °C 6,4 km/h (2 Bft)
07.11.2022 02:33 22,2 °C 8,4 °C 57 % 80 % 1012,0 hPa 0,0 l/m² 4,8 km/h (1 Bft) SW 225 ° 0 min 0 W/m² 5,2 °C 8,4 °C 9,7 km/h (2 Bft)
07.11.2022 02:34 22,2 °C 8,5 °C 57 % 80 % 1011,9 hPa 0,0 l/m² 4,8 km/h (1 Bft) SW 225 ° 0 min 0 W/m² 5,3 °C 8,5 °C 4,8 km/h (1 Bft)
07.11.2022 02:35 22,2 °C 8,5 °C 57 % 80 % 1011,9 hPa 0,0 l/m² 1,6 km/h (1 Bft) SW 225 ° 0 min 0 W/m² 5,3 °C 8,5 °C 4,8 km/h (1 Bft)
07.11.2022 02:36 22,2 °C 8,5 °C 57 % 80 % 1011,9 hPa 0,0 l/m² 0,0 km/h (0 Bft) SW 225 ° 0 min 0 W/m² 5,3 °C 8,5 °C 3,2 km/h (1 Bft)
07.11.2022 02:37 22,2 °C 8,5 °C 57 % 80 % 1012,0 hPa 0,0 l/m² 8,0 km/h (2 Bft) SW 225 ° 0 min 0 W/m² 5,3 °C 7,3 °C 11,3 km/h (2 Bft)
07.11.2022 02:38 22,2 °C 8,6 °C 57 % 80 % 1011,9 hPa 0,0 l/m² 6,4 km/h (2 Bft) SW 225 ° 0 min 0 W/m² 5,3 °C 8,6 °C 8,0 km/h (2 Bft)
07.11.2022 02:39 22,2 °C 8,6 °C 57 % 80 % 1012,0 hPa 0,0 l/m² 1,6 km/h (1 Bft) SW 225 ° 0 min 0 W/m² 5,3 °C 8,6 °C 4,8 km/h (1 Bft)
07.11.2022 02:40 22,2 °C 8,6 °C 57 % 80 % 1012,0 hPa 0,0 l/m² 0,0 km/h (0 Bft) N 0 ° 0 min 0 W/m² 5,3 °C 8,6 °C 0,0 km/h (0 Bft)
07.11.2022 02:41 22,2 °C 8,7 °C 57 % 80 % 1011,9 hPa 0,0 l/m² 0,0 km/h (0 Bft) N 0 ° 0 min 0 W/m² 5,4 °C 8,7 °C 0,0 km/h (0 Bft)
07.11.2022 02:42 22,2 °C 8,7 °C 57 % 80 % 1012,0 hPa 0,0 l/m² 4,8 km/h (1 Bft) S-SW 202 ° 0 min 0 W/m² 5,4 °C 8,7 °C 8,0 km/h (2 Bft)
07.11.2022 02:43 22,2 °C 8,7 °C 57 % 80 % 1012,0 hPa 0,0 l/m² 4,8 km/h (1 Bft) S-SW 202 ° 0 min 0 W/m² 5,4 °C 8,7 °C 8,0 km/h (2 Bft)
07.11.2022 02:44 22,2 °C 8,7 °C 57 % 80 % 1011,9 hPa 0,0 l/m² 1,6 km/h (1 Bft) S-SW 202 ° 0 min 0 W/m² 5,4 °C 8,7 °C 3,2 km/h (1 Bft)
07.11.2022 02:45 22,2 °C 8,7 °C 57 % 80 % 1012,1 hPa 0,0 l/m² 4,8 km/h (1 Bft) S-SW 202 ° 0 min 0 W/m² 5,4 °C 8,7 °C 6,4 km/h (2 Bft)
07.11.2022 02:46 22,2 °C 8,8 °C 57 % 79 % 1012,1 hPa 0,0 l/m² 3,2 km/h (1 Bft) S-SW 202 ° 0 min 0 W/m² 5,4 °C 8,8 °C 4,8 km/h (1 Bft)
07.11.2022 02:47 22,2 °C 8,7 °C 57 % 79 % 1012,0 hPa 0,0 l/m² 1,6 km/h (1 Bft) S-SW 202 ° 0 min 0 W/m² 5,3 °C 8,7 °C 3,2 km/h (1 Bft)
07.11.2022 02:48 22,2 °C 8,7 °C 57 % 79 % 1012,0 hPa 0,0 l/m² 1,6 km/h (1 Bft) S-SW 202 ° 0 min 0 W/m² 5,3 °C 8,7 °C 3,2 km/h (1 Bft)
07.11.2022 02:49 22,2 °C 8,7 °C 57 % 79 % 1012,0 hPa 0,0 l/m² 3,2 km/h (1 Bft) S-SW 202 ° 0 min 0 W/m² 5,3 °C 8,7 °C 6,4 km/h (2 Bft)
07.11.2022 02:50 22,2 °C 8,7 °C 57 % 79 % 1012,0 hPa 0,0 l/m² 4,8 km/h (1 Bft) SO 135 ° 0 min 0 W/m² 5,3 °C 8,7 °C 11,3 km/h (2 Bft)
07.11.2022 02:51 22,2 °C 8,7 °C 57 % 80 % 1011,9 hPa 0,0 l/m² 9,7 km/h (2 Bft) S 180 ° 0 min 0 W/m² 5,4 °C 6,3 °C 17,7 km/h (3 Bft)
07.11.2022 02:52 22,2 °C 8,7 °C 57 % 80 % 1011,9 hPa 0,0 l/m² 8,0 km/h (2 Bft) S 180 ° 0 min 0 W/m² 5,4 °C 7,5 °C 9,7 km/h (2 Bft)
07.11.2022 02:53 22,2 °C 8,7 °C 57 % 80 % 1011,9 hPa 0,0 l/m² 4,8 km/h (1 Bft) S-SO 157 ° 0 min 0 W/m² 5,4 °C 8,7 °C 8,0 km/h (2 Bft)
07.11.2022 02:54 22,2 °C 8,7 °C 57 % 80 % 1011,9 hPa 0,0 l/m² 6,4 km/h (2 Bft) SO 135 ° 0 min 0 W/m² 5,4 °C 8,7 °C 11,3 km/h (2 Bft)
07.11.2022 02:55 22,2 °C 8,7 °C 57 % 80 % 1011,8 hPa 0,0 l/m² 4,8 km/h (1 Bft) O-SO 112 ° 0 min 0 W/m² 5,4 °C 8,7 °C 9,7 km/h (2 Bft)
07.11.2022 02:56 22,2 °C 8,7 °C 57 % 80 % 1011,9 hPa 0,0 l/m² 3,2 km/h (1 Bft) O-SO 112 ° 0 min 0 W/m² 5,4 °C 8,7 °C 3,2 km/h (1 Bft)
07.11.2022 02:57 22,2 °C 8,6 °C 57 % 80 % 1011,9 hPa 0,0 l/m² 1,6 km/h (1 Bft) O-SO 112 ° 0 min 0 W/m² 5,3 °C 8,6 °C 4,8 km/h (1 Bft)
07.11.2022 02:58 22,2 °C 8,6 °C 57 % 80 % 1011,9 hPa 0,0 l/m² 1,6 km/h (1 Bft) O-SO 112 ° 0 min 0 W/m² 5,3 °C 8,6 °C 3,2 km/h (1 Bft)
07.11.2022 02:59 22,2 °C 8,5 °C 57 % 80 % 1012,0 hPa 0,0 l/m² 1,6 km/h (1 Bft) O-SO 112 ° 0 min 0 W/m² 5,3 °C 8,5 °C 3,2 km/h (1 Bft)
07.11.2022 03:00 22,2 °C 8,5 °C 57 % 80 % 1011,9 hPa 0,0 l/m² 3,2 km/h (1 Bft) O-SO 112 ° 0 min 0 W/m² 5,3 °C 8,5 °C 6,4 km/h (2 Bft)
07.11.2022 03:01 22,2 °C 8,5 °C 57 % 80 % 1011,8 hPa 0,0 l/m² 3,2 km/h (1 Bft) O-SO 112 ° 0 min 0 W/m² 5,3 °C 8,5 °C 4,8 km/h (1 Bft)
07.11.2022 03:02 22,2 °C 8,6 °C 57 % 80 % 1011,8 hPa 0,0 l/m² 4,8 km/h (1 Bft) O-SO 112 ° 0 min 0 W/m² 5,3 °C 8,6 °C 6,4 km/h (2 Bft)
07.11.2022 03:03 22,2 °C 8,5 °C 57 % 80 % 1011,8 hPa 0,0 l/m² 8,0 km/h (2 Bft) S 180 ° 0 min 0 W/m² 5,3 °C 7,3 °C 11,3 km/h (2 Bft)
07.11.2022 03:04 22,2 °C 8,5 °C 57 % 80 % 1011,9 hPa 0,0 l/m² 6,4 km/h (2 Bft) S-SO 157 ° 0 min 0 W/m² 5,3 °C 8,5 °C 8,0 km/h (2 Bft)
07.11.2022 03:05 22,2 °C 8,5 °C 57 % 80 % 1011,9 hPa 0,0 l/m² 9,7 km/h (2 Bft) SW 225 ° 0 min 0 W/m² 5,3 °C 6,1 °C 11,3 km/h (2 Bft)
07.11.2022 03:06 22,2 °C 8,5 °C 57 % 80 % 1011,9 hPa 0,0 l/m² 11,3 km/h (2 Bft) S-SW 202 ° 0 min 0 W/m² 5,3 °C 5,2 °C 12,9 km/h (3 Bft)
07.11.2022 03:07 22,2 °C 8,5 °C 57 % 80 % 1011,8 hPa 0,0 l/m² 8,0 km/h (2 Bft) S-SO 157 ° 0 min 0 W/m² 5,3 °C 7,3 °C 9,7 km/h (2 Bft)
07.11.2022 03:08 22,1 °C 8,6 °C 57 % 80 % 1011,9 hPa 0,0 l/m² 9,7 km/h (2 Bft) S 180 ° 0 min 0 W/m² 5,3 °C 6,2 °C 12,9 km/h (3 Bft)
07.11.2022 03:09 22,2 °C 8,6 °C 57 % 80 % 1011,8 hPa 0,0 l/m² 8,0 km/h (2 Bft) S-SO 157 ° 0 min 0 W/m² 5,3 °C 7,4 °C 11,3 km/h (2 Bft)
07.11.2022 03:10 22,2 °C 8,6 °C 57 % 80 % 1011,8 hPa 0,0 l/m² 8,0 km/h (2 Bft) S-SO 157 ° 0 min 0 W/m² 5,3 °C 7,4 °C 12,9 km/h (3 Bft)
07.11.2022 03:11 22,2 °C 8,6 °C 57 % 80 % 1011,8 hPa 0,0 l/m² 12,9 km/h (3 Bft) SW 225 ° 0 min 0 W/m² 5,3 °C 4,4 °C 17,7 km/h (3 Bft)
07.11.2022 03:12 22,2 °C 8,6 °C 57 % 80 % 1011,9 hPa 0,0 l/m² 8,0 km/h (2 Bft) SO 135 ° 0 min 0 W/m² 5,3 °C 7,4 °C 14,5 km/h (3 Bft)
07.11.2022 03:13 22,2 °C 8,6 °C 57 % 79 % 1011,9 hPa 0,0 l/m² 9,7 km/h (2 Bft) S 180 ° 0 min 0 W/m² 5,2 °C 6,2 °C 14,5 km/h (3 Bft)
07.11.2022 03:14 22,2 °C 8,7 °C 57 % 80 % 1011,9 hPa 0,0 l/m² 11,3 km/h (2 Bft) S 180 ° 0 min 0 W/m² 5,4 °C 5,4 °C 14,5 km/h (3 Bft)
07.11.2022 03:15 22,2 °C 8,7 °C 57 % 80 % 1011,9 hPa 0,0 l/m² 6,4 km/h (2 Bft) S 180 ° 0 min 0 W/m² 5,4 °C 8,7 °C 9,7 km/h (2 Bft)
07.11.2022 03:16 22,2 °C 8,7 °C 57 % 80 % 1012,0 hPa 0,0 l/m² 3,2 km/h (1 Bft) S 180 ° 0 min 0 W/m² 5,4 °C 8,7 °C 4,8 km/h (1 Bft)
07.11.2022 03:17 22,2 °C 8,6 °C 57 % 79 % 1011,9 hPa 0,0 l/m² 6,4 km/h (2 Bft) S-SO 157 ° 0 min 0 W/m² 5,2 °C 8,6 °C 9,7 km/h (2 Bft)
07.11.2022 03:18 22,1 °C 8,6 °C 57 % 79 % 1012,0 hPa 0,0 l/m² 6,4 km/h (2 Bft) S-SW 202 ° 0 min 0 W/m² 5,2 °C 8,6 °C 9,7 km/h (2 Bft)
07.11.2022 03:19 22,2 °C 8,7 °C 57 % 80 % 1012,0 hPa 0,0 l/m² 3,2 km/h (1 Bft) S-SW 202 ° 0 min 0 W/m² 5,4 °C 8,7 °C 4,8 km/h (1 Bft)
07.11.2022 03:20 22,2 °C 8,7 °C 57 % 80 % 1012,0 hPa 0,0 l/m² 1,6 km/h (1 Bft) S-SW 202 ° 0 min 0 W/m² 5,4 °C 8,7 °C 3,2 km/h (1 Bft)
07.11.2022 03:21 22,1 °C 8,7 °C 57 % 79 % 1012,0 hPa 0,0 l/m² 0,0 km/h (0 Bft) S-SW 202 ° 0 min 0 W/m² 5,3 °C 8,7 °C 1,6 km/h (1 Bft)
07.11.2022 03:22 22,1 °C 8,6 °C 57 % 79 % 1012,0 hPa 0,0 l/m² 0,0 km/h (0 Bft) S-SW 202 ° 0 min 0 W/m² 5,2 °C 8,6 °C 1,6 km/h (1 Bft)
07.11.2022 03:23 22,2 °C 8,6 °C 57 % 79 % 1012,1 hPa 0,0 l/m² 0,0 km/h (0 Bft) S-SW 202 ° 0 min 0 W/m² 5,2 °C 8,6 °C 1,6 km/h (1 Bft)
07.11.2022 03:24 22,2 °C 8,5 °C 57 % 79 % 1012,0 hPa 0,0 l/m² 0,0 km/h (0 Bft) S-SW 202 ° 0 min 0 W/m² 5,1 °C 8,5 °C 3,2 km/h (1 Bft)
07.11.2022 03:25 22,2 °C 8,5 °C 57 % 80 % 1012,0 hPa 0,0 l/m² 3,2 km/h (1 Bft) S-SW 202 ° 0 min 0 W/m² 5,3 °C 8,5 °C 6,4 km/h (2 Bft)
07.11.2022 03:26 22,1 °C 8,4 °C 57 % 80 % 1012,0 hPa 0,0 l/m² 3,2 km/h (1 Bft) SW 225 ° 0 min 0 W/m² 5,2 °C 8,4 °C 8,0 km/h (2 Bft)
07.11.2022 03:27 22,1 °C 8,5 °C 57 % 80 % 1012,0 hPa 0,0 l/m² 4,8 km/h (1 Bft) SW 225 ° 0 min 0 W/m² 5,3 °C 8,5 °C 8,0 km/h (2 Bft)
07.11.2022 03:28 22,1 °C 8,5 °C 57 % 80 % 1012,0 hPa 0,0 l/m² 4,8 km/h (1 Bft) SO 135 ° 0 min 0 W/m² 5,3 °C 8,5 °C 9,7 km/h (2 Bft)
07.11.2022 03:29 22,1 °C 8,5 °C 57 % 80 % 1012,0 hPa 0,0 l/m² 6,4 km/h (2 Bft) S-SW 202 ° 0 min 0 W/m² 5,3 °C 8,5 °C 9,7 km/h (2 Bft)
07.11.2022 03:30 22,1 °C 8,6 °C 57 % 80 % 1012,0 hPa 0,0 l/m² 4,8 km/h (1 Bft) S-SO 157 ° 0 min 0 W/m² 5,3 °C 8,6 °C 8,0 km/h (2 Bft)
07.11.2022 03:31 22,2 °C 8,6 °C 57 % 80 % 1012,0 hPa 0,0 l/m² 3,2 km/h (1 Bft) S 180 ° 0 min 0 W/m² 5,3 °C 8,6 °C 6,4 km/h (2 Bft)
07.11.2022 03:32 22,2 °C 8,6 °C 57 % 80 % 1012,0 hPa 0,0 l/m² 6,4 km/h (2 Bft) S 180 ° 0 min 0 W/m² 5,3 °C 8,6 °C 11,3 km/h (2 Bft)
07.11.2022 03:33 22,1 °C 8,6 °C 57 % 80 % 1012,0 hPa 0,0 l/m² 4,8 km/h (1 Bft) S-SW 202 ° 0 min 0 W/m² 5,3 °C 8,6 °C 8,0 km/h (2 Bft)
07.11.2022 03:34 22,1 °C 8,6 °C 57 % 80 % 1011,9 hPa 0,0 l/m² 8,0 km/h (2 Bft) S-SW 202 ° 0 min 0 W/m² 5,3 °C 7,4 °C 14,5 km/h (3 Bft)
07.11.2022 03:35 22,2 °C 8,6 °C 57 % 80 % 1012,0 hPa 0,0 l/m² 9,7 km/h (2 Bft) S 180 ° 0 min 0 W/m² 5,3 °C 6,2 °C 12,9 km/h (3 Bft)
07.11.2022 03:36 22,1 °C 8,6 °C 57 % 80 % 1011,9 hPa 0,0 l/m² 8,0 km/h (2 Bft) S 180 ° 0 min 0 W/m² 5,3 °C 7,4 °C 11,3 km/h (2 Bft)
07.11.2022 03:37 22,1 °C 8,6 °C 57 % 80 % 1011,9 hPa 0,0 l/m² 8,0 km/h (2 Bft) S 180 ° 0 min 0 W/m² 5,3 °C 7,4 °C 12,9 km/h (3 Bft)
07.11.2022 03:38 22,1 °C 8,5 °C 57 % 80 % 1011,9 hPa 0,0 l/m² 8,0 km/h (2 Bft) S-SW 202 ° 0 min 0 W/m² 5,3 °C 7,3 °C 11,3 km/h (2 Bft)
07.11.2022 03:39 22,1 °C 8,5 °C 57 % 80 % 1012,0 hPa 0,0 l/m² 9,7 km/h (2 Bft) S 180 ° 0 min 0 W/m² 5,3 °C 6,1 °C 12,9 km/h (3 Bft)
07.11.2022 03:40 22,1 °C 8,6 °C 57 % 80 % 1011,9 hPa 0,0 l/m² 9,7 km/h (2 Bft) S-SW 202 ° 0 min 0 W/m² 5,3 °C 6,2 °C 14,5 km/h (3 Bft)
07.11.2022 03:41 22,1 °C 8,6 °C 57 % 80 % 1011,9 hPa 0,0 l/m² 8,0 km/h (2 Bft) S 180 ° 0 min 0 W/m² 5,3 °C 7,4 °C 9,7 km/h (2 Bft)
07.11.2022 03:42 22,1 °C 8,5 °C 57 % 80 % 1011,9 hPa 0,0 l/m² 9,7 km/h (2 Bft) S 180 ° 0 min 0 W/m² 5,3 °C 6,1 °C 14,5 km/h (3 Bft)
07.11.2022 03:43 22,1 °C 8,5 °C 57 % 80 % 1012,0 hPa 0,0 l/m² 8,0 km/h (2 Bft) S 180 ° 0 min 0 W/m² 5,3 °C 7,3 °C 11,3 km/h (2 Bft)
07.11.2022 03:44 22,1 °C 8,5 °C 57 % 80 % 1012,0 hPa 0,0 l/m² 6,4 km/h (2 Bft) S 180 ° 0 min 0 W/m² 5,3 °C 8,5 °C 9,7 km/h (2 Bft)
07.11.2022 03:45 22,1 °C 8,5 °C 57 % 80 % 1011,9 hPa 0,0 l/m² 9,7 km/h (2 Bft) SW 225 ° 0 min 0 W/m² 5,3 °C 6,1 °C 14,5 km/h (3 Bft)
07.11.2022 03:46 22,1 °C 8,4 °C 57 % 80 % 1011,9 hPa 0,0 l/m² 8,0 km/h (2 Bft) S-SW 202 ° 0 min 0 W/m² 5,2 °C 7,2 °C 12,9 km/h (3 Bft)
07.11.2022 03:47 22,1 °C 8,4 °C 57 % 80 % 1011,9 hPa 0,0 l/m² 9,7 km/h (2 Bft) S-SW 202 ° 0 min 0 W/m² 5,2 °C 6,0 °C 12,9 km/h (3 Bft)
07.11.2022 03:48 22,1 °C 8,4 °C 57 % 80 % 1011,9 hPa 0,0 l/m² 9,7 km/h (2 Bft) S-SW 202 ° 0 min 0 W/m² 5,2 °C 6,0 °C 14,5 km/h (3 Bft)
07.11.2022 03:49 22,1 °C 8,4 °C 57 % 80 % 1011,9 hPa 0,0 l/m² 9,7 km/h (2 Bft) S-SW 202 ° 0 min 0 W/m² 5,2 °C 6,0 °C 16,1 km/h (3 Bft)
07.11.2022 03:50 22,1 °C 8,5 °C 57 % 81 % 1011,8 hPa 0,0 l/m² 9,7 km/h (2 Bft) S-SW 202 ° 0 min 0 W/m² 5,4 °C 6,1 °C 11,3 km/h (2 Bft)
07.11.2022 03:51 22,1 °C 8,5 °C 57 % 80 % 1011,9 hPa 0,0 l/m² 8,0 km/h (2 Bft) S 180 ° 0 min 0 W/m² 5,3 °C 7,3 °C 17,7 km/h (3 Bft)
07.11.2022 03:52 22,1 °C 8,4 °C 57 % 81 % 1011,8 hPa 0,0 l/m² 24,1 km/h (4 Bft) S-SW 202 ° 0 min 0 W/m² 5,3 °C -0,1 °C 33,8 km/h (5 Bft)
07.11.2022 03:53 22,1 °C 8,5 °C 57 % 81 % 1011,8 hPa 0,0 l/m² 12,9 km/h (3 Bft) SW 225 ° 0 min 0 W/m² 5,4 °C 4,3 °C 32,2 km/h (5 Bft)
07.11.2022 03:54 22,1 °C 8,6 °C 57 % 81 % 1011,8 hPa 0,0 l/m² 12,9 km/h (3 Bft) SW 225 ° 0 min 0 W/m² 5,5 °C 4,4 °C 29,0 km/h (5 Bft)
07.11.2022 03:55 22,1 °C 8,6 °C 57 % 81 % 1011,8 hPa 0,0 l/m² 16,1 km/h (3 Bft) SW 225 ° 0 min 0 W/m² 5,5 °C 3,0 °C 27,4 km/h (5 Bft)
07.11.2022 03:56 22,1 °C 8,6 °C 57 % 81 % 1011,8 hPa 0,0 l/m² 16,1 km/h (3 Bft) SW 225 ° 0 min 0 W/m² 5,5 °C 3,0 °C 22,5 km/h (4 Bft)
07.11.2022 03:57 22,1 °C 8,6 °C 57 % 81 % 1011,8 hPa 0,0 l/m² 14,5 km/h (3 Bft) SW 225 ° 0 min 0 W/m² 5,5 °C 3,7 °C 20,9 km/h (4 Bft)
07.11.2022 03:58 22,1 °C 8,7 °C 57 % 81 % 1011,8 hPa 0,0 l/m² 16,1 km/h (3 Bft) SW 225 ° 0 min 0 W/m² 5,6 °C 3,1 °C 22,5 km/h (4 Bft)
07.11.2022 03:59 22,1 °C 8,7 °C 57 % 81 % 1011,8 hPa 0,0 l/m² 19,3 km/h (3 Bft) SW 225 ° 0 min 0 W/m² 5,6 °C 1,9 °C 27,4 km/h (5 Bft)
07.11.2022 04:00 22,1 °C 8,7 °C 57 % 81 % 1011,8 hPa 0,0 l/m² 19,3 km/h (3 Bft) SW 225 ° 0 min 0 W/m² 5,6 °C 1,9 °C 27,4 km/h (5 Bft)
07.11.2022 04:01 22,1 °C 8,8 °C 57 % 81 % 1011,8 hPa 0,0 l/m² 20,9 km/h (4 Bft) SW 225 ° 0 min 0 W/m² 5,7 °C 1,4 °C 27,4 km/h (5 Bft)
07.11.2022 04:02 22,1 °C 8,8 °C 57 % 80 % 1011,8 hPa 0,0 l/m² 22,5 km/h (4 Bft) SW 225 ° 0 min 0 W/m² 5,5 °C 0,9 °C 30,6 km/h (5 Bft)
07.11.2022 04:03 22,1 °C 8,8 °C 57 % 80 % 1011,8 hPa 0,0 l/m² 25,7 km/h (4 Bft) SW 225 ° 0 min 0 W/m² 5,5 °C 0,0 °C 38,6 km/h (6 Bft)
07.11.2022 04:04 22,1 °C 8,8 °C 57 % 80 % 1011,9 hPa 0,0 l/m² 24,1 km/h (4 Bft) SW 225 ° 0 min 0 W/m² 5,5 °C 0,5 °C 32,2 km/h (5 Bft)
07.11.2022 04:05 22,1 °C 8,9 °C 57 % 80 % 1011,8 hPa 0,0 l/m² 17,7 km/h (3 Bft) SW 225 ° 0 min 0 W/m² 5,6 °C 2,7 °C 38,6 km/h (6 Bft)
07.11.2022 04:06 22,1 °C 8,9 °C 57 % 80 % 1011,8 hPa 0,0 l/m² 22,5 km/h (4 Bft) SW 225 ° 0 min 0 W/m² 5,6 °C 1,1 °C 29,0 km/h (5 Bft)
07.11.2022 04:07 22,1 °C 8,9 °C 57 % 80 % 1011,9 hPa 0,0 l/m² 19,3 km/h (3 Bft) SW 225 ° 0 min 0 W/m² 5,6 °C 2,1 °C 29,0 km/h (5 Bft)
07.11.2022 04:08 22,1 °C 9,0 °C 57 % 80 % 1011,8 hPa 0,0 l/m² 22,5 km/h (4 Bft) SW 225 ° 0 min 0 W/m² 5,7 °C 1,2 °C 27,4 km/h (5 Bft)
07.11.2022 04:09 22,1 °C 9,0 °C 57 % 80 % 1011,8 hPa 0,0 l/m² 19,3 km/h (3 Bft) SW 225 ° 0 min 0 W/m² 5,7 °C 2,2 °C 29,0 km/h (5 Bft)
07.11.2022 04:10 22,1 °C 9,1 °C 57 % 80 % 1011,9 hPa 0,0 l/m² 24,1 km/h (4 Bft) SW 225 ° 0 min 0 W/m² 5,8 °C 0,9 °C 33,8 km/h (5 Bft)
07.11.2022 04:11 22,1 °C 9,1 °C 57 % 80 % 1011,8 hPa 0,0 l/m² 25,7 km/h (4 Bft) SW 225 ° 0 min 0 W/m² 5,8 °C 0,4 °C 30,6 km/h (5 Bft)
07.11.2022 04:12 22,1 °C 9,1 °C 57 % 80 % 1011,9 hPa 0,0 l/m² 22,5 km/h (4 Bft) SW 225 ° 0 min 0 W/m² 5,8 °C 1,3 °C 27,4 km/h (5 Bft)
07.11.2022 04:13 22,1 °C 9,1 °C 57 % 80 % 1011,9 hPa 0,0 l/m² 20,9 km/h (4 Bft) SW 225 ° 0 min 0 W/m² 5,8 °C 1,8 °C 27,4 km/h (5 Bft)
07.11.2022 04:14 22,1 °C 9,1 °C 56 % 80 % 1011,9 hPa 0,0 l/m² 22,5 km/h (4 Bft) SW 225 ° 0 min 0 W/m² 5,8 °C 1,3 °C 27,4 km/h (5 Bft)
07.11.2022 04:15 22,1 °C 9,1 °C 57 % 80 % 1011,9 hPa 0,0 l/m² 20,9 km/h (4 Bft) SW 225 ° 0 min 0 W/m² 5,8 °C 1,8 °C 27,4 km/h (5 Bft)
07.11.2022 04:16 22,1 °C 9,1 °C 56 % 80 % 1011,9 hPa 0,0 l/m² 19,3 km/h (3 Bft) S-SW 202 ° 0 min 0 W/m² 5,8 °C 2,4 °C 25,7 km/h (4 Bft)
07.11.2022 04:17 22,1 °C 9,1 °C 56 % 80 % 1012,0 hPa 0,0 l/m² 20,9 km/h (4 Bft) SW 225 ° 0 min 0 W/m² 5,8 °C 1,8 °C 25,7 km/h (4 Bft)
07.11.2022 04:18 22,1 °C 9,1 °C 57 % 80 % 1012,0 hPa 0,0 l/m² 20,9 km/h (4 Bft) SW 225 ° 0 min 0 W/m² 5,8 °C 1,8 °C 24,1 km/h (4 Bft)
07.11.2022 04:19 22,1 °C 9,1 °C 56 % 80 % 1012,0 hPa 0,0 l/m² 19,3 km/h (3 Bft) S-SW 202 ° 0 min 0 W/m² 5,8 °C 2,4 °C 24,1 km/h (4 Bft)
07.11.2022 04:20 22,1 °C 9,1 °C 56 % 80 % 1011,9 hPa 0,0 l/m² 20,9 km/h (4 Bft) SW 225 ° 0 min 0 W/m² 5,8 °C 1,8 °C 27,4 km/h (5 Bft)
07.11.2022 04:21 22,1 °C 9,1 °C 56 % 80 % 1011,9 hPa 0,0 l/m² 20,9 km/h (4 Bft) S-SW 202 ° 0 min 0 W/m² 5,8 °C 1,8 °C 27,4 km/h (5 Bft)
07.11.2022 04:22 22,1 °C 9,1 °C 56 % 80 % 1011,9 hPa 0,0 l/m² 16,1 km/h (3 Bft) SW 225 ° 0 min 0 W/m² 5,8 °C 3,6 °C 22,5 km/h (4 Bft)
07.11.2022 04:23 22,1 °C 9,1 °C 56 % 80 % 1012,1 hPa 0,0 l/m² 16,1 km/h (3 Bft) SW 225 ° 0 min 0 W/m² 5,8 °C 3,6 °C 19,3 km/h (3 Bft)
07.11.2022 04:24 22,1 °C 9,1 °C 56 % 80 % 1012,1 hPa 0,0 l/m² 14,5 km/h (3 Bft) SW 225 ° 0 min 0 W/m² 5,8 °C 4,3 °C 20,9 km/h (4 Bft)
07.11.2022 04:25 22,1 °C 9,1 °C 56 % 80 % 1012,2 hPa 0,0 l/m² 17,7 km/h (3 Bft) SW 225 ° 0 min 0 W/m² 5,8 °C 2,9 °C 24,1 km/h (4 Bft)
07.11.2022 04:26 22,1 °C 9,1 °C 56 % 80 % 1012,1 hPa 0,0 l/m² 16,1 km/h (3 Bft) SW 225 ° 0 min 0 W/m² 5,8 °C 3,6 °C 17,7 km/h (3 Bft)
07.11.2022 04:27 22,1 °C 9,1 °C 56 % 80 % 1012,1 hPa 0,0 l/m² 14,5 km/h (3 Bft) SW 225 ° 0 min 0 W/m² 5,8 °C 4,3 °C 17,7 km/h (3 Bft)
07.11.2022 04:28 22,1 °C 9,1 °C 56 % 80 % 1012,1 hPa 0,0 l/m² 17,7 km/h (3 Bft) SW 225 ° 0 min 0 W/m² 5,8 °C 2,9 °C 22,5 km/h (4 Bft)
07.11.2022 04:29 22,1 °C 9,2 °C 56 % 80 % 1012,1 hPa 0,0 l/m² 16,1 km/h (3 Bft) SW 225 ° 0 min 0 W/m² 5,9 °C 3,7 °C 20,9 km/h (4 Bft)
07.11.2022 04:30 22,1 °C 9,2 °C 56 % 80 % 1012,2 hPa 0,0 l/m² 12,9 km/h (3 Bft) SW 225 ° 0 min 0 W/m² 5,9 °C 5,1 °C 17,7 km/h (3 Bft)
07.11.2022 04:31 22,1 °C 9,2 °C 56 % 80 % 1012,0 hPa 0,0 l/m² 12,9 km/h (3 Bft) SW 225 ° 0 min 0 W/m² 5,9 °C 5,1 °C 16,1 km/h (3 Bft)
07.11.2022 04:32 22,1 °C 9,2 °C 56 % 80 % 1012,2 hPa 0,0 l/m² 16,1 km/h (3 Bft) S-SW 202 ° 0 min 0 W/m² 5,9 °C 3,7 °C 24,1 km/h (4 Bft)
07.11.2022 04:33 22,1 °C 9,2 °C 56 % 80 % 1012,2 hPa 0,0 l/m² 16,1 km/h (3 Bft) S-SW 202 ° 0 min 0 W/m² 5,9 °C 3,7 °C 17,7 km/h (3 Bft)
07.11.2022 04:34 22,1 °C 9,2 °C 56 % 80 % 1012,1 hPa 0,0 l/m² 17,7 km/h (3 Bft) S-SW 202 ° 0 min 0 W/m² 5,9 °C 3,1 °C 24,1 km/h (4 Bft)
07.11.2022 04:35 22,1 °C 9,2 °C 56 % 80 % 1012,2 hPa 0,0 l/m² 11,3 km/h (2 Bft) SW 225 ° 0 min 0 W/m² 5,9 °C 6,0 °C 17,7 km/h (3 Bft)
07.11.2022 04:36 22,1 °C 9,2 °C 56 % 80 % 1012,2 hPa 0,0 l/m² 12,9 km/h (3 Bft) SW 225 ° 0 min 0 W/m² 5,9 °C 5,1 °C 16,1 km/h (3 Bft)
07.11.2022 04:37 22,1 °C 9,2 °C 56 % 80 % 1012,1 hPa 0,0 l/m² 11,3 km/h (2 Bft) S-SW 202 ° 0 min 0 W/m² 5,9 °C 6,0 °C 14,5 km/h (3 Bft)
07.11.2022 04:38 22,1 °C 9,2 °C 56 % 80 % 1012,2 hPa 0,0 l/m² 16,1 km/h (3 Bft) SW 225 ° 0 min 0 W/m² 5,9 °C 3,7 °C 24,1 km/h (4 Bft)
07.11.2022 04:39 22,1 °C 9,3 °C 56 % 80 % 1012,2 hPa 0,0 l/m² 16,1 km/h (3 Bft) SW 225 ° 0 min 0 W/m² 6,0 °C 3,8 °C 22,5 km/h (4 Bft)
07.11.2022 04:40 22,1 °C 9,3 °C 56 % 80 % 1012,2 hPa 0,0 l/m² 16,1 km/h (3 Bft) S-SW 202 ° 0 min 0 W/m² 6,0 °C 3,8 °C 17,7 km/h (3 Bft)
07.11.2022 04:41 22,1 °C 9,3 °C 56 % 80 % 1012,2 hPa 0,0 l/m² 14,5 km/h (3 Bft) S-SW 202 ° 0 min 0 W/m² 6,0 °C 4,5 °C 19,3 km/h (3 Bft)
07.11.2022 04:42 22,1 °C 9,3 °C 56 % 80 % 1012,2 hPa 0,0 l/m² 14,5 km/h (3 Bft) S-SW 202 ° 0 min 0 W/m² 6,0 °C 4,5 °C 16,1 km/h (3 Bft)
07.11.2022 04:43 22,1 °C 9,3 °C 56 % 80 % 1012,1 hPa 0,0 l/m² 12,9 km/h (3 Bft) S-SW 202 ° 0 min 0 W/m² 6,0 °C 5,3 °C 17,7 km/h (3 Bft)
07.11.2022 04:44 22,1 °C 9,3 °C 56 % 80 % 1012,1 hPa 0,0 l/m² 12,9 km/h (3 Bft) S-SW 202 ° 0 min 0 W/m² 6,0 °C 5,3 °C 16,1 km/h (3 Bft)
07.11.2022 04:45 22,1 °C 9,3 °C 56 % 80 % 1012,2 hPa 0,0 l/m² 12,9 km/h (3 Bft) S-SW 202 ° 0 min 0 W/m² 6,0 °C 5,3 °C 17,7 km/h (3 Bft)
07.11.2022 04:46 22,1 °C 9,3 °C 56 % 80 % 1012,1 hPa 0,0 l/m² 17,7 km/h (3 Bft) S 180 ° 0 min 0 W/m² 6,0 °C 3,2 °C 24,1 km/h (4 Bft)
07.11.2022 04:47 22,1 °C 9,3 °C 56 % 80 % 1012,1 hPa 0,0 l/m² 14,5 km/h (3 Bft) S-SW 202 ° 0 min 0 W/m² 6,0 °C 4,5 °C 19,3 km/h (3 Bft)
07.11.2022 04:48 22,1 °C 9,3 °C 56 % 80 % 1012,1 hPa 0,0 l/m² 14,5 km/h (3 Bft) S-SW 202 ° 0 min 0 W/m² 6,0 °C 4,5 °C 17,7 km/h (3 Bft)
07.11.2022 04:49 22,1 °C 9,2 °C 56 % 80 % 1012,2 hPa 0,0 l/m² 14,5 km/h (3 Bft) S 180 ° 0 min 0 W/m² 5,9 °C 4,4 °C 19,3 km/h (3 Bft)
07.11.2022 04:50 22,1 °C 9,2 °C 56 % 80 % 1012,1 hPa 0,0 l/m² 11,3 km/h (2 Bft) S-SW 202 ° 0 min 0 W/m² 5,9 °C 6,0 °C 16,1 km/h (3 Bft)
07.11.2022 04:51 22,1 °C 9,2 °C 56 % 80 % 1012,1 hPa 0,0 l/m² 12,9 km/h (3 Bft) S-SW 202 ° 0 min 0 W/m² 5,9 °C 5,1 °C 16,1 km/h (3 Bft)
07.11.2022 04:52 22,1 °C 9,2 °C 56 % 80 % 1012,2 hPa 0,0 l/m² 12,9 km/h (3 Bft) S-SW 202 ° 0 min 0 W/m² 5,9 °C 5,1 °C 19,3 km/h (3 Bft)
07.11.2022 04:53 22,1 °C 9,1 °C 56 % 80 % 1012,3 hPa 0,0 l/m² 17,7 km/h (3 Bft) S-SW 202 ° 0 min 0 W/m² 5,8 °C 2,9 °C 24,1 km/h (4 Bft)
07.11.2022 04:54 22,1 °C 9,1 °C 56 % 80 % 1012,2 hPa 0,0 l/m² 16,1 km/h (3 Bft) S-SW 202 ° 0 min 0 W/m² 5,8 °C 3,6 °C 19,3 km/h (3 Bft)
07.11.2022 04:55 22,1 °C 9,1 °C 56 % 80 % 1012,2 hPa 0,0 l/m² 9,7 km/h (2 Bft) S-SW 202 ° 0 min 0 W/m² 5,8 °C 6,8 °C 14,5 km/h (3 Bft)
07.11.2022 04:56 22,1 °C 9,0 °C 56 % 80 % 1012,3 hPa 0,0 l/m² 11,3 km/h (2 Bft) S-SW 202 ° 0 min 0 W/m² 5,7 °C 5,7 °C 12,9 km/h (3 Bft)
07.11.2022 04:57 22,1 °C 8,9 °C 56 % 81 % 1012,3 hPa 0,0 l/m² 11,3 km/h (2 Bft) SW 225 ° 0 min 0 W/m² 5,8 °C 5,6 °C 14,5 km/h (3 Bft)
07.11.2022 04:58 22,1 °C 8,9 °C 56 % 81 % 1012,5 hPa 0,0 l/m² 12,9 km/h (3 Bft) S-SW 202 ° 0 min 0 W/m² 5,8 °C 4,8 °C 19,3 km/h (3 Bft)
07.11.2022 04:59 22,1 °C 8,9 °C 56 % 81 % 1012,3 hPa 0,0 l/m² 14,5 km/h (3 Bft) S-SW 202 ° 0 min 0 W/m² 5,8 °C 4,0 °C 19,3 km/h (3 Bft)
07.11.2022 05:00 22,1 °C 8,8 °C 56 % 81 % 1012,4 hPa 0,0 l/m² 9,7 km/h (2 Bft) S-SW 202 ° 0 min 0 W/m² 5,7 °C 6,5 °C 11,3 km/h (2 Bft)
07.11.2022 05:01 22,1 °C 8,8 °C 56 % 81 % 1012,4 hPa 0,0 l/m² 9,7 km/h (2 Bft) S-SW 202 ° 0 min 0 W/m² 5,7 °C 6,5 °C 14,5 km/h (3 Bft)
07.11.2022 05:02 22,1 °C 8,8 °C 56 % 81 % 1012,4 hPa 0,0 l/m² 8,0 km/h (2 Bft) SW 225 ° 0 min 0 W/m² 5,7 °C 7,6 °C 11,3 km/h (2 Bft)
07.11.2022 05:03 22,1 °C 8,7 °C 56 % 81 % 1012,5 hPa 0,0 l/m² 12,9 km/h (3 Bft) S-SW 202 ° 0 min 0 W/m² 5,6 °C 4,6 °C 16,1 km/h (3 Bft)
07.11.2022 05:04 22,1 °C 8,7 °C 56 % 81 % 1012,4 hPa 0,0 l/m² 11,3 km/h (2 Bft) S-SW 202 ° 0 min 0 W/m² 5,6 °C 5,4 °C 14,5 km/h (3 Bft)
07.11.2022 05:05 22,1 °C 8,6 °C 56 % 81 % 1012,5 hPa 0,0 l/m² 11,3 km/h (2 Bft) S-SW 202 ° 0 min 0 W/m² 5,5 °C 5,3 °C 14,5 km/h (3 Bft)
07.11.2022 05:06 22,1 °C 8,6 °C 56 % 82 % 1012,5 hPa 0,0 l/m² 12,9 km/h (3 Bft) S-SW 202 ° 0 min 0 W/m² 5,7 °C 4,4 °C 16,1 km/h (3 Bft)
07.11.2022 05:07 22,1 °C 8,6 °C 56 % 82 % 1012,5 hPa 0,0 l/m² 9,7 km/h (2 Bft) SW 225 ° 0 min 0 W/m² 5,7 °C 6,2 °C 12,9 km/h (3 Bft)
07.11.2022 05:08 22,1 °C 8,6 °C 56 % 82 % 1012,5 hPa 0,0 l/m² 9,7 km/h (2 Bft) SW 225 ° 0 min 0 W/m² 5,7 °C 6,2 °C 11,3 km/h (2 Bft)
07.11.2022 05:09 22,1 °C 8,5 °C 56 % 82 % 1012,5 hPa 0,0 l/m² 12,9 km/h (3 Bft) SW 225 ° 0 min 0 W/m² 5,6 °C 4,3 °C 22,5 km/h (4 Bft)
07.11.2022 05:10 22,1 °C 8,4 °C 56 % 82 % 1012,4 hPa 0,0 l/m² 16,1 km/h (3 Bft) S-SW 202 ° 0 min 0 W/m² 5,5 °C 2,7 °C 19,3 km/h (3 Bft)
07.11.2022 05:11 22,1 °C 8,4 °C 56 % 82 % 1012,5 hPa 0,0 l/m² 12,9 km/h (3 Bft) SW 225 ° 0 min 0 W/m² 5,5 °C 4,2 °C 14,5 km/h (3 Bft)
07.11.2022 05:12 22,1 °C 8,4 °C 56 % 82 % 1012,5 hPa 0,0 l/m² 12,9 km/h (3 Bft) SW 225 ° 0 min 0 W/m² 5,5 °C 4,2 °C 17,7 km/h (3 Bft)
07.11.2022 05:13 22,1 °C 8,4 °C 56 % 83 % 1012,5 hPa 0,0 l/m² 11,3 km/h (2 Bft) SW 225 ° 0 min 0 W/m² 5,7 °C 5,1 °C 12,9 km/h (3 Bft)
07.11.2022 05:14 22,1 °C 8,4 °C 56 % 83 % 1012,5 hPa 0,0 l/m² 11,3 km/h (2 Bft) S-SW 202 ° 0 min 0 W/m² 5,7 °C 5,1 °C 16,1 km/h (3 Bft)
07.11.2022 05:15 22,1 °C 8,3 °C 56 % 83 % 1012,5 hPa 0,0 l/m² 11,3 km/h (2 Bft) S-SW 202 ° 0 min 0 W/m² 5,6 °C 4,9 °C 12,9 km/h (3 Bft)
07.11.2022 05:16 22,1 °C 8,3 °C 56 % 83 % 1012,4 hPa 0,0 l/m² 12,9 km/h (3 Bft) S-SW 202 ° 0 min 0 W/m² 5,6 °C 4,1 °C 16,1 km/h (3 Bft)
07.11.2022 05:17 22,1 °C 8,3 °C 56 % 83 % 1012,4 hPa 0,0 l/m² 11,3 km/h (2 Bft) S-SW 202 ° 0 min 0 W/m² 5,6 °C 4,9 °C 14,5 km/h (3 Bft)
07.11.2022 05:18 22,1 °C 8,3 °C 56 % 83 % 1012,4 hPa 0,0 l/m² 12,9 km/h (3 Bft) S-SW 202 ° 0 min 0 W/m² 5,6 °C 4,1 °C 14,5 km/h (3 Bft)
07.11.2022 05:19 22,1 °C 8,2 °C 56 % 83 % 1012,4 hPa 0,0 l/m² 12,9 km/h (3 Bft) S-SW 202 ° 0 min 0 W/m² 5,5 °C 4,0 °C 14,5 km/h (3 Bft)
07.11.2022 05:20 22,1 °C 8,1 °C 56 % 83 % 1012,4 hPa 0,0 l/m² 12,9 km/h (3 Bft) S-SW 202 ° 0 min 0 W/m² 5,4 °C 3,8 °C 16,1 km/h (3 Bft)
07.11.2022 05:21 22,1 °C 8,1 °C 56 % 83 % 1012,5 hPa 0,0 l/m² 12,9 km/h (3 Bft) S-SW 202 ° 0 min 0 W/m² 5,4 °C 3,8 °C 14,5 km/h (3 Bft)
07.11.2022 05:22 22,1 °C 8,1 °C 56 % 84 % 1012,4 hPa 0,0 l/m² 14,5 km/h (3 Bft) S-SW 202 ° 0 min 0 W/m² 5,6 °C 3,1 °C 16,1 km/h (3 Bft)
07.11.2022 05:23 22,1 °C 8,1 °C 56 % 84 % 1012,4 hPa 0,0 l/m² 14,5 km/h (3 Bft) S-SW 202 ° 0 min 0 W/m² 5,6 °C 3,1 °C 16,1 km/h (3 Bft)
07.11.2022 05:24 22,1 °C 8,1 °C 56 % 84 % 1012,4 hPa 0,0 l/m² 14,5 km/h (3 Bft) S-SW 202 ° 0 min 0 W/m² 5,6 °C 3,1 °C 19,3 km/h (3 Bft)
07.11.2022 05:25 22,1 °C 8,0 °C 56 % 84 % 1012,4 hPa 0,0 l/m² 16,1 km/h (3 Bft) S-SW 202 ° 0 min 0 W/m² 5,5 °C 2,2 °C 19,3 km/h (3 Bft)
07.11.2022 05:26 22,1 °C 8,1 °C 56 % 84 % 1012,4 hPa 0,0 l/m² 16,1 km/h (3 Bft) S-SW 202 ° 0 min 0 W/m² 5,6 °C 2,3 °C 19,3 km/h (3 Bft)
07.11.2022 05:27 22,1 °C 8,1 °C 56 % 84 % 1012,4 hPa 0,0 l/m² 16,1 km/h (3 Bft) S-SW 202 ° 0 min 0 W/m² 5,6 °C 2,3 °C 19,3 km/h (3 Bft)
07.11.2022 05:28 22,1 °C 8,1 °C 56 % 84 % 1012,3 hPa 0,0 l/m² 17,7 km/h (3 Bft) S-SW 202 ° 0 min 0 W/m² 5,6 °C 1,7 °C 22,5 km/h (4 Bft)
07.11.2022 05:29 22,1 °C 8,1 °C 56 % 84 % 1012,3 hPa 0,0 l/m² 14,5 km/h (3 Bft) S-SW 202 ° 0 min 0 W/m² 5,6 °C 3,1 °C 19,3 km/h (3 Bft)
07.11.2022 05:30 22,1 °C 8,2 °C 56 % 84 % 1012,3 hPa 0,0 l/m² 16,1 km/h (3 Bft) S-SW 202 ° 0 min 0 W/m² 5,7 °C 2,5 °C 19,3 km/h (3 Bft)
07.11.2022 05:31 22,1 °C 8,2 °C 56 % 84 % 1012,3 hPa 0,0 l/m² 14,5 km/h (3 Bft) S-SW 202 ° 0 min 0 W/m² 5,7 °C 3,2 °C 17,7 km/h (3 Bft)
07.11.2022 05:32 22,1 °C 8,2 °C 56 % 84 % 1012,3 hPa 0,0 l/m² 19,3 km/h (3 Bft) S-SW 202 ° 0 min 0 W/m² 5,7 °C 1,2 °C 22,5 km/h (4 Bft)
07.11.2022 05:33 22,1 °C 8,2 °C 56 % 84 % 1012,3 hPa 0,0 l/m² 17,7 km/h (3 Bft) S-SW 202 ° 0 min 0 W/m² 5,7 °C 1,8 °C 20,9 km/h (4 Bft)
07.11.2022 05:34 22,1 °C 8,2 °C 56 % 84 % 1012,3 hPa 0,0 l/m² 16,1 km/h (3 Bft) S-SW 202 ° 0 min 0 W/m² 5,7 °C 2,5 °C 20,9 km/h (4 Bft)
07.11.2022 05:35 22,1 °C 8,3 °C 56 % 84 % 1012,2 hPa 0,0 l/m² 17,7 km/h (3 Bft) S-SW 202 ° 0 min 0 W/m² 5,8 °C 1,9 °C 22,5 km/h (4 Bft)
07.11.2022 05:36 22,1 °C 8,3 °C 56 % 84 % 1012,3 hPa 0,0 l/m² 17,7 km/h (3 Bft) S-SW 202 ° 0 min 0 W/m² 5,8 °C 1,9 °C 25,7 km/h (4 Bft)
07.11.2022 05:37 22,1 °C 8,3 °C 56 % 84 % 1012,3 hPa 0,0 l/m² 16,1 km/h (3 Bft) S-SW 202 ° 0 min 0 W/m² 5,8 °C 2,6 °C 20,9 km/h (4 Bft)
07.11.2022 05:38 22,1 °C 8,3 °C 56 % 84 % 1012,3 hPa 0,0 l/m² 17,7 km/h (3 Bft) S-SW 202 ° 0 min 0 W/m² 5,8 °C 1,9 °C 22,5 km/h (4 Bft)
07.11.2022 05:39 22,1 °C 8,4 °C 56 % 84 % 1012,3 hPa 0,0 l/m² 14,5 km/h (3 Bft) S-SW 202 ° 0 min 0 W/m² 5,9 °C 3,4 °C 20,9 km/h (4 Bft)
07.11.2022 05:40 22,1 °C 8,4 °C 56 % 84 % 1012,3 hPa 0,0 l/m² 17,7 km/h (3 Bft) S-SW 202 ° 0 min 0 W/m² 5,9 °C 2,1 °C 24,1 km/h (4 Bft)
07.11.2022 05:41 22,1 °C 8,4 °C 56 % 84 % 1012,5 hPa 0,0 l/m² 14,5 km/h (3 Bft) S-SW 202 ° 0 min 0 W/m² 5,9 °C 3,4 °C 20,9 km/h (4 Bft)
07.11.2022 05:42 22,1 °C 8,4 °C 56 % 84 % 1012,4 hPa 0,0 l/m² 16,1 km/h (3 Bft) S-SW 202 ° 0 min 0 W/m² 5,9 °C 2,7 °C 19,3 km/h (3 Bft)
07.11.2022 05:43 22,1 °C 8,5 °C 56 % 84 % 1012,5 hPa 0,0 l/m² 14,5 km/h (3 Bft) S-SW 202 ° 0 min 0 W/m² 6,0 °C 3,5 °C 20,9 km/h (4 Bft)
07.11.2022 05:44 22,1 °C 8,5 °C 56 % 84 % 1012,5 hPa 0,0 l/m² 12,9 km/h (3 Bft) S-SW 202 ° 0 min 0 W/m² 6,0 °C 4,3 °C 16,1 km/h (3 Bft)
07.11.2022 05:45 22,1 °C 8,5 °C 56 % 84 % 1012,5 hPa 0,0 l/m² 12,9 km/h (3 Bft) S-SW 202 ° 0 min 0 W/m² 6,0 °C 4,3 °C 17,7 km/h (3 Bft)
07.11.2022 05:46 22,1 °C 8,4 °C 56 % 84 % 1012,5 hPa 0,0 l/m² 11,3 km/h (2 Bft) S-SW 202 ° 0 min 0 W/m² 5,9 °C 5,1 °C 16,1 km/h (3 Bft)
07.11.2022 05:47 22,1 °C 8,5 °C 56 % 84 % 1012,5 hPa 0,0 l/m² 11,3 km/h (2 Bft) S-SW 202 ° 0 min 0 W/m² 6,0 °C 5,2 °C 14,5 km/h (3 Bft)
07.11.2022 05:48 22,1 °C 8,4 °C 56 % 84 % 1012,4 hPa 0,0 l/m² 9,7 km/h (2 Bft) S-SW 202 ° 0 min 0 W/m² 5,9 °C 6,0 °C 11,3 km/h (2 Bft)
07.11.2022 05:49 22,1 °C 8,4 °C 56 % 84 % 1012,5 hPa 0,0 l/m² 8,0 km/h (2 Bft) S-SW 202 ° 0 min 0 W/m² 5,9 °C 7,2 °C 11,3 km/h (2 Bft)
07.11.2022 05:50 22,1 °C 8,4 °C 56 % 84 % 1012,5 hPa 0,0 l/m² 9,7 km/h (2 Bft) S-SW 202 ° 0 min 0 W/m² 5,9 °C 6,0 °C 12,9 km/h (3 Bft)
07.11.2022 05:51 22,1 °C 8,4 °C 56 % 84 % 1012,5 hPa 0,0 l/m² 11,3 km/h (2 Bft) S-SW 202 ° 0 min 0 W/m² 5,9 °C 5,1 °C 14,5 km/h (3 Bft)
07.11.2022 05:52 22,1 °C 8,4 °C 56 % 84 % 1012,5 hPa 0,0 l/m² 9,7 km/h (2 Bft) S-SW 202 ° 0 min 0 W/m² 5,9 °C 6,0 °C 12,9 km/h (3 Bft)
07.11.2022 05:53 22,1 °C 8,4 °C 56 % 84 % 1012,5 hPa 0,0 l/m² 8,0 km/h (2 Bft) S-SW 202 ° 0 min 0 W/m² 5,9 °C 7,2 °C 9,7 km/h (2 Bft)
07.11.2022 05:54 22,1 °C 8,4 °C 56 % 84 % 1012,5 hPa 0,0 l/m² 9,7 km/h (2 Bft) S-SW 202 ° 0 min 0 W/m² 5,9 °C 6,0 °C 12,9 km/h (3 Bft)
07.11.2022 05:55 22,1 °C 8,4 °C 56 % 84 % 1012,5 hPa 0,0 l/m² 8,0 km/h (2 Bft) S-SW 202 ° 0 min 0 W/m² 5,9 °C 7,2 °C 11,3 km/h (2 Bft)
07.11.2022 05:56 22,1 °C 8,4 °C 56 % 84 % 1012,5 hPa 0,0 l/m² 11,3 km/h (2 Bft) S-SW 202 ° 0 min 0 W/m² 5,9 °C 5,1 °C 17,7 km/h (3 Bft)
07.11.2022 05:57 22,1 °C 8,4 °C 56 % 84 % 1012,6 hPa 0,0 l/m² 8,0 km/h (2 Bft) S-SW 202 ° 0 min 0 W/m² 5,9 °C 7,2 °C 11,3 km/h (2 Bft)
07.11.2022 05:58 22,1 °C 8,5 °C 56 % 84 % 1012,6 hPa 0,0 l/m² 9,7 km/h (2 Bft) S-SW 202 ° 0 min 0 W/m² 6,0 °C 6,1 °C 12,9 km/h (3 Bft)
07.11.2022 05:59 22,1 °C 8,5 °C 56 % 84 % 1012,6 hPa 0,0 l/m² 8,0 km/h (2 Bft) S-SW 202 ° 0 min 0 W/m² 6,0 °C 7,3 °C 12,9 km/h (3 Bft)
07.11.2022 06:00 22,1 °C 8,5 °C 56 % 84 % 1012,6 hPa 0,0 l/m² 8,0 km/h (2 Bft) S-SW 202 ° 0 min 0 W/m² 6,0 °C 7,3 °C 9,7 km/h (2 Bft)
07.11.2022 06:01 22,1 °C 8,5 °C 56 % 84 % 1012,6 hPa 0,0 l/m² 6,4 km/h (2 Bft) S-SW 202 ° 0 min 0 W/m² 6,0 °C 8,5 °C 9,7 km/h (2 Bft)
07.11.2022 06:02 22,1 °C 8,6 °C 56 % 84 % 1012,7 hPa 0,0 l/m² 6,4 km/h (2 Bft) S-SW 202 ° 0 min 0 W/m² 6,1 °C 8,6 °C 8,0 km/h (2 Bft)
07.11.2022 06:03 22,1 °C 8,6 °C 56 % 84 % 1012,7 hPa 0,0 l/m² 8,0 km/h (2 Bft) S 180 ° 0 min 0 W/m² 6,1 °C 7,4 °C 11,3 km/h (2 Bft)
07.11.2022 06:04 22,1 °C 8,5 °C 56 % 84 % 1012,6 hPa 0,0 l/m² 9,7 km/h (2 Bft) S-SW 202 ° 0 min 0 W/m² 6,0 °C 6,1 °C 12,9 km/h (3 Bft)
07.11.2022 06:05 22,1 °C 8,5 °C 56 % 84 % 1012,7 hPa 0,0 l/m² 6,4 km/h (2 Bft) S-SW 202 ° 0 min 0 W/m² 6,0 °C 8,5 °C 9,7 km/h (2 Bft)
07.11.2022 06:06 22,1 °C 8,6 °C 56 % 84 % 1012,7 hPa 0,0 l/m² 4,8 km/h (1 Bft) S-SW 202 ° 0 min 0 W/m² 6,1 °C 8,6 °C 6,4 km/h (2 Bft)
07.11.2022 06:07 22,1 °C 8,5 °C 56 % 84 % 1012,7 hPa 0,0 l/m² 4,8 km/h (1 Bft) S-SW 202 ° 0 min 0 W/m² 6,0 °C 8,5 °C 4,8 km/h (1 Bft)
07.11.2022 06:08 22,1 °C 8,4 °C 56 % 84 % 1012,7 hPa 0,0 l/m² 6,4 km/h (2 Bft) S-SW 202 ° 0 min 0 W/m² 5,9 °C 8,4 °C 6,4 km/h (2 Bft)
07.11.2022 06:09 22,2 °C 8,4 °C 56 % 84 % 1012,7 hPa 0,0 l/m² 4,8 km/h (1 Bft) S-SW 202 ° 0 min 0 W/m² 5,9 °C 8,4 °C 8,0 km/h (2 Bft)
07.11.2022 06:10 22,1 °C 8,3 °C 56 % 84 % 1012,6 hPa 0,0 l/m² 6,4 km/h (2 Bft) S-SW 202 ° 0 min 0 W/m² 5,8 °C 8,3 °C 9,7 km/h (2 Bft)
07.11.2022 06:11 22,1 °C 8,3 °C 56 % 84 % 1012,7 hPa 0,0 l/m² 4,8 km/h (1 Bft) S-SW 202 ° 0 min 0 W/m² 5,8 °C 8,3 °C 8,0 km/h (2 Bft)
07.11.2022 06:12 22,1 °C 8,3 °C 56 % 84 % 1012,7 hPa 0,0 l/m² 6,4 km/h (2 Bft) S-SW 202 ° 0 min 0 W/m² 5,8 °C 8,3 °C 8,0 km/h (2 Bft)
07.11.2022 06:13 22,2 °C 8,2 °C 56 % 84 % 1012,7 hPa 0,0 l/m² 4,8 km/h (1 Bft) S-SW 202 ° 0 min 0 W/m² 5,7 °C 8,2 °C 8,0 km/h (2 Bft)
07.11.2022 06:14 22,2 °C 8,2 °C 56 % 84 % 1012,6 hPa 0,0 l/m² 6,4 km/h (2 Bft) S 180 ° 0 min 0 W/m² 5,7 °C 8,2 °C 8,0 km/h (2 Bft)
07.11.2022 06:15 22,1 °C 8,1 °C 56 % 84 % 1012,7 hPa 0,0 l/m² 4,8 km/h (1 Bft) S 180 ° 0 min 0 W/m² 5,6 °C 8,1 °C 6,4 km/h (2 Bft)
07.11.2022 06:16 22,2 °C 8,1 °C 56 % 84 % 1012,7 hPa 0,0 l/m² 3,2 km/h (1 Bft) S 180 ° 0 min 0 W/m² 5,6 °C 8,1 °C 4,8 km/h (1 Bft)
07.11.2022 06:17 22,1 °C 8,0 °C 56 % 84 % 1012,7 hPa 0,0 l/m² 4,8 km/h (1 Bft) S 180 ° 0 min 0 W/m² 5,5 °C 8,0 °C 8,0 km/h (2 Bft)
07.11.2022 06:18 22,1 °C 8,0 °C 56 % 84 % 1012,7 hPa 0,0 l/m² 3,2 km/h (1 Bft) S-SW 202 ° 0 min 0 W/m² 5,5 °C 8,0 °C 6,4 km/h (2 Bft)
07.11.2022 06:19 22,2 °C 7,9 °C 56 % 85 % 1012,7 hPa 0,0 l/m² 4,8 km/h (1 Bft) S-SW 202 ° 0 min 0 W/m² 5,5 °C 7,9 °C 4,8 km/h (1 Bft)
07.11.2022 06:20 22,2 °C 7,9 °C 56 % 85 % 1012,7 hPa 0,0 l/m² 0,0 km/h (0 Bft) S-SW 202 ° 0 min 0 W/m² 5,5 °C 7,9 °C 3,2 km/h (1 Bft)
07.11.2022 06:21 22,2 °C 7,9 °C 56 % 85 % 1012,7 hPa 0,0 l/m² 3,2 km/h (1 Bft) S-SW 202 ° 0 min 0 W/m² 5,5 °C 7,9 °C 4,8 km/h (1 Bft)
07.11.2022 06:22 22,2 °C 7,9 °C 56 % 85 % 1012,8 hPa 0,0 l/m² 0,0 km/h (0 Bft) S-SW 202 ° 0 min 0 W/m² 5,5 °C 7,9 °C 1,6 km/h (1 Bft)
07.11.2022 06:23 22,2 °C 7,9 °C 56 % 85 % 1012,7 hPa 0,0 l/m² 1,6 km/h (1 Bft) S-SW 202 ° 0 min 0 W/m² 5,5 °C 7,9 °C 3,2 km/h (1 Bft)
07.11.2022 06:24 22,2 °C 7,8 °C 56 % 85 % 1012,8 hPa 0,0 l/m² 1,6 km/h (1 Bft) S-SW 202 ° 0 min 0 W/m² 5,4 °C 7,8 °C 4,8 km/h (1 Bft)
07.11.2022 06:25 22,2 °C 7,9 °C 56 % 85 % 1012,8 hPa 0,0 l/m² 0,0 km/h (0 Bft) S-SW 202 ° 0 min 0 W/m² 5,5 °C 7,9 °C 3,2 km/h (1 Bft)
07.11.2022 06:26 22,1 °C 7,9 °C 56 % 85 % 1012,8 hPa 0,0 l/m² 0,0 km/h (0 Bft) S-SW 202 ° 0 min 0 W/m² 5,5 °C 7,9 °C 1,6 km/h (1 Bft)
07.11.2022 06:27 22,1 °C 7,8 °C 56 % 85 % 1012,8 hPa 0,0 l/m² 1,6 km/h (1 Bft) S-SW 202 ° 0 min 0 W/m² 5,4 °C 7,8 °C 1,6 km/h (1 Bft)
07.11.2022 06:28 22,2 °C 7,8 °C 56 % 85 % 1012,9 hPa 0,0 l/m² 0,0 km/h (0 Bft) S-SW 202 ° 0 min 0 W/m² 5,4 °C 7,8 °C 3,2 km/h (1 Bft)
07.11.2022 06:29 22,2 °C 7,7 °C 56 % 85 % 1012,9 hPa 0,0 l/m² 1,6 km/h (1 Bft) S-SW 202 ° 0 min 0 W/m² 5,3 °C 7,7 °C 3,2 km/h (1 Bft)
07.11.2022 06:30 22,1 °C 7,7 °C 56 % 85 % 1012,9 hPa 0,0 l/m² 3,2 km/h (1 Bft) S-SW 202 ° 0 min 0 W/m² 5,3 °C 7,7 °C 4,8 km/h (1 Bft)
07.11.2022 06:31 22,2 °C 7,6 °C 56 % 86 % 1012,8 hPa 0,0 l/m² 3,2 km/h (1 Bft) S-SW 202 ° 0 min 0 W/m² 5,4 °C 7,6 °C 4,8 km/h (1 Bft)
07.11.2022 06:32 22,1 °C 7,6 °C 56 % 85 % 1012,9 hPa 0,0 l/m² 4,8 km/h (1 Bft) O-SO 112 ° 0 min 0 W/m² 5,2 °C 7,6 °C 6,4 km/h (2 Bft)
07.11.2022 06:33 22,2 °C 7,6 °C 56 % 86 % 1012,8 hPa 0,0 l/m² 4,8 km/h (1 Bft) O-SO 112 ° 0 min 0 W/m² 5,4 °C 7,6 °C 4,8 km/h (1 Bft)
07.11.2022 06:34 22,2 °C 7,6 °C 56 % 86 % 1012,8 hPa 0,0 l/m² 4,8 km/h (1 Bft) O-SO 112 ° 0 min 0 W/m² 5,4 °C 7,6 °C 6,4 km/h (2 Bft)
07.11.2022 06:35 22,2 °C 7,6 °C 56 % 86 % 1012,8 hPa 0,0 l/m² 4,8 km/h (1 Bft) O-SO 112 ° 0 min 0 W/m² 5,4 °C 7,6 °C 6,4 km/h (2 Bft)
07.11.2022 06:36 22,2 °C 7,6 °C 56 % 86 % 1012,9 hPa 0,0 l/m² 4,8 km/h (1 Bft) O-SO 112 ° 0 min 0 W/m² 5,4 °C 7,6 °C 6,4 km/h (2 Bft)
07.11.2022 06:37 22,2 °C 7,5 °C 56 % 86 % 1013,0 hPa 0,0 l/m² 4,8 km/h (1 Bft) O 90 ° 0 min 0 W/m² 5,3 °C 7,5 °C 9,7 km/h (2 Bft)
07.11.2022 06:38 22,2 °C 7,5 °C 56 % 86 % 1012,9 hPa 0,0 l/m² 4,8 km/h (1 Bft) O 90 ° 0 min 0 W/m² 5,3 °C 7,5 °C 6,4 km/h (2 Bft)
07.11.2022 06:39 22,2 °C 7,4 °C 56 % 86 % 1012,9 hPa 0,0 l/m² 4,8 km/h (1 Bft) O 90 ° 0 min 0 W/m² 5,2 °C 7,4 °C 4,8 km/h (1 Bft)
07.11.2022 06:40 22,2 °C 7,4 °C 56 % 86 % 1013,0 hPa 0,0 l/m² 3,2 km/h (1 Bft) O 90 ° 0 min 0 W/m² 5,2 °C 7,4 °C 4,8 km/h (1 Bft)
07.11.2022 06:41 22,2 °C 7,4 °C 56 % 86 % 1012,9 hPa 0,0 l/m² 4,8 km/h (1 Bft) O 90 ° 0 min 0 W/m² 5,2 °C 7,4 °C 6,4 km/h (2 Bft)
07.11.2022 06:42 22,2 °C 7,4 °C 56 % 86 % 1013,0 hPa 0,0 l/m² 4,8 km/h (1 Bft) O 90 ° 0 min 0 W/m² 5,2 °C 7,4 °C 6,4 km/h (2 Bft)
07.11.2022 06:43 22,2 °C 7,4 °C 56 % 86 % 1013,0 hPa 0,0 l/m² 4,8 km/h (1 Bft) O 90 ° 0 min 0 W/m² 5,2 °C 7,4 °C 4,8 km/h (1 Bft)
07.11.2022 06:44 22,2 °C 7,4 °C 56 % 86 % 1013,0 hPa 0,0 l/m² 4,8 km/h (1 Bft) O 90 ° 0 min 0 W/m² 5,2 °C 7,4 °C 4,8 km/h (1 Bft)
07.11.2022 06:45 22,2 °C 7,4 °C 56 % 86 % 1013,0 hPa 0,0 l/m² 3,2 km/h (1 Bft) O 90 ° 0 min 0 W/m² 5,2 °C 7,4 °C 4,8 km/h (1 Bft)
07.11.2022 06:46 22,2 °C 7,4 °C 56 % 87 % 1013,1 hPa 0,0 l/m² 3,2 km/h (1 Bft) O 90 ° 0 min 0 W/m² 5,4 °C 7,4 °C 4,8 km/h (1 Bft)
07.11.2022 06:47 22,2 °C 7,4 °C 56 % 87 % 1013,1 hPa 0,0 l/m² 3,2 km/h (1 Bft) O 90 ° 0 min 0 W/m² 5,4 °C 7,4 °C 4,8 km/h (1 Bft)
07.11.2022 06:48 22,2 °C 7,4 °C 56 % 87 % 1013,1 hPa 0,0 l/m² 3,2 km/h (1 Bft) O 90 ° 0 min 0 W/m² 5,4 °C 7,4 °C 4,8 km/h (1 Bft)
07.11.2022 06:49 22,2 °C 7,4 °C 56 % 87 % 1013,0 hPa 0,0 l/m² 3,2 km/h (1 Bft) O 90 ° 0 min 0 W/m² 5,4 °C 7,4 °C 4,8 km/h (1 Bft)
07.11.2022 06:50 22,2 °C 7,4 °C 56 % 87 % 1013,1 hPa 0,0 l/m² 3,2 km/h (1 Bft) O 90 ° 0 min 0 W/m² 5,4 °C 7,4 °C 4,8 km/h (1 Bft)
07.11.2022 06:51 22,2 °C 7,4 °C 56 % 87 % 1013,1 hPa 0,0 l/m² 3,2 km/h (1 Bft) O 90 ° 0 min 0 W/m² 5,4 °C 7,4 °C 4,8 km/h (1 Bft)
07.11.2022 06:52 22,2 °C 7,3 °C 56 % 87 % 1013,1 hPa 0,0 l/m² 1,6 km/h (1 Bft) O 90 ° 0 min 0 W/m² 5,3 °C 7,3 °C 3,2 km/h (1 Bft)
07.11.2022 06:53 22,2 °C 7,4 °C 56 % 87 % 1013,1 hPa 0,0 l/m² 1,6 km/h (1 Bft) O 90 ° 0 min 0 W/m² 5,4 °C 7,4 °C 3,2 km/h (1 Bft)
07.11.2022 06:54 22,2 °C 7,4 °C 56 % 87 % 1013,1 hPa 0,0 l/m² 3,2 km/h (1 Bft) O 90 ° 0 min 0 W/m² 5,4 °C 7,4 °C 4,8 km/h (1 Bft)
07.11.2022 06:55 22,2 °C 7,3 °C 56 % 87 % 1013,1 hPa 0,0 l/m² 4,8 km/h (1 Bft) O 90 ° 0 min 0 W/m² 5,3 °C 7,3 °C 6,4 km/h (2 Bft)
07.11.2022 06:56 22,2 °C 7,3 °C 56 % 87 % 1013,1 hPa 0,0 l/m² 4,8 km/h (1 Bft) O 90 ° 0 min 0 W/m² 5,3 °C 7,3 °C 6,4 km/h (2 Bft)
07.11.2022 06:57 22,2 °C 7,4 °C 56 % 87 % 1013,1 hPa 0,0 l/m² 4,8 km/h (1 Bft) O-SO 112 ° 0 min 0 W/m² 5,4 °C 7,4 °C 4,8 km/h (1 Bft)
07.11.2022 06:58 22,2 °C 7,3 °C 56 % 87 % 1013,1 hPa 0,0 l/m² 4,8 km/h (1 Bft) O-SO 112 ° 0 min 0 W/m² 5,3 °C 7,3 °C 6,4 km/h (2 Bft)
07.11.2022 06:59 22,2 °C 7,3 °C 56 % 87 % 1013,1 hPa 0,0 l/m² 4,8 km/h (1 Bft) SO 135 ° 0 min 0 W/m² 5,3 °C 7,3 °C 6,4 km/h (2 Bft)
07.11.2022 07:00 22,2 °C 7,3 °C 56 % 87 % 1013,1 hPa 0,0 l/m² 4,8 km/h (1 Bft) SO 135 ° 0 min 0 W/m² 5,3 °C 7,3 °C 6,4 km/h (2 Bft)
07.11.2022 07:01 22,2 °C 7,3 °C 56 % 87 % 1013,2 hPa 0,0 l/m² 4,8 km/h (1 Bft) SO 135 ° 0 min 0 W/m² 5,3 °C 7,3 °C 8,0 km/h (2 Bft)
07.11.2022 07:02 22,2 °C 7,3 °C 56 % 87 % 1013,2 hPa 0,0 l/m² 8,0 km/h (2 Bft) S 180 ° 0 min 0 W/m² 5,3 °C 6,0 °C 11,3 km/h (2 Bft)
07.11.2022 07:03 22,2 °C 7,3 °C 56 % 87 % 1013,1 hPa 0,0 l/m² 6,4 km/h (2 Bft) S 180 ° 0 min 0 W/m² 5,3 °C 7,3 °C 9,7 km/h (2 Bft)
07.11.2022 07:04 22,2 °C 7,3 °C 56 % 87 % 1013,2 hPa 0,0 l/m² 8,0 km/h (2 Bft) S 180 ° 0 min 0 W/m² 5,3 °C 6,0 °C 9,7 km/h (2 Bft)
07.11.2022 07:05 22,2 °C 7,3 °C 56 % 88 % 1013,2 hPa 0,0 l/m² 8,0 km/h (2 Bft) S 180 ° 0 min 0 W/m² 5,4 °C 6,0 °C 11,3 km/h (2 Bft)
07.11.2022 07:06 22,2 °C 7,3 °C 56 % 88 % 1013,1 hPa 0,0 l/m² 8,0 km/h (2 Bft) S 180 ° 0 min 0 W/m² 5,4 °C 6,0 °C 8,0 km/h (2 Bft)
07.11.2022 07:07 22,2 °C 7,3 °C 56 % 88 % 1013,2 hPa 0,0 l/m² 8,0 km/h (2 Bft) S 180 ° 0 min 0 W/m² 5,4 °C 6,0 °C 11,3 km/h (2 Bft)
07.11.2022 07:08 22,2 °C 7,4 °C 56 % 88 % 1013,1 hPa 0,0 l/m² 8,0 km/h (2 Bft) S 180 ° 0 min 0 W/m² 5,5 °C 6,1 °C 9,7 km/h (2 Bft)
07.11.2022 07:09 22,2 °C 7,4 °C 56 % 88 % 1013,2 hPa 0,0 l/m² 6,4 km/h (2 Bft) S 180 ° 0 min 0 W/m² 5,5 °C 7,4 °C 8,0 km/h (2 Bft)
07.11.2022 07:10 22,2 °C 7,4 °C 56 % 88 % 1013,2 hPa 0,0 l/m² 6,4 km/h (2 Bft) S 180 ° 0 min 0 W/m² 5,5 °C 7,4 °C 9,7 km/h (2 Bft)
07.11.2022 07:11 22,2 °C 7,4 °C 56 % 88 % 1013,1 hPa 0,0 l/m² 6,4 km/h (2 Bft) S 180 ° 0 min 0 W/m² 5,5 °C 7,4 °C 9,7 km/h (2 Bft)
07.11.2022 07:12 22,2 °C 7,4 °C 56 % 88 % 1013,2 hPa 0,0 l/m² 9,7 km/h (2 Bft) S-SO 157 ° 0 min 5 W/m² 5,5 °C 4,9 °C 12,9 km/h (3 Bft)
07.11.2022 07:13 22,2 °C 7,4 °C 56 % 88 % 1013,2 hPa 0,0 l/m² 8,0 km/h (2 Bft) S 180 ° 0 min 7 W/m² 5,5 °C 6,1 °C 11,3 km/h (2 Bft)
07.11.2022 07:14 22,2 °C 7,5 °C 56 % 88 % 1013,1 hPa 0,0 l/m² 8,0 km/h (2 Bft) S 180 ° 0 min 7 W/m² 5,6 °C 6,2 °C 9,7 km/h (2 Bft)
07.11.2022 07:15 22,2 °C 7,5 °C 56 % 88 % 1013,2 hPa 0,0 l/m² 9,7 km/h (2 Bft) S 180 ° 0 min 7 W/m² 5,6 °C 5,0 °C 12,9 km/h (3 Bft)
07.11.2022 07:16 22,2 °C 7,5 °C 56 % 88 % 1013,2 hPa 0,0 l/m² 9,7 km/h (2 Bft) S 180 ° 0 min 7 W/m² 5,6 °C 5,0 °C 12,9 km/h (3 Bft)
07.11.2022 07:17 22,2 °C 7,6 °C 56 % 88 % 1013,2 hPa 0,0 l/m² 11,3 km/h (2 Bft) S 180 ° 0 min 7 W/m² 5,7 °C 4,1 °C 14,5 km/h (3 Bft)
07.11.2022 07:18 22,1 °C 7,6 °C 56 % 88 % 1013,2 hPa 0,0 l/m² 9,7 km/h (2 Bft) S 180 ° 0 min 7 W/m² 5,7 °C 5,1 °C 11,3 km/h (2 Bft)
07.11.2022 07:19 22,2 °C 7,6 °C 56 % 88 % 1013,1 hPa 0,0 l/m² 9,7 km/h (2 Bft) S 180 ° 0 min 9 W/m² 5,7 °C 5,1 °C 12,9 km/h (3 Bft)
07.11.2022 07:20 22,2 °C 7,7 °C 56 % 88 % 1013,2 hPa 0,0 l/m² 12,9 km/h (3 Bft) S 180 ° 0 min 9 W/m² 5,8 °C 3,4 °C 17,7 km/h (3 Bft)
07.11.2022 07:21 22,1 °C 7,7 °C 56 % 88 % 1013,3 hPa 0,0 l/m² 9,7 km/h (2 Bft) S 180 ° 0 min 9 W/m² 5,8 °C 5,2 °C 12,9 km/h (3 Bft)
07.11.2022 07:22 22,1 °C 7,7 °C 56 % 88 % 1013,2 hPa 0,0 l/m² 9,7 km/h (2 Bft) S 180 ° 0 min 9 W/m² 5,8 °C 5,2 °C 11,3 km/h (2 Bft)
07.11.2022 07:23 22,1 °C 7,7 °C 56 % 88 % 1013,2 hPa 0,0 l/m² 9,7 km/h (2 Bft) S 180 ° 0 min 9 W/m² 5,8 °C 5,2 °C 14,5 km/h (3 Bft)
07.11.2022 07:24 22,2 °C 7,7 °C 56 % 88 % 1013,3 hPa 0,0 l/m² 8,0 km/h (2 Bft) S 180 ° 0 min 11 W/m² 5,8 °C 6,4 °C 12,9 km/h (3 Bft)
07.11.2022 07:25 22,2 °C 7,8 °C 56 % 88 % 1013,3 hPa 0,0 l/m² 8,0 km/h (2 Bft) S 180 ° 0 min 11 W/m² 5,9 °C 6,5 °C 9,7 km/h (2 Bft)
07.11.2022 07:26 22,2 °C 7,8 °C 56 % 88 % 1013,2 hPa 0,0 l/m² 8,0 km/h (2 Bft) S 180 ° 0 min 11 W/m² 5,9 °C 6,5 °C 11,3 km/h (2 Bft)
07.11.2022 07:27 22,2 °C 7,8 °C 56 % 88 % 1013,3 hPa 0,0 l/m² 8,0 km/h (2 Bft) S 180 ° 0 min 12 W/m² 5,9 °C 6,5 °C 11,3 km/h (2 Bft)
07.11.2022 07:28 22,2 °C 7,8 °C 56 % 87 % 1013,3 hPa 0,0 l/m² 9,7 km/h (2 Bft) S 180 ° 0 min 12 W/m² 5,8 °C 5,4 °C 11,3 km/h (2 Bft)
07.11.2022 07:29 22,2 °C 7,7 °C 56 % 87 % 1013,4 hPa 0,0 l/m² 8,0 km/h (2 Bft) S 180 ° 0 min 14 W/m² 5,7 °C 6,4 °C 11,3 km/h (2 Bft)
07.11.2022 07:30 22,2 °C 7,7 °C 56 % 87 % 1013,4 hPa 0,0 l/m² 9,7 km/h (2 Bft) S 180 ° 0 min 16 W/m² 5,7 °C 5,2 °C 12,9 km/h (3 Bft)
07.11.2022 07:31 22,2 °C 7,7 °C 56 % 87 % 1013,3 hPa 0,0 l/m² 8,0 km/h (2 Bft) S 180 ° 0 min 16 W/m² 5,7 °C 6,4 °C 11,3 km/h (2 Bft)
07.11.2022 07:32 22,1 °C 7,7 °C 56 % 87 % 1013,3 hPa 0,0 l/m² 9,7 km/h (2 Bft) S 180 ° 0 min 18 W/m² 5,7 °C 5,2 °C 11,3 km/h (2 Bft)
07.11.2022 07:33 22,2 °C 7,8 °C 56 % 88 % 1013,4 hPa 0,0 l/m² 8,0 km/h (2 Bft) S 180 ° 0 min 18 W/m² 5,9 °C 6,5 °C 11,3 km/h (2 Bft)
07.11.2022 07:34 22,2 °C 7,8 °C 56 % 88 % 1013,4 hPa 0,0 l/m² 9,7 km/h (2 Bft) S 180 ° 0 min 18 W/m² 5,9 °C 5,4 °C 11,3 km/h (2 Bft)
07.11.2022 07:35 22,2 °C 7,8 °C 56 % 88 % 1013,3 hPa 0,0 l/m² 9,7 km/h (2 Bft) S 180 ° 0 min 16 W/m² 5,9 °C 5,4 °C 11,3 km/h (2 Bft)
07.11.2022 07:36 22,2 °C 7,8 °C 57 % 88 % 1013,4 hPa 0,0 l/m² 9,7 km/h (2 Bft) S 180 ° 0 min 18 W/m² 5,9 °C 5,4 °C 11,3 km/h (2 Bft)
07.11.2022 07:37 22,2 °C 7,8 °C 57 % 88 % 1013,3 hPa 0,0 l/m² 9,7 km/h (2 Bft) S 180 ° 0 min 18 W/m² 5,9 °C 5,4 °C 12,9 km/h (3 Bft)
07.11.2022 07:38 22,2 °C 7,8 °C 57 % 88 % 1013,3 hPa 0,0 l/m² 8,0 km/h (2 Bft) S 180 ° 0 min 19 W/m² 5,9 °C 6,5 °C 11,3 km/h (2 Bft)
07.11.2022 07:39 22,2 °C 7,8 °C 57 % 88 % 1013,3 hPa 0,0 l/m² 9,7 km/h (2 Bft) S 180 ° 0 min 19 W/m² 5,9 °C 5,4 °C 11,3 km/h (2 Bft)
07.11.2022 07:40 22,2 °C 7,8 °C 57 % 88 % 1013,2 hPa 0,0 l/m² 11,3 km/h (2 Bft) S 180 ° 0 min 19 W/m² 5,9 °C 4,4 °C 14,5 km/h (3 Bft)
07.11.2022 07:41 22,2 °C 7,8 °C 57 % 88 % 1013,3 hPa 0,0 l/m² 9,7 km/h (2 Bft) S 180 ° 0 min 21 W/m² 5,9 °C 5,4 °C 11,3 km/h (2 Bft)
07.11.2022 07:42 22,2 °C 7,9 °C 57 % 88 % 1013,3 hPa 0,0 l/m² 12,9 km/h (3 Bft) S-SW 202 ° 0 min 23 W/m² 6,0 °C 3,6 °C 17,7 km/h (3 Bft)
07.11.2022 07:43 22,2 °C 8,0 °C 57 % 88 % 1013,3 hPa 0,0 l/m² 9,7 km/h (2 Bft) S-SW 202 ° 0 min 23 W/m² 6,1 °C 5,6 °C 12,9 km/h (3 Bft)
07.11.2022 07:44 22,2 °C 8,1 °C 57 % 88 % 1013,3 hPa 0,0 l/m² 9,7 km/h (2 Bft) S-SW 202 ° 0 min 23 W/m² 6,2 °C 5,7 °C 11,3 km/h (2 Bft)
07.11.2022 07:45 22,2 °C 8,1 °C 57 % 88 % 1013,3 hPa 0,0 l/m² 9,7 km/h (2 Bft) S-SW 202 ° 0 min 25 W/m² 6,2 °C 5,7 °C 12,9 km/h (3 Bft)
07.11.2022 07:46 22,2 °C 8,2 °C 57 % 88 % 1013,4 hPa 0,0 l/m² 11,3 km/h (2 Bft) S-SW 202 ° 0 min 26 W/m² 6,3 °C 4,8 °C 14,5 km/h (3 Bft)
07.11.2022 07:47 22,2 °C 8,3 °C 57 % 88 % 1013,3 hPa 0,0 l/m² 9,7 km/h (2 Bft) S-SW 202 ° 0 min 26 W/m² 6,4 °C 5,9 °C 12,9 km/h (3 Bft)
07.11.2022 07:48 22,2 °C 8,4 °C 57 % 87 % 1013,4 hPa 0,0 l/m² 8,0 km/h (2 Bft) S-SW 202 ° 0 min 26 W/m² 6,4 °C 7,2 °C 9,7 km/h (2 Bft)
07.11.2022 07:49 22,2 °C 8,4 °C 57 % 87 % 1013,4 hPa 0,0 l/m² 6,4 km/h (2 Bft) S-SW 202 ° 0 min 28 W/m² 6,4 °C 8,4 °C 8,0 km/h (2 Bft)
07.11.2022 07:50 22,2 °C 8,4 °C 56 % 87 % 1013,3 hPa 0,0 l/m² 8,0 km/h (2 Bft) S-SW 202 ° 0 min 28 W/m² 6,4 °C 7,2 °C 11,3 km/h (2 Bft)
07.11.2022 07:51 22,2 °C 8,5 °C 56 % 87 % 1013,4 hPa 0,0 l/m² 8,0 km/h (2 Bft) S-SW 202 ° 0 min 28 W/m² 6,5 °C 7,3 °C 14,5 km/h (3 Bft)
07.11.2022 07:52 22,2 °C 8,6 °C 56 % 87 % 1013,4 hPa 0,0 l/m² 8,0 km/h (2 Bft) S-SW 202 ° 0 min 28 W/m² 6,6 °C 7,4 °C 11,3 km/h (2 Bft)
07.11.2022 07:53 22,2 °C 8,6 °C 56 % 87 % 1013,4 hPa 0,0 l/m² 8,0 km/h (2 Bft) SW 225 ° 0 min 28 W/m² 6,6 °C 7,4 °C 9,7 km/h (2 Bft)
07.11.2022 07:54 22,2 °C 8,6 °C 56 % 87 % 1013,4 hPa 0,0 l/m² 6,4 km/h (2 Bft) S-SW 202 ° 0 min 30 W/m² 6,6 °C 8,6 °C 8,0 km/h (2 Bft)
07.11.2022 07:55 22,2 °C 8,7 °C 56 % 86 % 1013,3 hPa 0,0 l/m² 6,4 km/h (2 Bft) S-SW 202 ° 0 min 30 W/m² 6,5 °C 8,7 °C 11,3 km/h (2 Bft)
07.11.2022 07:56 22,2 °C 8,7 °C 56 % 86 % 1013,4 hPa 0,0 l/m² 9,7 km/h (2 Bft) S-SW 202 ° 0 min 30 W/m² 6,5 °C 6,3 °C 12,9 km/h (3 Bft)
07.11.2022 07:57 22,2 °C 8,7 °C 56 % 86 % 1013,4 hPa 0,0 l/m² 6,4 km/h (2 Bft) S-SW 202 ° 0 min 30 W/m² 6,5 °C 8,7 °C 11,3 km/h (2 Bft)
07.11.2022 07:58 22,2 °C 8,7 °C 56 % 86 % 1013,4 hPa 0,0 l/m² 8,0 km/h (2 Bft) S-SW 202 ° 0 min 30 W/m² 6,5 °C 7,5 °C 9,7 km/h (2 Bft)
07.11.2022 07:59 22,2 °C 8,7 °C 56 % 86 % 1013,4 hPa 0,0 l/m² 6,4 km/h (2 Bft) S-SW 202 ° 0 min 33 W/m² 6,5 °C 8,7 °C 9,7 km/h (2 Bft)
07.11.2022 08:00 22,2 °C 8,7 °C 56 % 86 % 1013,4 hPa 0,0 l/m² 4,8 km/h (1 Bft) S-SW 202 ° 0 min 33 W/m² 6,5 °C 8,7 °C 6,4 km/h (2 Bft)
07.11.2022 08:01 22,2 °C 8,8 °C 56 % 86 % 1013,3 hPa 0,0 l/m² 3,2 km/h (1 Bft) S-SW 202 ° 0 min 35 W/m² 6,6 °C 8,8 °C 4,8 km/h (1 Bft)
07.11.2022 08:02 22,2 °C 8,7 °C 56 % 86 % 1013,4 hPa 0,0 l/m² 3,2 km/h (1 Bft) S-SW 202 ° 0 min 37 W/m² 6,5 °C 8,7 °C 6,4 km/h (2 Bft)
07.11.2022 08:03 22,2 °C 8,7 °C 56 % 86 % 1013,5 hPa 0,0 l/m² 4,8 km/h (1 Bft) S-SW 202 ° 0 min 39 W/m² 6,5 °C 8,7 °C 6,4 km/h (2 Bft)
07.11.2022 08:04 22,2 °C 8,7 °C 56 % 86 % 1013,5 hPa 0,0 l/m² 8,0 km/h (2 Bft) S-SW 202 ° 0 min 40 W/m² 6,5 °C 7,5 °C 9,7 km/h (2 Bft)
07.11.2022 08:05 22,2 °C 8,7 °C 56 % 86 % 1013,5 hPa 0,0 l/m² 6,4 km/h (2 Bft) S 180 ° 0 min 44 W/m² 6,5 °C 8,7 °C 9,7 km/h (2 Bft)
07.11.2022 08:06 22,2 °C 8,7 °C 56 % 85 % 1013,5 hPa 0,0 l/m² 8,0 km/h (2 Bft) S 180 ° 0 min 47 W/m² 6,3 °C 7,5 °C 12,9 km/h (3 Bft)
07.11.2022 08:07 22,2 °C 8,7 °C 56 % 86 % 1013,5 hPa 0,0 l/m² 9,7 km/h (2 Bft) S 180 ° 0 min 49 W/m² 6,5 °C 6,3 °C 12,9 km/h (3 Bft)
07.11.2022 08:08 22,2 °C 8,8 °C 56 % 86 % 1013,5 hPa 0,0 l/m² 8,0 km/h (2 Bft) S 180 ° 1 min 60 W/m² 6,6 °C 7,6 °C 11,3 km/h (2 Bft)
07.11.2022 08:09 22,2 °C 8,8 °C 56 % 86 % 1013,6 hPa 0,0 l/m² 6,4 km/h (2 Bft) S 180 ° 1 min 56 W/m² 6,6 °C 8,8 °C 9,7 km/h (2 Bft)
07.11.2022 08:10 22,2 °C 8,8 °C 56 % 86 % 1013,6 hPa 0,0 l/m² 8,0 km/h (2 Bft) S-SW 202 ° 1 min 54 W/m² 6,6 °C 7,6 °C 11,3 km/h (2 Bft)
07.11.2022 08:11 22,2 °C 8,9 °C 56 % 86 % 1013,5 hPa 0,0 l/m² 8,0 km/h (2 Bft) S 180 ° 1 min 54 W/m² 6,7 °C 7,7 °C 9,7 km/h (2 Bft)
07.11.2022 08:12 22,2 °C 8,8 °C 56 % 86 % 1013,5 hPa 0,0 l/m² 6,4 km/h (2 Bft) S 180 ° 1 min 53 W/m² 6,6 °C 8,8 °C 8,0 km/h (2 Bft)
07.11.2022 08:13 22,2 °C 8,9 °C 56 % 86 % 1013,6 hPa 0,0 l/m² 4,8 km/h (1 Bft) S 180 ° 0 min 49 W/m² 6,7 °C 8,9 °C 8,0 km/h (2 Bft)
07.11.2022 08:14 22,2 °C 8,9 °C 56 % 86 % 1013,6 hPa 0,0 l/m² 6,4 km/h (2 Bft) S 180 ° 0 min 46 W/m² 6,7 °C 8,9 °C 11,3 km/h (2 Bft)
07.11.2022 08:15 22,2 °C 8,9 °C 56 % 86 % 1013,6 hPa 0,0 l/m² 6,4 km/h (2 Bft) S 180 ° 0 min 46 W/m² 6,7 °C 8,9 °C 9,7 km/h (2 Bft)
07.11.2022 08:16 22,2 °C 8,9 °C 56 % 86 % 1013,6 hPa 0,0 l/m² 6,4 km/h (2 Bft) S 180 ° 0 min 47 W/m² 6,7 °C 8,9 °C 9,7 km/h (2 Bft)
07.11.2022 08:17 22,2 °C 8,9 °C 56 % 86 % 1013,6 hPa 0,0 l/m² 6,4 km/h (2 Bft) S 180 ° 0 min 46 W/m² 6,7 °C 8,9 °C 8,0 km/h (2 Bft)
07.11.2022 08:18 22,2 °C 8,9 °C 56 % 86 % 1013,7 hPa 0,0 l/m² 6,4 km/h (2 Bft) S 180 ° 0 min 42 W/m² 6,7 °C 8,9 °C 11,3 km/h (2 Bft)
07.11.2022 08:19 22,2 °C 8,8 °C 56 % 86 % 1013,7 hPa 0,0 l/m² 8,0 km/h (2 Bft) S 180 ° 0 min 39 W/m² 6,6 °C 7,6 °C 12,9 km/h (3 Bft)
07.11.2022 08:20 22,2 °C 8,8 °C 56 % 86 % 1013,7 hPa 0,0 l/m² 6,4 km/h (2 Bft) S 180 ° 0 min 39 W/m² 6,6 °C 8,8 °C 8,0 km/h (2 Bft)
07.11.2022 08:21 22,2 °C 8,8 °C 56 % 86 % 1013,7 hPa 0,0 l/m² 8,0 km/h (2 Bft) S 180 ° 0 min 39 W/m² 6,6 °C 7,6 °C 9,7 km/h (2 Bft)
07.11.2022 08:22 22,2 °C 8,8 °C 56 % 86 % 1013,7 hPa 0,0 l/m² 8,0 km/h (2 Bft) S 180 ° 0 min 37 W/m² 6,6 °C 7,6 °C 9,7 km/h (2 Bft)
07.11.2022 08:23 22,2 °C 8,8 °C 56 % 86 % 1013,7 hPa 0,0 l/m² 8,0 km/h (2 Bft) S 180 ° 0 min 37 W/m² 6,6 °C 7,6 °C 11,3 km/h (2 Bft)
07.11.2022 08:24 22,2 °C 8,8 °C 56 % 86 % 1013,7 hPa 0,0 l/m² 8,0 km/h (2 Bft) S 180 ° 0 min 37 W/m² 6,6 °C 7,6 °C 11,3 km/h (2 Bft)
07.11.2022 08:25 22,2 °C 8,8 °C 56 % 86 % 1013,7 hPa 0,0 l/m² 9,7 km/h (2 Bft) S 180 ° 0 min 39 W/m² 6,6 °C 6,5 °C 12,9 km/h (3 Bft)
07.11.2022 08:26 22,2 °C 8,8 °C 56 % 86 % 1013,7 hPa 0,0 l/m² 6,4 km/h (2 Bft) S 180 ° 0 min 39 W/m² 6,6 °C 8,8 °C 9,7 km/h (2 Bft)
07.11.2022 08:27 22,2 °C 8,8 °C 56 % 86 % 1013,8 hPa 0,0 l/m² 6,4 km/h (2 Bft) S 180 ° 0 min 39 W/m² 6,6 °C 8,8 °C 9,7 km/h (2 Bft)
07.11.2022 08:28 22,2 °C 8,8 °C 56 % 86 % 1013,7 hPa 0,0 l/m² 8,0 km/h (2 Bft) S-SW 202 ° 0 min 39 W/m² 6,6 °C 7,6 °C 12,9 km/h (3 Bft)
07.11.2022 08:29 22,2 °C 8,8 °C 56 % 86 % 1013,7 hPa 0,0 l/m² 6,4 km/h (2 Bft) S 180 ° 0 min 40 W/m² 6,6 °C 8,8 °C 9,7 km/h (2 Bft)
07.11.2022 08:30 22,2 °C 8,8 °C 56 % 86 % 1013,7 hPa 0,0 l/m² 8,0 km/h (2 Bft) S 180 ° 0 min 42 W/m² 6,6 °C 7,6 °C 11,3 km/h (2 Bft)
07.11.2022 08:31 22,2 °C 8,8 °C 56 % 86 % 1013,7 hPa 0,0 l/m² 8,0 km/h (2 Bft) S 180 ° 0 min 42 W/m² 6,6 °C 7,6 °C 14,5 km/h (3 Bft)
07.11.2022 08:32 22,2 °C 8,8 °C 56 % 86 % 1013,7 hPa 0,0 l/m² 9,7 km/h (2 Bft) S 180 ° 0 min 39 W/m² 6,6 °C 6,5 °C 14,5 km/h (3 Bft)
07.11.2022 08:33 22,2 °C 8,8 °C 56 % 86 % 1013,7 hPa 0,0 l/m² 9,7 km/h (2 Bft) S 180 ° 0 min 39 W/m² 6,6 °C 6,5 °C 14,5 km/h (3 Bft)
07.11.2022 08:34 22,2 °C 8,8 °C 56 % 86 % 1013,7 hPa 0,0 l/m² 9,7 km/h (2 Bft) S 180 ° 0 min 39 W/m² 6,6 °C 6,5 °C 16,1 km/h (3 Bft)
07.11.2022 08:35 22,2 °C 8,8 °C 56 % 86 % 1013,8 hPa 0,0 l/m² 11,3 km/h (2 Bft) S-SW 202 ° 0 min 40 W/m² 6,6 °C 5,5 °C 14,5 km/h (3 Bft)
07.11.2022 08:36 22,2 °C 8,9 °C 56 % 86 % 1013,7 hPa 0,0 l/m² 11,3 km/h (2 Bft) S 180 ° 0 min 42 W/m² 6,7 °C 5,6 °C 14,5 km/h (3 Bft)
07.11.2022 08:37 22,2 °C 8,9 °C 56 % 86 % 1013,8 hPa 0,0 l/m² 9,7 km/h (2 Bft) S-SW 202 ° 0 min 44 W/m² 6,7 °C 6,6 °C 16,1 km/h (3 Bft)
07.11.2022 08:38 22,2 °C 8,9 °C 56 % 86 % 1013,8 hPa 0,0 l/m² 11,3 km/h (2 Bft) S-SW 202 ° 0 min 47 W/m² 6,7 °C 5,6 °C 12,9 km/h (3 Bft)
07.11.2022 08:39 22,2 °C 8,9 °C 56 % 86 % 1013,8 hPa 0,0 l/m² 12,9 km/h (3 Bft) S-SW 202 ° 1 min 54 W/m² 6,7 °C 4,8 °C 16,1 km/h (3 Bft)
07.11.2022 08:40 22,2 °C 9,0 °C 56 % 86 % 1013,8 hPa 0,0 l/m² 11,3 km/h (2 Bft) S-SW 202 ° 1 min 98 W/m² 6,8 °C 5,7 °C 14,5 km/h (3 Bft)
07.11.2022 08:41 22,2 °C 9,1 °C 56 % 86 % 1013,8 hPa 0,0 l/m² 12,9 km/h (3 Bft) S-SW 202 ° 1 min 111 W/m² 6,9 °C 5,0 °C 14,5 km/h (3 Bft)
07.11.2022 08:42 22,2 °C 9,2 °C 56 % 86 % 1013,8 hPa 0,0 l/m² 12,9 km/h (3 Bft) S-SW 202 ° 1 min 98 W/m² 7,0 °C 5,1 °C 17,7 km/h (3 Bft)
07.11.2022 08:43 22,2 °C 9,2 °C 56 % 86 % 1013,8 hPa 0,0 l/m² 12,9 km/h (3 Bft) S-SW 202 ° 1 min 84 W/m² 7,0 °C 5,1 °C 20,9 km/h (4 Bft)
07.11.2022 08:44 22,2 °C 9,3 °C 56 % 86 % 1013,9 hPa 0,0 l/m² 12,9 km/h (3 Bft) S-SW 202 ° 1 min 91 W/m² 7,1 °C 5,3 °C 17,7 km/h (3 Bft)
07.11.2022 08:45 22,2 °C 9,3 °C 56 % 86 % 1013,8 hPa 0,0 l/m² 12,9 km/h (3 Bft) S-SW 202 ° 1 min 93 W/m² 7,1 °C 5,3 °C 16,1 km/h (3 Bft)
07.11.2022 08:46 22,2 °C 9,3 °C 56 % 86 % 1013,9 hPa 0,0 l/m² 14,5 km/h (3 Bft) S-SW 202 ° 1 min 95 W/m² 7,1 °C 4,5 °C 19,3 km/h (3 Bft)
07.11.2022 08:47 22,2 °C 9,4 °C 56 % 86 % 1013,8 hPa 0,0 l/m² 14,5 km/h (3 Bft) S-SW 202 ° 1 min 67 W/m² 7,2 °C 4,6 °C 19,3 km/h (3 Bft)
07.11.2022 08:48 22,2 °C 9,4 °C 56 % 85 % 1013,7 hPa 0,0 l/m² 14,5 km/h (3 Bft) S-SW 202 ° 1 min 90 W/m² 7,0 °C 4,6 °C 19,3 km/h (3 Bft)
07.11.2022 08:49 22,2 °C 9,5 °C 56 % 85 % 1013,8 hPa 0,0 l/m² 12,9 km/h (3 Bft) S-SW 202 ° 1 min 95 W/m² 7,1 °C 5,5 °C 19,3 km/h (3 Bft)
07.11.2022 08:50 22,2 °C 9,5 °C 56 % 85 % 1013,8 hPa 0,0 l/m² 14,5 km/h (3 Bft) S-SW 202 ° 1 min 98 W/m² 7,1 °C 4,7 °C 20,9 km/h (4 Bft)
07.11.2022 08:51 22,3 °C 9,6 °C 56 % 85 % 1013,8 hPa 0,0 l/m² 14,5 km/h (3 Bft) S-SW 202 ° 1 min 90 W/m² 7,2 °C 4,9 °C 19,3 km/h (3 Bft)
07.11.2022 08:52 22,3 °C 9,6 °C 56 % 85 % 1013,7 hPa 0,0 l/m² 11,3 km/h (2 Bft) S-SW 202 ° 1 min 91 W/m² 7,2 °C 6,4 °C 14,5 km/h (3 Bft)
07.11.2022 08:53 22,3 °C 9,6 °C 56 % 85 % 1013,7 hPa 0,0 l/m² 14,5 km/h (3 Bft) S-SW 202 ° 1 min 100 W/m² 7,2 °C 4,9 °C 17,7 km/h (3 Bft)
07.11.2022 08:54 22,3 °C 9,7 °C 56 % 85 % 1013,8 hPa 0,0 l/m² 16,1 km/h (3 Bft) S 180 ° 1 min 111 W/m² 7,3 °C 4,3 °C 17,7 km/h (3 Bft)
07.11.2022 08:55 22,3 °C 9,8 °C 56 % 84 % 1013,7 hPa 0,0 l/m² 14,5 km/h (3 Bft) S-SW 202 ° 1 min 104 W/m² 7,2 °C 5,1 °C 20,9 km/h (4 Bft)
07.11.2022 08:56 22,3 °C 9,8 °C 56 % 85 % 1013,7 hPa 0,0 l/m² 12,9 km/h (3 Bft) S 180 ° 1 min 107 W/m² 7,4 °C 5,8 °C 17,7 km/h (3 Bft)
07.11.2022 08:57 22,3 °C 9,8 °C 56 % 85 % 1013,7 hPa 0,0 l/m² 16,1 km/h (3 Bft) S-SW 202 ° 1 min 118 W/m² 7,4 °C 4,4 °C 19,3 km/h (3 Bft)
07.11.2022 08:58 22,3 °C 9,9 °C 56 % 84 % 1013,7 hPa 0,0 l/m² 12,9 km/h (3 Bft) S 180 ° 1 min 128 W/m² 7,3 °C 6,0 °C 16,1 km/h (3 Bft)
07.11.2022 08:59 22,3 °C 9,9 °C 56 % 85 % 1013,7 hPa 0,0 l/m² 12,9 km/h (3 Bft) S-SW 202 ° 1 min 118 W/m² 7,5 °C 6,0 °C 17,7 km/h (3 Bft)
07.11.2022 09:00 22,3 °C 9,9 °C 56 % 84 % 1013,7 hPa 0,0 l/m² 12,9 km/h (3 Bft) S 180 ° 1 min 121 W/m² 7,3 °C 6,0 °C 19,3 km/h (3 Bft)
07.11.2022 09:01 22,3 °C 10,0 °C 56 % 84 % 1013,7 hPa 0,0 l/m² 14,5 km/h (3 Bft) S 180 ° 1 min 109 W/m² 7,4 °C 5,3 °C 19,3 km/h (3 Bft)
07.11.2022 09:02 22,3 °C 9,9 °C 56 % 84 % 1013,7 hPa 0,0 l/m² 16,1 km/h (3 Bft) S 180 ° 1 min 111 W/m² 7,3 °C 4,6 °C 17,7 km/h (3 Bft)
07.11.2022 09:03 22,3 °C 10,0 °C 56 % 84 % 1013,8 hPa 0,0 l/m² 14,5 km/h (3 Bft) S-SW 202 ° 1 min 123 W/m² 7,4 °C 5,3 °C 17,7 km/h (3 Bft)
07.11.2022 09:04 22,3 °C 10,1 °C 56 % 84 % 1013,7 hPa 0,0 l/m² 12,9 km/h (3 Bft) S-SW 202 ° 1 min 135 W/m² 7,5 °C 6,2 °C 16,1 km/h (3 Bft)
07.11.2022 09:05 22,4 °C 10,0 °C 56 % 84 % 1013,7 hPa 0,0 l/m² 14,5 km/h (3 Bft) S-SW 202 ° 1 min 134 W/m² 7,4 °C 5,3 °C 19,3 km/h (3 Bft)
07.11.2022 09:06 22,3 °C 10,0 °C 56 % 84 % 1013,7 hPa 0,0 l/m² 14,5 km/h (3 Bft) S-SW 202 ° 1 min 128 W/m² 7,4 °C 5,3 °C 16,1 km/h (3 Bft)
07.11.2022 09:07 22,4 °C 10,1 °C 56 % 84 % 1013,7 hPa 0,0 l/m² 11,3 km/h (2 Bft) S-SW 202 ° 1 min 107 W/m² 7,5 °C 7,0 °C 12,9 km/h (3 Bft)
07.11.2022 09:08 22,4 °C 10,0 °C 56 % 84 % 1013,8 hPa 0,0 l/m² 14,5 km/h (3 Bft) S-SW 202 ° 1 min 113 W/m² 7,4 °C 5,3 °C 19,3 km/h (3 Bft)
07.11.2022 09:09 22,4 °C 10,1 °C 56 % 84 % 1013,7 hPa 0,0 l/m² 14,5 km/h (3 Bft) S-SW 202 ° 1 min 95 W/m² 7,5 °C 5,5 °C 16,1 km/h (3 Bft)
07.11.2022 09:10 22,4 °C 10,0 °C 56 % 84 % 1013,8 hPa 0,0 l/m² 12,9 km/h (3 Bft) S 180 ° 1 min 114 W/m² 7,4 °C 6,1 °C 19,3 km/h (3 Bft)
07.11.2022 09:11 22,4 °C 10,0 °C 56 % 84 % 1013,8 hPa 0,0 l/m² 16,1 km/h (3 Bft) S 180 ° 1 min 135 W/m² 7,4 °C 4,7 °C 19,3 km/h (3 Bft)
07.11.2022 09:12 22,4 °C 10,1 °C 56 % 84 % 1013,7 hPa 0,0 l/m² 16,1 km/h (3 Bft) S-SW 202 ° 1 min 151 W/m² 7,5 °C 4,8 °C 20,9 km/h (4 Bft)
07.11.2022 09:13 22,4 °C 10,1 °C 56 % 84 % 1013,6 hPa 0,0 l/m² 17,7 km/h (3 Bft) S 180 ° 1 min 174 W/m² 7,5 °C 4,2 °C 22,5 km/h (4 Bft)
07.11.2022 09:14 22,4 °C 10,2 °C 56 % 84 % 1013,7 hPa 0,0 l/m² 17,7 km/h (3 Bft) S 180 ° 1 min 171 W/m² 7,6 °C 4,3 °C 22,5 km/h (4 Bft)
07.11.2022 09:15 22,4 °C 10,2 °C 56 % 84 % 1013,7 hPa 0,0 l/m² 16,1 km/h (3 Bft) S-SW 202 ° 1 min 171 W/m² 7,6 °C 4,9 °C 22,5 km/h (4 Bft)
07.11.2022 09:16 22,4 °C 10,3 °C 56 % 84 % 1013,7 hPa 0,0 l/m² 16,1 km/h (3 Bft) S-SW 202 ° 1 min 169 W/m² 7,7 °C 5,1 °C 20,9 km/h (4 Bft)
07.11.2022 09:17 22,4 °C 10,3 °C 56 % 84 % 1013,7 hPa 0,0 l/m² 19,3 km/h (3 Bft) S-SW 202 ° 1 min 139 W/m² 7,7 °C 3,9 °C 22,5 km/h (4 Bft)
07.11.2022 09:18 22,4 °C 10,3 °C 56 % 83 % 1013,7 hPa 0,0 l/m² 19,3 km/h (3 Bft) S-SW 202 ° 1 min 160 W/m² 7,5 °C 3,9 °C 27,4 km/h (5 Bft)
07.11.2022 09:19 22,5 °C 10,4 °C 56 % 83 % 1013,7 hPa 0,0 l/m² 17,7 km/h (3 Bft) S-SW 202 ° 1 min 151 W/m² 7,6 °C 4,6 °C 22,5 km/h (4 Bft)
07.11.2022 09:20 22,4 °C 10,4 °C 56 % 84 % 1013,8 hPa 0,0 l/m² 16,1 km/h (3 Bft) S-SW 202 ° 1 min 151 W/m² 7,8 °C 5,2 °C 20,9 km/h (4 Bft)
07.11.2022 09:21 22,4 °C 10,4 °C 56 % 84 % 1013,8 hPa 0,0 l/m² 17,7 km/h (3 Bft) S-SW 202 ° 1 min 193 W/m² 7,8 °C 4,6 °C 20,9 km/h (4 Bft)
07.11.2022 09:22 22,5 °C 10,4 °C 56 % 84 % 1013,7 hPa 0,0 l/m² 16,1 km/h (3 Bft) S-SW 202 ° 1 min 207 W/m² 7,8 °C 5,2 °C 19,3 km/h (3 Bft)
07.11.2022 09:23 22,5 °C 10,6 °C 56 % 84 % 1013,7 hPa 0,0 l/m² 17,7 km/h (3 Bft) S-SW 202 ° 1 min 213 W/m² 8,0 °C 4,8 °C 22,5 km/h (4 Bft)
07.11.2022 09:24 22,5 °C 10,6 °C 56 % 84 % 1013,7 hPa 0,0 l/m² 17,7 km/h (3 Bft) S-SW 202 ° 1 min 221 W/m² 8,0 °C 4,8 °C 22,5 km/h (4 Bft)
07.11.2022 09:25 22,6 °C 10,7 °C 56 % 83 % 1013,7 hPa 0,0 l/m² 19,3 km/h (3 Bft) S-SW 202 ° 1 min 220 W/m² 7,9 °C 4,4 °C 24,1 km/h (4 Bft)
07.11.2022 09:26 22,6 °C 10,7 °C 56 % 83 % 1013,7 hPa 0,0 l/m² 19,3 km/h (3 Bft) S-SW 202 ° 1 min 223 W/m² 7,9 °C 4,4 °C 24,1 km/h (4 Bft)
07.11.2022 09:27 22,6 °C 10,8 °C 56 % 83 % 1013,7 hPa 0,0 l/m² 20,9 km/h (4 Bft) S-SW 202 ° 1 min 230 W/m² 8,0 °C 4,0 °C 25,7 km/h (4 Bft)
07.11.2022 09:28 22,6 °C 10,8 °C 56 % 83 % 1013,7 hPa 0,0 l/m² 17,7 km/h (3 Bft) S-SW 202 ° 1 min 220 W/m² 8,0 °C 5,1 °C 24,1 km/h (4 Bft)
07.11.2022 09:29 22,6 °C 10,8 °C 56 % 83 % 1013,8 hPa 0,0 l/m² 19,3 km/h (3 Bft) S-SW 202 ° 1 min 185 W/m² 8,0 °C 4,5 °C 24,1 km/h (4 Bft)
07.11.2022 09:30 22,6 °C 10,8 °C 55 % 82 % 1013,7 hPa 0,0 l/m² 19,3 km/h (3 Bft) S-SW 202 ° 1 min 171 W/m² 7,9 °C 4,5 °C 25,7 km/h (4 Bft)
07.11.2022 09:31 22,6 °C 10,8 °C 56 % 83 % 1013,8 hPa 0,0 l/m² 17,7 km/h (3 Bft) S 180 ° 1 min 186 W/m² 8,0 °C 5,1 °C 22,5 km/h (4 Bft)
07.11.2022 09:32 22,7 °C 10,9 °C 56 % 82 % 1013,7 hPa 0,0 l/m² 20,9 km/h (4 Bft) S-SW 202 ° 1 min 179 W/m² 7,9 °C 4,2 °C 30,6 km/h (5 Bft)
07.11.2022 09:33 22,7 °C 10,8 °C 56 % 82 % 1013,7 hPa 0,0 l/m² 19,3 km/h (3 Bft) S-SW 202 ° 1 min 151 W/m² 7,9 °C 4,5 °C 24,1 km/h (4 Bft)
07.11.2022 09:34 22,7 °C 10,8 °C 55 % 82 % 1013,8 hPa 0,0 l/m² 19,3 km/h (3 Bft) S-SW 202 ° 1 min 139 W/m² 7,9 °C 4,5 °C 22,5 km/h (4 Bft)
07.11.2022 09:35 22,7 °C 10,8 °C 55 % 82 % 1013,8 hPa 0,0 l/m² 20,9 km/h (4 Bft) S-SW 202 ° 1 min 162 W/m² 7,9 °C 4,0 °C 27,4 km/h (5 Bft)
07.11.2022 09:36 22,7 °C 10,8 °C 55 % 83 % 1013,7 hPa 0,0 l/m² 14,5 km/h (3 Bft) S-SW 202 ° 1 min 169 W/m² 8,0 °C 6,3 °C 19,3 km/h (3 Bft)
07.11.2022 09:37 22,7 °C 10,8 °C 55 % 83 % 1013,7 hPa 0,0 l/m² 19,3 km/h (3 Bft) S-SW 202 ° 1 min 181 W/m² 8,0 °C 4,5 °C 24,1 km/h (4 Bft)
07.11.2022 09:38 22,7 °C 10,8 °C 55 % 83 % 1013,7 hPa 0,0 l/m² 16,1 km/h (3 Bft) S-SW 202 ° 1 min 281 W/m² 8,0 °C 5,7 °C 20,9 km/h (4 Bft)
07.11.2022 09:39 22,7 °C 10,9 °C 55 % 83 % 1013,6 hPa 0,0 l/m² 17,7 km/h (3 Bft) S-SW 202 ° 1 min 274 W/m² 8,1 °C 5,2 °C 25,7 km/h (4 Bft)
07.11.2022 09:40 22,7 °C 11,0 °C 55 % 83 % 1013,7 hPa 0,0 l/m² 17,7 km/h (3 Bft) S-SW 202 ° 1 min 288 W/m² 8,2 °C 5,3 °C 24,1 km/h (4 Bft)
07.11.2022 09:41 22,7 °C 11,1 °C 55 % 83 % 1013,7 hPa 0,0 l/m² 16,1 km/h (3 Bft) S-SW 202 ° 1 min 297 W/m² 8,3 °C 6,0 °C 22,5 km/h (4 Bft)
07.11.2022 09:42 22,7 °C 11,2 °C 55 % 83 % 1013,6 hPa 0,0 l/m² 19,3 km/h (3 Bft) S-SW 202 ° 1 min 285 W/m² 8,4 °C 5,1 °C 22,5 km/h (4 Bft)
07.11.2022 09:43 22,8 °C 11,3 °C 55 % 83 % 1013,6 hPa 0,0 l/m² 16,1 km/h (3 Bft) S-SW 202 ° 1 min 272 W/m² 8,5 °C 6,3 °C 20,9 km/h (4 Bft)
07.11.2022 09:44 22,8 °C 11,3 °C 55 % 83 % 1013,7 hPa 0,0 l/m² 17,7 km/h (3 Bft) S-SW 202 ° 1 min 193 W/m² 8,5 °C 5,7 °C 20,9 km/h (4 Bft)
07.11.2022 09:45 22,8 °C 11,3 °C 55 % 82 % 1013,7 hPa 0,0 l/m² 14,5 km/h (3 Bft) S-SW 202 ° 1 min 229 W/m² 8,3 °C 6,9 °C 19,3 km/h (3 Bft)
07.11.2022 09:46 22,8 °C 11,3 °C 55 % 82 % 1013,7 hPa 0,0 l/m² 16,1 km/h (3 Bft) S-SW 202 ° 1 min 274 W/m² 8,3 °C 6,3 °C 20,9 km/h (4 Bft)
07.11.2022 09:47 22,8 °C 11,3 °C 55 % 83 % 1013,7 hPa 0,0 l/m² 17,7 km/h (3 Bft) S-SW 202 ° 1 min 283 W/m² 8,5 °C 5,7 °C 24,1 km/h (4 Bft)
07.11.2022 09:48 22,8 °C 11,3 °C 55 % 82 % 1013,7 hPa 0,0 l/m² 17,7 km/h (3 Bft) S-SW 202 ° 1 min 251 W/m² 8,3 °C 5,7 °C 20,9 km/h (4 Bft)
07.11.2022 09:49 22,8 °C 11,4 °C 55 % 82 % 1013,6 hPa 0,0 l/m² 17,7 km/h (3 Bft) S-SW 202 ° 1 min 236 W/m² 8,4 °C 5,8 °C 24,1 km/h (4 Bft)
07.11.2022 09:50 22,8 °C 11,4 °C 55 % 82 % 1013,6 hPa 0,0 l/m² 19,3 km/h (3 Bft) S-SW 202 ° 1 min 243 W/m² 8,4 °C 5,3 °C 22,5 km/h (4 Bft)
07.11.2022 09:51 22,9 °C 11,4 °C 55 % 82 % 1013,8 hPa 0,0 l/m² 19,3 km/h (3 Bft) S-SW 202 ° 1 min 167 W/m² 8,4 °C 5,3 °C 25,7 km/h (4 Bft)
07.11.2022 09:52 22,8 °C 11,4 °C 55 % 82 % 1013,7 hPa 0,0 l/m² 17,7 km/h (3 Bft) S-SW 202 ° 1 min 163 W/m² 8,4 °C 5,8 °C 24,1 km/h (4 Bft)
07.11.2022 09:53 22,9 °C 11,4 °C 55 % 82 % 1013,7 hPa 0,0 l/m² 17,7 km/h (3 Bft) S-SW 202 ° 1 min 186 W/m² 8,4 °C 5,8 °C 27,4 km/h (5 Bft)
07.11.2022 09:54 22,9 °C 11,4 °C 55 % 82 % 1013,7 hPa 0,0 l/m² 16,1 km/h (3 Bft) S-SW 202 ° 1 min 244 W/m² 8,4 °C 6,4 °C 20,9 km/h (4 Bft)
07.11.2022 09:55 22,9 °C 11,4 °C 55 % 82 % 1013,8 hPa 0,0 l/m² 16,1 km/h (3 Bft) S-SW 202 ° 1 min 265 W/m² 8,4 °C 6,4 °C 22,5 km/h (4 Bft)
07.11.2022 09:56 22,8 °C 11,5 °C 55 % 82 % 1013,8 hPa 0,0 l/m² 16,1 km/h (3 Bft) S-SW 202 ° 1 min 274 W/m² 8,5 °C 6,5 °C 20,9 km/h (4 Bft)
07.11.2022 09:57 22,9 °C 11,6 °C 55 % 82 % 1013,8 hPa 0,0 l/m² 14,5 km/h (3 Bft) S-SW 202 ° 1 min 272 W/m² 8,6 °C 7,3 °C 22,5 km/h (4 Bft)
07.11.2022 09:58 22,9 °C 11,6 °C 55 % 82 % 1013,9 hPa 0,0 l/m² 17,7 km/h (3 Bft) S-SW 202 ° 1 min 195 W/m² 8,6 °C 6,1 °C 22,5 km/h (4 Bft)
07.11.2022 09:59 22,9 °C 11,6 °C 55 % 82 % 1013,7 hPa 0,0 l/m² 17,7 km/h (3 Bft) S-SW 202 ° 1 min 206 W/m² 8,6 °C 6,1 °C 24,1 km/h (4 Bft)
07.11.2022 10:00 22,9 °C 11,7 °C 55 % 82 % 1013,8 hPa 0,0 l/m² 14,5 km/h (3 Bft) S 180 ° 1 min 186 W/m² 8,7 °C 7,4 °C 19,3 km/h (3 Bft)
07.11.2022 10:01 22,9 °C 11,7 °C 55 % 81 % 1013,6 hPa 0,0 l/m² 19,3 km/h (3 Bft) S-SW 202 ° 1 min 220 W/m² 8,5 °C 5,7 °C 25,7 km/h (4 Bft)
07.11.2022 10:02 22,9 °C 11,6 °C 55 % 81 % 1013,7 hPa 0,0 l/m² 19,3 km/h (3 Bft) S-SW 202 ° 1 min 227 W/m² 8,5 °C 5,6 °C 24,1 km/h (4 Bft)
07.11.2022 10:03 22,9 °C 11,6 °C 55 % 81 % 1013,7 hPa 0,0 l/m² 16,1 km/h (3 Bft) S-SW 202 ° 1 min 200 W/m² 8,5 °C 6,7 °C 20,9 km/h (4 Bft)
07.11.2022 10:04 22,9 °C 11,6 °C 55 % 81 % 1013,7 hPa 0,0 l/m² 14,5 km/h (3 Bft) S-SW 202 ° 1 min 202 W/m² 8,5 °C 7,3 °C 19,3 km/h (3 Bft)
07.11.2022 10:05 22,9 °C 11,6 °C 55 % 81 % 1013,7 hPa 0,0 l/m² 17,7 km/h (3 Bft) S 180 ° 1 min 190 W/m² 8,5 °C 6,1 °C 24,1 km/h (4 Bft)
07.11.2022 10:06 22,9 °C 11,6 °C 55 % 82 % 1013,7 hPa 0,0 l/m² 16,1 km/h (3 Bft) S 180 ° 1 min 206 W/m² 8,6 °C 6,7 °C 27,4 km/h (5 Bft)
07.11.2022 10:07 22,9 °C 11,7 °C 55 % 81 % 1013,8 hPa 0,0 l/m² 17,7 km/h (3 Bft) S 180 ° 1 min 213 W/m² 8,5 °C 6,2 °C 22,5 km/h (4 Bft)
07.11.2022 10:08 22,9 °C 11,7 °C 55 % 82 % 1013,7 hPa 0,0 l/m² 16,1 km/h (3 Bft) S-SW 202 ° 1 min 218 W/m² 8,7 °C 6,8 °C 20,9 km/h (4 Bft)
07.11.2022 10:09 22,9 °C 11,7 °C 55 % 82 % 1013,8 hPa 0,0 l/m² 16,1 km/h (3 Bft) S-SW 202 ° 1 min 209 W/m² 8,7 °C 6,8 °C 20,9 km/h (4 Bft)
07.11.2022 10:10 22,9 °C 11,7 °C 55 % 82 % 1013,8 hPa 0,0 l/m² 16,1 km/h (3 Bft) S-SW 202 ° 1 min 204 W/m² 8,7 °C 6,8 °C 19,3 km/h (3 Bft)
07.11.2022 10:11 23,0 °C 11,7 °C 55 % 82 % 1013,8 hPa 0,0 l/m² 12,9 km/h (3 Bft) S 180 ° 1 min 206 W/m² 8,7 °C 8,1 °C 20,9 km/h (4 Bft)
07.11.2022 10:12 22,9 °C 11,7 °C 55 % 81 % 1013,8 hPa 0,0 l/m² 16,1 km/h (3 Bft) S 180 ° 1 min 211 W/m² 8,5 °C 6,8 °C 20,9 km/h (4 Bft)
07.11.2022 10:13 22,9 °C 11,8 °C 55 % 82 % 1013,8 hPa 0,0 l/m² 16,1 km/h (3 Bft) S-SW 202 ° 1 min 248 W/m² 8,8 °C 6,9 °C 19,3 km/h (3 Bft)
07.11.2022 10:14 22,9 °C 11,8 °C 55 % 81 % 1013,7 hPa 0,0 l/m² 17,7 km/h (3 Bft) S-SW 202 ° 1 min 269 W/m² 8,6 °C 6,3 °C 25,7 km/h (4 Bft)
07.11.2022 10:15 22,9 °C 11,8 °C 55 % 82 % 1013,7 hPa 0,0 l/m² 17,7 km/h (3 Bft) S 180 ° 1 min 278 W/m² 8,8 °C 6,3 °C 22,5 km/h (4 Bft)
07.11.2022 10:16 23,0 °C 11,9 °C 55 % 81 % 1013,7 hPa 0,0 l/m² 16,1 km/h (3 Bft) S 180 ° 1 min 241 W/m² 8,7 °C 7,0 °C 20,9 km/h (4 Bft)
07.11.2022 10:17 22,9 °C 11,9 °C 55 % 82 % 1013,8 hPa 0,0 l/m² 14,5 km/h (3 Bft) S 180 ° 1 min 239 W/m² 8,9 °C 7,6 °C 20,9 km/h (4 Bft)
07.11.2022 10:18 23,0 °C 11,9 °C 55 % 81 % 1013,8 hPa 0,0 l/m² 12,9 km/h (3 Bft) S-SW 202 ° 1 min 251 W/m² 8,7 °C 8,3 °C 17,7 km/h (3 Bft)
07.11.2022 10:19 23,0 °C 11,9 °C 55 % 81 % 1013,7 hPa 0,0 l/m² 16,1 km/h (3 Bft) S-SW 202 ° 1 min 250 W/m² 8,7 °C 7,0 °C 22,5 km/h (4 Bft)
07.11.2022 10:20 23,0 °C 12,0 °C 55 % 81 % 1013,8 hPa 0,0 l/m² 17,7 km/h (3 Bft) S-SW 202 ° 1 min 220 W/m² 8,8 °C 6,6 °C 22,5 km/h (4 Bft)
07.11.2022 10:21 23,0 °C 12,1 °C 55 % 81 % 1013,8 hPa 0,0 l/m² 17,7 km/h (3 Bft) S 180 ° 1 min 276 W/m² 8,9 °C 6,7 °C 25,7 km/h (4 Bft)
07.11.2022 10:22 23,0 °C 12,1 °C 55 % 81 % 1013,8 hPa 0,0 l/m² 16,1 km/h (3 Bft) S 180 ° 1 min 304 W/m² 8,9 °C 7,3 °C 22,5 km/h (4 Bft)
07.11.2022 10:23 23,0 °C 12,1 °C 55 % 81 % 1013,7 hPa 0,0 l/m² 19,3 km/h (3 Bft) S 180 ° 1 min 278 W/m² 8,9 °C 6,2 °C 25,7 km/h (4 Bft)
07.11.2022 10:24 23,1 °C 12,1 °C 55 % 81 % 1013,8 hPa 0,0 l/m² 16,1 km/h (3 Bft) S 180 ° 1 min 292 W/m² 8,9 °C 7,3 °C 19,3 km/h (3 Bft)
07.11.2022 10:25 23,0 °C 12,2 °C 55 % 81 % 1013,8 hPa 0,0 l/m² 17,7 km/h (3 Bft) S 180 ° 1 min 374 W/m² 9,0 °C 6,8 °C 25,7 km/h (4 Bft)
07.11.2022 10:26 23,1 °C 12,3 °C 55 % 81 % 1013,7 hPa 0,0 l/m² 14,5 km/h (3 Bft) S 180 ° 1 min 353 W/m² 9,1 °C 8,1 °C 17,7 km/h (3 Bft)
07.11.2022 10:27 23,1 °C 12,3 °C 54 % 81 % 1013,8 hPa 0,0 l/m² 16,1 km/h (3 Bft) S-SW 202 ° 1 min 353 W/m² 9,1 °C 7,5 °C 22,5 km/h (4 Bft)
07.11.2022 10:28 23,1 °C 12,4 °C 54 % 81 % 1013,8 hPa 0,0 l/m² 12,9 km/h (3 Bft) S 180 ° 1 min 353 W/m² 9,2 °C 8,9 °C 16,1 km/h (3 Bft)
07.11.2022 10:29 23,1 °C 12,5 °C 55 % 81 % 1013,9 hPa 0,0 l/m² 17,7 km/h (3 Bft) S-SW 202 ° 1 min 353 W/m² 9,3 °C 7,2 °C 25,7 km/h (4 Bft)
07.11.2022 10:30 23,1 °C 12,6 °C 54 % 80 % 1013,7 hPa 0,0 l/m² 22,5 km/h (4 Bft) S-SW 202 ° 1 min 378 W/m² 9,2 °C 6,0 °C 27,4 km/h (5 Bft)
07.11.2022 10:31 23,1 °C 12,6 °C 54 % 80 % 1013,9 hPa 0,0 l/m² 16,1 km/h (3 Bft) S 180 ° 1 min 374 W/m² 9,2 °C 7,9 °C 24,1 km/h (4 Bft)
07.11.2022 10:32 23,1 °C 12,6 °C 54 % 80 % 1013,9 hPa 0,0 l/m² 20,9 km/h (4 Bft) S 180 ° 1 min 283 W/m² 9,2 °C 6,4 °C 27,4 km/h (5 Bft)
07.11.2022 10:33 23,1 °C 12,7 °C 54 % 80 % 1013,9 hPa 0,0 l/m² 19,3 km/h (3 Bft) S 180 ° 1 min 343 W/m² 9,3 °C 7,0 °C 24,1 km/h (4 Bft)
07.11.2022 10:34 23,1 °C 12,7 °C 54 % 80 % 1013,9 hPa 0,0 l/m² 19,3 km/h (3 Bft) S 180 ° 1 min 401 W/m² 9,3 °C 7,0 °C 27,4 km/h (5 Bft)
07.11.2022 10:35 23,2 °C 12,8 °C 54 % 80 % 1013,9 hPa 0,0 l/m² 17,7 km/h (3 Bft) S 180 ° 1 min 371 W/m² 9,4 °C 7,6 °C 22,5 km/h (4 Bft)
07.11.2022 10:36 23,1 °C 12,8 °C 54 % 80 % 1014,0 hPa 0,0 l/m² 17,7 km/h (3 Bft) S 180 ° 1 min 308 W/m² 9,4 °C 7,6 °C 24,1 km/h (4 Bft)
07.11.2022 10:37 23,1 °C 12,8 °C 54 % 80 % 1013,9 hPa 0,0 l/m² 16,1 km/h (3 Bft) S-SW 202 ° 1 min 332 W/m² 9,4 °C 8,1 °C 19,3 km/h (3 Bft)
07.11.2022 10:38 23,2 °C 12,8 °C 54 % 80 % 1014,0 hPa 0,0 l/m² 14,5 km/h (3 Bft) S-SW 202 ° 1 min 313 W/m² 9,4 °C 8,7 °C 19,3 km/h (3 Bft)
07.11.2022 10:39 23,2 °C 12,9 °C 54 % 80 % 1014,0 hPa 0,0 l/m² 9,7 km/h (2 Bft) S-SW 202 ° 1 min 327 W/m² 9,5 °C 11,0 °C 12,9 km/h (3 Bft)
07.11.2022 10:40 23,2 °C 13,0 °C 54 % 80 % 1014,0 hPa 0,0 l/m² 14,5 km/h (3 Bft) S 180 ° 1 min 316 W/m² 9,6 °C 9,0 °C 24,1 km/h (4 Bft)
07.11.2022 10:41 23,2 °C 13,0 °C 54 % 80 % 1014,0 hPa 0,0 l/m² 14,5 km/h (3 Bft) S-SW 202 ° 1 min 258 W/m² 9,6 °C 9,0 °C 19,3 km/h (3 Bft)
07.11.2022 10:42 23,2 °C 13,1 °C 54 % 79 % 1014,0 hPa 0,0 l/m² 12,9 km/h (3 Bft) S-SW 202 ° 1 min 234 W/m² 9,5 °C 9,7 °C 16,1 km/h (3 Bft)
07.11.2022 10:43 23,2 °C 13,1 °C 54 % 80 % 1014,1 hPa 0,0 l/m² 16,1 km/h (3 Bft) S-SW 202 ° 1 min 330 W/m² 9,7 °C 8,5 °C 19,3 km/h (3 Bft)
07.11.2022 10:44 23,2 °C 13,0 °C 54 % 79 % 1014,1 hPa 0,0 l/m² 16,1 km/h (3 Bft) S-SW 202 ° 1 min 258 W/m² 9,4 °C 8,4 °C 22,5 km/h (4 Bft)
07.11.2022 10:45 23,2 °C 13,0 °C 54 % 79 % 1014,1 hPa 0,0 l/m² 19,3 km/h (3 Bft) S 180 ° 1 min 292 W/m² 9,4 °C 7,4 °C 27,4 km/h (5 Bft)
07.11.2022 10:46 23,2 °C 13,0 °C 54 % 79 % 1014,1 hPa 0,0 l/m² 14,5 km/h (3 Bft) S-SW 202 ° 1 min 318 W/m² 9,4 °C 9,0 °C 24,1 km/h (4 Bft)
07.11.2022 10:47 23,2 °C 13,1 °C 54 % 79 % 1014,0 hPa 0,0 l/m² 19,3 km/h (3 Bft) S 180 ° 1 min 353 W/m² 9,5 °C 7,5 °C 25,7 km/h (4 Bft)
07.11.2022 10:48 23,2 °C 13,1 °C 54 % 79 % 1014,1 hPa 0,0 l/m² 19,3 km/h (3 Bft) S-SW 202 ° 1 min 366 W/m² 9,5 °C 7,5 °C 22,5 km/h (4 Bft)
07.11.2022 10:49 23,2 °C 13,1 °C 54 % 79 % 1014,1 hPa 0,0 l/m² 17,7 km/h (3 Bft) S-SW 202 ° 1 min 369 W/m² 9,5 °C 8,0 °C 22,5 km/h (4 Bft)
07.11.2022 10:50 23,2 °C 13,2 °C 54 % 79 % 1014,0 hPa 0,0 l/m² 16,1 km/h (3 Bft) S-SW 202 ° 1 min 357 W/m² 9,6 °C 8,6 °C 20,9 km/h (4 Bft)
07.11.2022 10:51 23,2 °C 13,3 °C 54 % 80 % 1014,1 hPa 0,0 l/m² 14,5 km/h (3 Bft) S-SW 202 ° 1 min 348 W/m² 9,9 °C 9,3 °C 22,5 km/h (4 Bft)
07.11.2022 10:52 23,3 °C 13,3 °C 54 % 79 % 1014,1 hPa 0,0 l/m² 16,1 km/h (3 Bft) S-SW 202 ° 1 min 320 W/m² 9,7 °C 8,7 °C 20,9 km/h (4 Bft)
07.11.2022 10:53 23,3 °C 13,3 °C 54 % 79 % 1014,0 hPa 0,0 l/m² 19,3 km/h (3 Bft) S-SW 202 ° 1 min 360 W/m² 9,7 °C 7,7 °C 24,1 km/h (4 Bft)
07.11.2022 10:54 23,2 °C 13,4 °C 54 % 78 % 1014,1 hPa 0,0 l/m² 22,5 km/h (4 Bft) S-SW 202 ° 1 min 381 W/m² 9,6 °C 7,0 °C 35,4 km/h (5 Bft)
07.11.2022 10:55 23,3 °C 13,4 °C 54 % 78 % 1014,0 hPa 0,0 l/m² 17,7 km/h (3 Bft) S-SW 202 ° 1 min 383 W/m² 9,6 °C 8,4 °C 24,1 km/h (4 Bft)
07.11.2022 10:56 23,3 °C 13,5 °C 54 % 78 % 1014,1 hPa 0,0 l/m² 20,9 km/h (4 Bft) S-SW 202 ° 1 min 373 W/m² 9,7 °C 7,6 °C 24,1 km/h (4 Bft)
07.11.2022 10:57 23,3 °C 13,6 °C 54 % 78 % 1014,1 hPa 0,0 l/m² 16,1 km/h (3 Bft) S-SW 202 ° 1 min 387 W/m² 9,8 °C 9,1 °C 20,9 km/h (4 Bft)
07.11.2022 10:58 23,3 °C 13,6 °C 54 % 78 % 1014,1 hPa 0,0 l/m² 20,9 km/h (4 Bft) S-SW 202 ° 1 min 397 W/m² 9,8 °C 7,7 °C 24,1 km/h (4 Bft)
07.11.2022 10:59 23,3 °C 13,6 °C 54 % 77 % 1014,1 hPa 0,0 l/m² 19,3 km/h (3 Bft) S-SW 202 ° 1 min 392 W/m² 9,6 °C 8,1 °C 24,1 km/h (4 Bft)
07.11.2022 11:00 23,3 °C 13,7 °C 54 % 77 % 1014,1 hPa 0,0 l/m² 20,9 km/h (4 Bft) S-SW 202 ° 1 min 390 W/m² 9,7 °C 7,8 °C 25,7 km/h (4 Bft)
07.11.2022 11:01 23,3 °C 13,7 °C 53 % 76 % 1014,1 hPa 0,0 l/m² 20,9 km/h (4 Bft) S-SW 202 ° 1 min 390 W/m² 9,5 °C 7,8 °C 27,4 km/h (5 Bft)
07.11.2022 11:02 23,3 °C 13,6 °C 53 % 76 % 1014,1 hPa 0,0 l/m² 17,7 km/h (3 Bft) S-SW 202 ° 1 min 206 W/m² 9,4 °C 8,6 °C 20,9 km/h (4 Bft)
07.11.2022 11:03 23,3 °C 13,6 °C 53 % 76 % 1014,1 hPa 0,0 l/m² 20,9 km/h (4 Bft) S-SW 202 ° 1 min 264 W/m² 9,4 °C 7,7 °C 27,4 km/h (5 Bft)
07.11.2022 11:04 23,3 °C 13,4 °C 53 % 77 % 1014,2 hPa 0,0 l/m² 19,3 km/h (3 Bft) S-SW 202 ° 1 min 264 W/m² 9,5 °C 7,9 °C 24,1 km/h (4 Bft)
07.11.2022 11:05 23,3 °C 13,4 °C 53 % 77 % 1014,2 hPa 0,0 l/m² 16,1 km/h (3 Bft) S-SW 202 ° 1 min 264 W/m² 9,5 °C 8,9 °C 19,3 km/h (3 Bft)
07.11.2022 11:06 23,3 °C 13,3 °C 53 % 77 % 1014,2 hPa 0,0 l/m² 16,1 km/h (3 Bft) S-SW 202 ° 1 min 137 W/m² 9,4 °C 8,7 °C 22,5 km/h (4 Bft)
07.11.2022 11:07 23,3 °C 13,2 °C 53 % 77 % 1014,2 hPa 0,0 l/m² 17,7 km/h (3 Bft) S-SW 202 ° 1 min 125 W/m² 9,3 °C 8,1 °C 19,3 km/h (3 Bft)
07.11.2022 11:08 23,3 °C 13,2 °C 53 % 77 % 1014,2 hPa 0,0 l/m² 20,9 km/h (4 Bft) S-SW 202 ° 1 min 137 W/m² 9,3 °C 7,2 °C 25,7 km/h (4 Bft)
07.11.2022 11:09 23,3 °C 13,1 °C 53 % 77 % 1014,2 hPa 0,0 l/m² 17,7 km/h (3 Bft) S-SW 202 ° 1 min 197 W/m² 9,2 °C 8,0 °C 24,1 km/h (4 Bft)
07.11.2022 11:10 23,3 °C 13,1 °C 53 % 77 % 1014,2 hPa 0,0 l/m² 19,3 km/h (3 Bft) S-SW 202 ° 1 min 156 W/m² 9,2 °C 7,5 °C 24,1 km/h (4 Bft)
07.11.2022 11:11 23,3 °C 13,1 °C 53 % 77 % 1014,1 hPa 0,0 l/m² 17,7 km/h (3 Bft) S-SW 202 ° 1 min 151 W/m² 9,2 °C 8,0 °C 20,9 km/h (4 Bft)
07.11.2022 11:12 23,3 °C 13,1 °C 53 % 77 % 1014,2 hPa 0,0 l/m² 19,3 km/h (3 Bft) S-SW 202 ° 1 min 139 W/m² 9,2 °C 7,5 °C 24,1 km/h (4 Bft)
07.11.2022 11:13 23,3 °C 13,1 °C 53 % 78 % 1014,2 hPa 0,0 l/m² 16,1 km/h (3 Bft) S-SW 202 ° 1 min 132 W/m² 9,4 °C 8,5 °C 22,5 km/h (4 Bft)
07.11.2022 11:14 23,2 °C 13,1 °C 53 % 78 % 1014,2 hPa 0,0 l/m² 17,7 km/h (3 Bft) S-SW 202 ° 1 min 128 W/m² 9,4 °C 8,0 °C 22,5 km/h (4 Bft)
07.11.2022 11:15 23,2 °C 13,1 °C 53 % 78 % 1014,2 hPa 0,0 l/m² 20,9 km/h (4 Bft) S-SW 202 ° 1 min 128 W/m² 9,4 °C 7,0 °C 27,4 km/h (5 Bft)
07.11.2022 11:16 23,2 °C 13,1 °C 53 % 78 % 1014,2 hPa 0,0 l/m² 20,9 km/h (4 Bft) S-SW 202 ° 1 min 123 W/m² 9,4 °C 7,0 °C 29,0 km/h (5 Bft)
07.11.2022 11:17 23,2 °C 13,1 °C 53 % 78 % 1014,1 hPa 0,0 l/m² 16,1 km/h (3 Bft) S-SW 202 ° 1 min 120 W/m² 9,4 °C 8,5 °C 19,3 km/h (3 Bft)
07.11.2022 11:18 23,2 °C 13,0 °C 53 % 78 % 1014,2 hPa 0,0 l/m² 16,1 km/h (3 Bft) S-SW 202 ° 1 min 123 W/m² 9,3 °C 8,4 °C 20,9 km/h (4 Bft)
07.11.2022 11:19 23,2 °C 13,0 °C 53 % 78 % 1014,1 hPa 0,0 l/m² 16,1 km/h (3 Bft) S-SW 202 ° 1 min 127 W/m² 9,3 °C 8,4 °C 19,3 km/h (3 Bft)
07.11.2022 11:20 23,2 °C 12,9 °C 53 % 78 % 1014,2 hPa 0,0 l/m² 19,3 km/h (3 Bft) S-SW 202 ° 1 min 128 W/m² 9,2 °C 7,2 °C 22,5 km/h (4 Bft)
07.11.2022 11:21 23,2 °C 13,0 °C 53 % 78 % 1014,1 hPa 0,0 l/m² 17,7 km/h (3 Bft) S-SW 202 ° 1 min 123 W/m² 9,3 °C 7,9 °C 22,5 km/h (4 Bft)
07.11.2022 11:22 23,2 °C 13,0 °C 53 % 78 % 1014,1 hPa 0,0 l/m² 17,7 km/h (3 Bft) S-SW 202 ° 1 min 128 W/m² 9,3 °C 7,9 °C 20,9 km/h (4 Bft)
07.11.2022 11:23 23,2 °C 13,0 °C 53 % 78 % 1014,0 hPa 0,0 l/m² 17,7 km/h (3 Bft) S-SW 202 ° 1 min 160 W/m² 9,3 °C 7,9 °C 25,7 km/h (4 Bft)
07.11.2022 11:24 23,2 °C 13,1 °C 53 % 77 % 1014,1 hPa 0,0 l/m² 20,9 km/h (4 Bft) S-SW 202 ° 1 min 183 W/m² 9,2 °C 7,0 °C 27,4 km/h (5 Bft)
07.11.2022 11:25 23,1 °C 13,1 °C 53 % 77 % 1014,1 hPa 0,0 l/m² 16,1 km/h (3 Bft) S-SW 202 ° 1 min 165 W/m² 9,2 °C 8,5 °C 20,9 km/h (4 Bft)
07.11.2022 11:26 23,1 °C 13,1 °C 53 % 78 % 1014,1 hPa 0,0 l/m² 16,1 km/h (3 Bft) S-SW 202 ° 1 min 162 W/m² 9,4 °C 8,5 °C 17,7 km/h (3 Bft)
07.11.2022 11:27 23,1 °C 13,1 °C 53 % 78 % 1014,1 hPa 0,0 l/m² 12,9 km/h (3 Bft) S-SW 202 ° 1 min 162 W/m² 9,4 °C 9,7 °C 14,5 km/h (3 Bft)
07.11.2022 11:28 23,1 °C 13,1 °C 53 % 78 % 1014,1 hPa 0,0 l/m² 14,5 km/h (3 Bft) S-SW 202 ° 1 min 153 W/m² 9,4 °C 9,1 °C 19,3 km/h (3 Bft)
07.11.2022 11:29 23,1 °C 13,1 °C 53 % 78 % 1014,1 hPa 0,0 l/m² 12,9 km/h (3 Bft) S-SW 202 ° 1 min 144 W/m² 9,4 °C 9,7 °C 14,5 km/h (3 Bft)
07.11.2022 11:30 23,1 °C 13,1 °C 53 % 79 % 1014,1 hPa 0,0 l/m² 12,9 km/h (3 Bft) S-SW 202 ° 1 min 149 W/m² 9,5 °C 9,7 °C 17,7 km/h (3 Bft)
07.11.2022 11:31 23,1 °C 13,1 °C 53 % 79 % 1014,1 hPa 0,0 l/m² 16,1 km/h (3 Bft) SW 225 ° 1 min 158 W/m² 9,5 °C 8,5 °C 19,3 km/h (3 Bft)
07.11.2022 11:32 23,1 °C 13,1 °C 53 % 78 % 1014,1 hPa 0,0 l/m² 12,9 km/h (3 Bft) S-SW 202 ° 1 min 158 W/m² 9,4 °C 9,7 °C 14,5 km/h (3 Bft)
07.11.2022 11:33 23,1 °C 13,1 °C 53 % 79 % 1014,1 hPa 0,0 l/m² 14,5 km/h (3 Bft) S-SW 202 ° 1 min 151 W/m² 9,5 °C 9,1 °C 17,7 km/h (3 Bft)
07.11.2022 11:34 23,1 °C 13,1 °C 53 % 79 % 1014,1 hPa 0,0 l/m² 16,1 km/h (3 Bft) S-SW 202 ° 1 min 149 W/m² 9,5 °C 8,5 °C 17,7 km/h (3 Bft)
07.11.2022 11:35 23,0 °C 13,1 °C 53 % 79 % 1014,1 hPa 0,0 l/m² 12,9 km/h (3 Bft) S 180 ° 1 min 146 W/m² 9,5 °C 9,7 °C 16,1 km/h (3 Bft)
07.11.2022 11:36 23,0 °C 13,1 °C 53 % 78 % 1014,1 hPa 0,0 l/m² 14,5 km/h (3 Bft) S-SW 202 ° 1 min 135 W/m² 9,4 °C 9,1 °C 17,7 km/h (3 Bft)
07.11.2022 11:37 23,0 °C 13,2 °C 53 % 78 % 1014,1 hPa 0,0 l/m² 14,5 km/h (3 Bft) S-SW 202 ° 1 min 130 W/m² 9,4 °C 9,2 °C 19,3 km/h (3 Bft)
07.11.2022 11:38 23,0 °C 13,1 °C 53 % 78 % 1014,1 hPa 0,0 l/m² 14,5 km/h (3 Bft) S-SW 202 ° 1 min 132 W/m² 9,4 °C 9,1 °C 19,3 km/h (3 Bft)
07.11.2022 11:39 23,0 °C 13,2 °C 53 % 78 % 1014,0 hPa 0,0 l/m² 16,1 km/h (3 Bft) S-SW 202 ° 1 min 127 W/m² 9,4 °C 8,6 °C 19,3 km/h (3 Bft)
07.11.2022 11:40 22,9 °C 13,1 °C 53 % 78 % 1013,9 hPa 0,0 l/m² 14,5 km/h (3 Bft) S-SW 202 ° 1 min 121 W/m² 9,4 °C 9,1 °C 17,7 km/h (3 Bft)
07.11.2022 11:41 22,9 °C 13,1 °C 53 % 77 % 1014,0 hPa 0,0 l/m² 16,1 km/h (3 Bft) S 180 ° 1 min 120 W/m² 9,2 °C 8,5 °C 20,9 km/h (4 Bft)
07.11.2022 11:42 22,9 °C 13,1 °C 53 % 78 % 1014,0 hPa 0,0 l/m² 16,1 km/h (3 Bft) S-SW 202 ° 1 min 118 W/m² 9,4 °C 8,5 °C 17,7 km/h (3 Bft)
07.11.2022 11:43 22,9 °C 13,1 °C 53 % 77 % 1013,9 hPa 0,0 l/m² 14,5 km/h (3 Bft) S 180 ° 1 min 114 W/m² 9,2 °C 9,1 °C 19,3 km/h (3 Bft)
07.11.2022 11:44 22,9 °C 13,1 °C 53 % 78 % 1013,9 hPa 0,0 l/m² 17,7 km/h (3 Bft) S-SW 202 ° 1 min 113 W/m² 9,4 °C 8,0 °C 20,9 km/h (4 Bft)
07.11.2022 11:45 22,9 °C 13,1 °C 53 % 77 % 1014,0 hPa 0,0 l/m² 16,1 km/h (3 Bft) S-SW 202 ° 1 min 109 W/m² 9,2 °C 8,5 °C 17,7 km/h (3 Bft)
07.11.2022 11:46 22,9 °C 13,2 °C 53 % 78 % 1014,0 hPa 0,0 l/m² 12,9 km/h (3 Bft) S-SW 202 ° 1 min 105 W/m² 9,4 °C 9,8 °C 16,1 km/h (3 Bft)
07.11.2022 11:47 22,9 °C 13,1 °C 54 % 78 % 1013,9 hPa 0,0 l/m² 14,5 km/h (3 Bft) S-SW 202 ° 1 min 104 W/m² 9,4 °C 9,1 °C 17,7 km/h (3 Bft)
07.11.2022 11:48 22,9 °C 13,1 °C 53 % 78 % 1013,9 hPa 0,0 l/m² 14,5 km/h (3 Bft) S-SW 202 ° 1 min 109 W/m² 9,4 °C 9,1 °C 17,7 km/h (3 Bft)
07.11.2022 11:49 22,9 °C 13,1 °C 54 % 78 % 1014,0 hPa 0,0 l/m² 16,1 km/h (3 Bft) S 180 ° 1 min 111 W/m² 9,4 °C 8,5 °C 24,1 km/h (4 Bft)
07.11.2022 11:50 22,9 °C 13,1 °C 54 % 78 % 1014,0 hPa 0,0 l/m² 12,9 km/h (3 Bft) S 180 ° 1 min 114 W/m² 9,4 °C 9,7 °C 17,7 km/h (3 Bft)
07.11.2022 11:51 22,9 °C 13,1 °C 54 % 78 % 1014,0 hPa 0,0 l/m² 14,5 km/h (3 Bft) S 180 ° 1 min 128 W/m² 9,4 °C 9,1 °C 17,7 km/h (3 Bft)
07.11.2022 11:52 22,9 °C 13,1 °C 54 % 78 % 1014,0 hPa 0,0 l/m² 14,5 km/h (3 Bft) S 180 ° 1 min 148 W/m² 9,4 °C 9,1 °C 17,7 km/h (3 Bft)
07.11.2022 11:53 22,9 °C 13,1 °C 54 % 78 % 1013,9 hPa 0,0 l/m² 14,5 km/h (3 Bft) S 180 ° 1 min 153 W/m² 9,4 °C 9,1 °C 17,7 km/h (3 Bft)
07.11.2022 11:54 22,8 °C 13,1 °C 54 % 78 % 1013,9 hPa 0,0 l/m² 17,7 km/h (3 Bft) S 180 ° 1 min 156 W/m² 9,4 °C 8,0 °C 24,1 km/h (4 Bft)
07.11.2022 11:55 22,8 °C 13,2 °C 54 % 77 % 1013,9 hPa 0,0 l/m² 16,1 km/h (3 Bft) S 180 ° 1 min 158 W/m² 9,3 °C 8,6 °C 20,9 km/h (4 Bft)
07.11.2022 11:56 22,8 °C 13,2 °C 54 % 78 % 1013,9 hPa 0,0 l/m² 16,1 km/h (3 Bft) S 180 ° 1 min 167 W/m² 9,4 °C 8,6 °C 19,3 km/h (3 Bft)
07.11.2022 11:57 22,8 °C 13,2 °C 54 % 77 % 1013,9 hPa 0,0 l/m² 17,7 km/h (3 Bft) S 180 ° 1 min 172 W/m² 9,3 °C 8,1 °C 19,3 km/h (3 Bft)
07.11.2022 11:58 22,8 °C 13,2 °C 54 % 77 % 1013,8 hPa 0,0 l/m² 16,1 km/h (3 Bft) S-SW 202 ° 1 min 176 W/m² 9,3 °C 8,6 °C 20,9 km/h (4 Bft)
07.11.2022 11:59 22,8 °C 13,3 °C 54 % 77 % 1013,8 hPa 0,0 l/m² 16,1 km/h (3 Bft) S 180 ° 1 min 178 W/m² 9,4 °C 8,7 °C 22,5 km/h (4 Bft)
07.11.2022 12:00 22,8 °C 13,3 °C 54 % 77 % 1013,8 hPa 0,0 l/m² 19,3 km/h (3 Bft) S 180 ° 1 min 183 W/m² 9,4 °C 7,7 °C 22,5 km/h (4 Bft)
07.11.2022 12:01 22,8 °C 13,3 °C 54 % 77 % 1013,7 hPa 0,0 l/m² 19,3 km/h (3 Bft) S 180 ° 1 min 185 W/m² 9,4 °C 7,7 °C 24,1 km/h (4 Bft)
07.11.2022 12:02 22,8 °C 13,3 °C 54 % 77 % 1013,7 hPa 0,0 l/m² 16,1 km/h (3 Bft) S 180 ° 1 min 190 W/m² 9,4 °C 8,7 °C 20,9 km/h (4 Bft)
07.11.2022 12:03 22,8 °C 13,3 °C 54 % 77 % 1013,7 hPa 0,0 l/m² 16,1 km/h (3 Bft) S 180 ° 1 min 197 W/m² 9,4 °C 8,7 °C 22,5 km/h (4 Bft)
07.11.2022 12:04 22,8 °C 13,4 °C 54 % 77 % 1013,7 hPa 0,0 l/m² 16,1 km/h (3 Bft) S-SW 202 ° 1 min 202 W/m² 9,5 °C 8,9 °C 22,5 km/h (4 Bft)
07.11.2022 12:05 22,8 °C 13,4 °C 54 % 77 % 1013,7 hPa 0,0 l/m² 16,1 km/h (3 Bft) S 180 ° 1 min 202 W/m² 9,5 °C 8,9 °C 20,9 km/h (4 Bft)
07.11.2022 12:06 22,8 °C 13,4 °C 54 % 77 % 1013,7 hPa 0,0 l/m² 16,1 km/h (3 Bft) S-SW 202 ° 1 min 195 W/m² 9,5 °C 8,9 °C 20,9 km/h (4 Bft)
07.11.2022 12:07 22,8 °C 13,4 °C 54 % 77 % 1013,7 hPa 0,0 l/m² 16,1 km/h (3 Bft) S-SW 202 ° 1 min 190 W/m² 9,5 °C 8,9 °C 22,5 km/h (4 Bft)
07.11.2022 12:08 22,8 °C 13,4 °C 54 % 77 % 1013,8 hPa 0,0 l/m² 16,1 km/h (3 Bft) S-SW 202 ° 1 min 186 W/m² 9,5 °C 8,9 °C 19,3 km/h (3 Bft)
07.11.2022 12:09 22,8 °C 13,4 °C 54 % 77 % 1013,7 hPa 0,0 l/m² 16,1 km/h (3 Bft) S-SW 202 ° 1 min 181 W/m² 9,5 °C 8,9 °C 24,1 km/h (4 Bft)
07.11.2022 12:10 22,8 °C 13,5 °C 54 % 77 % 1013,7 hPa 0,0 l/m² 16,1 km/h (3 Bft) S-SW 202 ° 1 min 178 W/m² 9,5 °C 9,0 °C 20,9 km/h (4 Bft)
07.11.2022 12:11 22,8 °C 13,5 °C 54 % 77 % 1013,7 hPa 0,0 l/m² 16,1 km/h (3 Bft) S-SW 202 ° 1 min 178 W/m² 9,5 °C 9,0 °C 20,9 km/h (4 Bft)
07.11.2022 12:12 22,8 °C 13,5 °C 54 % 77 % 1013,7 hPa 0,0 l/m² 17,7 km/h (3 Bft) S-SW 202 ° 1 min 176 W/m² 9,5 °C 8,5 °C 20,9 km/h (4 Bft)
07.11.2022 12:13 22,8 °C 13,5 °C 54 % 77 % 1013,6 hPa 0,0 l/m² 17,7 km/h (3 Bft) S-SW 202 ° 1 min 169 W/m² 9,5 °C 8,5 °C 22,5 km/h (4 Bft)
07.11.2022 12:14 22,8 °C 13,5 °C 54 % 77 % 1013,7 hPa 0,0 l/m² 16,1 km/h (3 Bft) S-SW 202 ° 1 min 160 W/m² 9,5 °C 9,0 °C 19,3 km/h (3 Bft)
07.11.2022 12:15 22,8 °C 13,5 °C 54 % 77 % 1013,8 hPa 0,0 l/m² 16,1 km/h (3 Bft) S-SW 202 ° 1 min 151 W/m² 9,5 °C 9,0 °C 19,3 km/h (3 Bft)
07.11.2022 12:16 22,8 °C 13,5 °C 54 % 77 % 1013,7 hPa 0,0 l/m² 17,7 km/h (3 Bft) S 180 ° 1 min 144 W/m² 9,5 °C 8,5 °C 19,3 km/h (3 Bft)
07.11.2022 12:17 22,8 °C 13,6 °C 54 % 77 % 1013,7 hPa 0,0 l/m² 16,1 km/h (3 Bft) S-SW 202 ° 1 min 132 W/m² 9,6 °C 9,1 °C 19,3 km/h (3 Bft)
07.11.2022 12:18 22,8 °C 13,5 °C 54 % 77 % 1013,8 hPa 0,0 l/m² 16,1 km/h (3 Bft) S 180 ° 1 min 127 W/m² 9,5 °C 9,0 °C 22,5 km/h (4 Bft)
07.11.2022 12:19 22,8 °C 13,5 °C 54 % 77 % 1013,8 hPa 0,0 l/m² 16,1 km/h (3 Bft) S-SW 202 ° 1 min 125 W/m² 9,5 °C 9,0 °C 19,3 km/h (3 Bft)
07.11.2022 12:20 22,7 °C 13,5 °C 54 % 77 % 1013,7 hPa 0,0 l/m² 14,5 km/h (3 Bft) S-SW 202 ° 1 min 123 W/m² 9,5 °C 9,6 °C 19,3 km/h (3 Bft)
07.11.2022 12:21 22,8 °C 13,4 °C 54 % 78 % 1013,8 hPa 0,0 l/m² 12,9 km/h (3 Bft) S-SW 202 ° 1 min 125 W/m² 9,6 °C 10,1 °C 19,3 km/h (3 Bft)
07.11.2022 12:22 22,8 °C 13,4 °C 54 % 77 % 1013,8 hPa 0,0 l/m² 14,5 km/h (3 Bft) S-SW 202 ° 1 min 123 W/m² 9,5 °C 9,4 °C 19,3 km/h (3 Bft)
07.11.2022 12:23 22,8 °C 13,4 °C 54 % 77 % 1013,8 hPa 0,0 l/m² 14,5 km/h (3 Bft) S-SW 202 ° 1 min 120 W/m² 9,5 °C 9,4 °C 17,7 km/h (3 Bft)
07.11.2022 12:24 22,8 °C 13,4 °C 54 % 77 % 1013,7 hPa 0,0 l/m² 16,1 km/h (3 Bft) S-SW 202 ° 1 min 120 W/m² 9,5 °C 8,9 °C 19,3 km/h (3 Bft)
07.11.2022 12:25 22,8 °C 13,4 °C 54 % 77 % 1013,8 hPa 0,0 l/m² 17,7 km/h (3 Bft) S 180 ° 1 min 120 W/m² 9,5 °C 8,4 °C 24,1 km/h (4 Bft)
07.11.2022 12:26 22,8 °C 13,4 °C 54 % 77 % 1013,8 hPa 0,0 l/m² 14,5 km/h (3 Bft) S 180 ° 1 min 118 W/m² 9,5 °C 9,4 °C 20,9 km/h (4 Bft)
07.11.2022 12:27 22,8 °C 13,4 °C 54 % 77 % 1013,7 hPa 0,0 l/m² 16,1 km/h (3 Bft) S-SW 202 ° 1 min 118 W/m² 9,5 °C 8,9 °C 19,3 km/h (3 Bft)
07.11.2022 12:28 22,8 °C 13,4 °C 54 % 77 % 1013,7 hPa 0,0 l/m² 14,5 km/h (3 Bft) S-SW 202 ° 1 min 118 W/m² 9,5 °C 9,4 °C 17,7 km/h (3 Bft)
07.11.2022 12:29 22,8 °C 13,4 °C 54 % 77 % 1013,7 hPa 0,0 l/m² 16,1 km/h (3 Bft) S 180 ° 1 min 120 W/m² 9,5 °C 8,9 °C 22,5 km/h (4 Bft)
07.11.2022 12:30 22,8 °C 13,4 °C 54 % 77 % 1013,7 hPa 0,0 l/m² 14,5 km/h (3 Bft) S-SW 202 ° 1 min 120 W/m² 9,5 °C 9,4 °C 16,1 km/h (3 Bft)
07.11.2022 12:31 22,8 °C 13,5 °C 54 % 77 % 1013,7 hPa 0,0 l/m² 14,5 km/h (3 Bft) S-SW 202 ° 1 min 123 W/m² 9,5 °C 9,6 °C 19,3 km/h (3 Bft)
07.11.2022 12:32 22,8 °C 13,4 °C 54 % 78 % 1013,7 hPa 0,0 l/m² 14,5 km/h (3 Bft) S-SW 202 ° 1 min 127 W/m² 9,6 °C 9,4 °C 17,7 km/h (3 Bft)
07.11.2022 12:33 22,8 °C 13,4 °C 54 % 78 % 1013,7 hPa 0,0 l/m² 12,9 km/h (3 Bft) S-SW 202 ° 1 min 132 W/m² 9,6 °C 10,1 °C 16,1 km/h (3 Bft)
07.11.2022 12:34 22,8 °C 13,4 °C 55 % 78 % 1013,7 hPa 0,0 l/m² 14,5 km/h (3 Bft) S-SW 202 ° 1 min 137 W/m² 9,6 °C 9,4 °C 19,3 km/h (3 Bft)
07.11.2022 12:35 22,8 °C 13,4 °C 54 % 78 % 1013,7 hPa 0,0 l/m² 14,5 km/h (3 Bft) S-SW 202 ° 1 min 137 W/m² 9,6 °C 9,4 °C 19,3 km/h (3 Bft)
07.11.2022 12:36 22,8 °C 13,4 °C 54 % 77 % 1013,7 hPa 0,0 l/m² 14,5 km/h (3 Bft) S-SW 202 ° 1 min 134 W/m² 9,5 °C 9,4 °C 17,7 km/h (3 Bft)
07.11.2022 12:37 22,8 °C 13,4 °C 55 % 78 % 1013,6 hPa 0,0 l/m² 14,5 km/h (3 Bft) S-SW 202 ° 1 min 132 W/m² 9,6 °C 9,4 °C 17,7 km/h (3 Bft)
07.11.2022 12:38 22,7 °C 13,5 °C 55 % 77 % 1013,6 hPa 0,0 l/m² 14,5 km/h (3 Bft) S-SW 202 ° 1 min 128 W/m² 9,5 °C 9,6 °C 17,7 km/h (3 Bft)
07.11.2022 12:39 22,7 °C 13,5 °C 55 % 77 % 1013,7 hPa 0,0 l/m² 17,7 km/h (3 Bft) S-SW 202 ° 1 min 128 W/m² 9,5 °C 8,5 °C 22,5 km/h (4 Bft)
07.11.2022 12:40 22,7 °C 13,6 °C 55 % 77 % 1013,7 hPa 0,0 l/m² 16,1 km/h (3 Bft) S-SW 202 ° 1 min 123 W/m² 9,6 °C 9,1 °C 19,3 km/h (3 Bft)
07.11.2022 12:41 22,7 °C 13,6 °C 55 % 77 % 1013,6 hPa 0,0 l/m² 20,9 km/h (4 Bft) S 180 ° 1 min 118 W/m² 9,6 °C 7,7 °C 27,4 km/h (5 Bft)
07.11.2022 12:42 22,7 °C 13,6 °C 55 % 77 % 1013,7 hPa 0,0 l/m² 17,7 km/h (3 Bft) S 180 ° 1 min 114 W/m² 9,6 °C 8,6 °C 27,4 km/h (5 Bft)
07.11.2022 12:43 22,7 °C 13,6 °C 55 % 77 % 1013,7 hPa 0,0 l/m² 17,7 km/h (3 Bft) S-SW 202 ° 1 min 109 W/m² 9,6 °C 8,6 °C 19,3 km/h (3 Bft)
07.11.2022 12:44 22,7 °C 13,6 °C 55 % 77 % 1013,7 hPa 0,0 l/m² 16,1 km/h (3 Bft) S-SW 202 ° 1 min 102 W/m² 9,6 °C 9,1 °C 22,5 km/h (4 Bft)
07.11.2022 12:45 22,7 °C 13,6 °C 55 % 77 % 1013,7 hPa 0,0 l/m² 17,7 km/h (3 Bft) S-SW 202 ° 1 min 97 W/m² 9,6 °C 8,6 °C 25,7 km/h (4 Bft)
07.11.2022 12:46 22,7 °C 13,6 °C 55 % 77 % 1013,8 hPa 0,0 l/m² 20,9 km/h (4 Bft) S-SW 202 ° 1 min 95 W/m² 9,6 °C 7,7 °C 27,4 km/h (5 Bft)
07.11.2022 12:47 22,7 °C 13,6 °C 55 % 76 % 1013,8 hPa 0,0 l/m² 20,9 km/h (4 Bft) S 180 ° 1 min 84 W/m² 9,4 °C 7,7 °C 29,0 km/h (5 Bft)
07.11.2022 12:48 22,7 °C 13,7 °C 55 % 76 % 1013,9 hPa 0,0 l/m² 19,3 km/h (3 Bft) S 180 ° 1 min 81 W/m² 9,5 °C 8,3 °C 27,4 km/h (5 Bft)
07.11.2022 12:49 22,7 °C 13,6 °C 55 % 76 % 1013,9 hPa 0,0 l/m² 17,7 km/h (3 Bft) S-SW 202 ° 1 min 77 W/m² 9,4 °C 8,6 °C 22,5 km/h (4 Bft)
07.11.2022 12:50 22,7 °C 13,6 °C 55 % 76 % 1013,9 hPa 0,0 l/m² 17,7 km/h (3 Bft) S-SW 202 ° 1 min 72 W/m² 9,4 °C 8,6 °C 22,5 km/h (4 Bft)
07.11.2022 12:51 22,7 °C 13,6 °C 55 % 76 % 1013,9 hPa 0,0 l/m² 17,7 km/h (3 Bft) S-SW 202 ° 1 min 65 W/m² 9,4 °C 8,6 °C 22,5 km/h (4 Bft)
07.11.2022 12:52 22,7 °C 13,6 °C 55 % 76 % 1013,9 hPa 0,0 l/m² 19,3 km/h (3 Bft) S-SW 202 ° 1 min 60 W/m² 9,4 °C 8,1 °C 24,1 km/h (4 Bft)
07.11.2022 12:53 22,7 °C 13,6 °C 55 % 76 % 1013,9 hPa 0,0 l/m² 17,7 km/h (3 Bft) S-SW 202 ° 1 min 53 W/m² 9,4 °C 8,6 °C 22,5 km/h (4 Bft)
07.11.2022 12:54 22,7 °C 13,6 °C 55 % 76 % 1013,9 hPa 0,0 l/m² 14,5 km/h (3 Bft) S-SW 202 ° 0 min 49 W/m² 9,4 °C 9,7 °C 17,7 km/h (3 Bft)
07.11.2022 12:55 22,7 °C 13,6 °C 55 % 76 % 1013,9 hPa 0,0 l/m² 16,1 km/h (3 Bft) S-SW 202 ° 0 min 51 W/m² 9,4 °C 9,1 °C 24,1 km/h (4 Bft)
07.11.2022 12:56 22,7 °C 13,6 °C 55 % 76 % 1013,9 hPa 0,0 l/m² 17,7 km/h (3 Bft) S-SW 202 ° 1 min 54 W/m² 9,4 °C 8,6 °C 20,9 km/h (4 Bft)
07.11.2022 12:57 22,7 °C 13,6 °C 55 % 76 % 1014,0 hPa 0,0 l/m² 17,7 km/h (3 Bft) S-SW 202 ° 1 min 62 W/m² 9,4 °C 8,6 °C 25,7 km/h (4 Bft)
07.11.2022 12:58 22,7 °C 13,6 °C 55 % 75 % 1013,9 hPa 0,0 l/m² 14,5 km/h (3 Bft) S-SW 202 ° 1 min 62 W/m² 9,3 °C 9,7 °C 17,7 km/h (3 Bft)
07.11.2022 12:59 22,7 °C 13,6 °C 55 % 76 % 1014,0 hPa 0,0 l/m² 14,5 km/h (3 Bft) S-SW 202 ° 1 min 67 W/m² 9,4 °C 9,7 °C 19,3 km/h (3 Bft)
07.11.2022 13:00 22,7 °C 13,6 °C 55 % 76 % 1013,9 hPa 0,0 l/m² 14,5 km/h (3 Bft) S 180 ° 1 min 72 W/m² 9,4 °C 9,7 °C 19,3 km/h (3 Bft)
07.11.2022 13:01 22,7 °C 13,6 °C 55 % 76 % 1013,9 hPa 0,0 l/m² 12,9 km/h (3 Bft) S-SW 202 ° 1 min 76 W/m² 9,4 °C 10,3 °C 16,1 km/h (3 Bft)
07.11.2022 13:02 22,7 °C 13,6 °C 55 % 76 % 1013,9 hPa 0,0 l/m² 12,9 km/h (3 Bft) S-SW 202 ° 1 min 76 W/m² 9,4 °C 10,3 °C 16,1 km/h (3 Bft)
07.11.2022 13:03 22,7 °C 13,6 °C 55 % 77 % 1013,9 hPa 0,0 l/m² 12,9 km/h (3 Bft) S-SW 202 ° 1 min 74 W/m² 9,6 °C 10,3 °C 19,3 km/h (3 Bft)
07.11.2022 13:04 22,7 °C 13,5 °C 55 % 77 % 1013,9 hPa 0,0 l/m² 16,1 km/h (3 Bft) S-SW 202 ° 1 min 65 W/m² 9,5 °C 9,0 °C 19,3 km/h (3 Bft)
07.11.2022 13:05 22,7 °C 13,5 °C 55 % 77 % 1013,9 hPa 0,0 l/m² 16,1 km/h (3 Bft) S-SW 202 ° 1 min 65 W/m² 9,5 °C 9,0 °C 17,7 km/h (3 Bft)
07.11.2022 13:06 22,7 °C 13,5 °C 55 % 76 % 1014,0 hPa 0,0 l/m² 14,5 km/h (3 Bft) S 180 ° 1 min 63 W/m² 9,4 °C 9,6 °C 19,3 km/h (3 Bft)
07.11.2022 13:07 22,7 °C 13,5 °C 55 % 76 % 1014,0 hPa 0,0 l/m² 14,5 km/h (3 Bft) S-SW 202 ° 1 min 60 W/m² 9,4 °C 9,6 °C 19,3 km/h (3 Bft)
07.11.2022 13:08 22,7 °C 13,5 °C 55 % 76 % 1013,9 hPa 0,0 l/m² 14,5 km/h (3 Bft) S-SW 202 ° 1 min 58 W/m² 9,4 °C 9,6 °C 17,7 km/h (3 Bft)
07.11.2022 13:09 22,7 °C 13,5 °C 55 % 77 % 1014,0 hPa 0,0 l/m² 14,5 km/h (3 Bft) S-SW 202 ° 1 min 56 W/m² 9,5 °C 9,6 °C 16,1 km/h (3 Bft)
07.11.2022 13:10 22,7 °C 13,6 °C 55 % 76 % 1014,0 hPa 0,0 l/m² 16,1 km/h (3 Bft) S-SW 202 ° 1 min 56 W/m² 9,4 °C 9,1 °C 22,5 km/h (4 Bft)
07.11.2022 13:11 22,7 °C 13,6 °C 55 % 76 % 1013,9 hPa 0,0 l/m² 14,5 km/h (3 Bft) S-SW 202 ° 0 min 51 W/m² 9,4 °C 9,7 °C 24,1 km/h (4 Bft)
07.11.2022 13:12 22,7 °C 13,5 °C 55 % 76 % 1014,0 hPa 0,0 l/m² 12,9 km/h (3 Bft) S-SW 202 ° 0 min 47 W/m² 9,4 °C 10,2 °C 16,1 km/h (3 Bft)
07.11.2022 13:13 22,7 °C 13,6 °C 55 % 77 % 1014,0 hPa 0,0 l/m² 12,9 km/h (3 Bft) S-SW 202 ° 0 min 44 W/m² 9,6 °C 10,3 °C 16,1 km/h (3 Bft)
07.11.2022 13:14 22,7 °C 13,5 °C 55 % 76 % 1013,9 hPa 0,0 l/m² 12,9 km/h (3 Bft) S-SW 202 ° 0 min 44 W/m² 9,4 °C 10,2 °C 16,1 km/h (3 Bft)
07.11.2022 13:15 22,7 °C 13,5 °C 55 % 76 % 1013,9 hPa 0,0 l/m² 12,9 km/h (3 Bft) S-SW 202 ° 0 min 42 W/m² 9,4 °C 10,2 °C 16,1 km/h (3 Bft)
07.11.2022 13:16 22,7 °C 13,4 °C 55 % 77 % 1014,0 hPa 0,0 l/m² 12,9 km/h (3 Bft) S 180 ° 0 min 40 W/m² 9,5 °C 10,1 °C 17,7 km/h (3 Bft)
07.11.2022 13:17 22,7 °C 13,4 °C 55 % 77 % 1013,9 hPa 0,0 l/m² 11,3 km/h (2 Bft) S 180 ° 0 min 40 W/m² 9,5 °C 10,7 °C 16,1 km/h (3 Bft)
07.11.2022 13:18 22,7 °C 13,4 °C 55 % 76 % 1013,9 hPa 0,0 l/m² 12,9 km/h (3 Bft) S 180 ° 0 min 42 W/m² 9,3 °C 10,1 °C 16,1 km/h (3 Bft)
07.11.2022 13:19 22,7 °C 13,4 °C 55 % 77 % 1013,9 hPa 0,0 l/m² 11,3 km/h (2 Bft) S-SW 202 ° 0 min 42 W/m² 9,5 °C 10,7 °C 14,5 km/h (3 Bft)
07.11.2022 13:20 22,7 °C 13,4 °C 55 % 77 % 1014,0 hPa 0,0 l/m² 14,5 km/h (3 Bft) S 180 ° 0 min 40 W/m² 9,5 °C 9,4 °C 19,3 km/h (3 Bft)
07.11.2022 13:21 22,7 °C 13,4 °C 55 % 77 % 1014,0 hPa 0,0 l/m² 12,9 km/h (3 Bft) S 180 ° 0 min 40 W/m² 9,5 °C 10,1 °C 17,7 km/h (3 Bft)
07.11.2022 13:22 22,7 °C 13,4 °C 55 % 77 % 1014,0 hPa 0,0 l/m² 12,9 km/h (3 Bft) S-SW 202 ° 0 min 37 W/m² 9,5 °C 10,1 °C 17,7 km/h (3 Bft)
07.11.2022 13:23 22,7 °C 13,4 °C 55 % 77 % 1014,0 hPa 0,0 l/m² 14,5 km/h (3 Bft) S-SW 202 ° 0 min 35 W/m² 9,5 °C 9,4 °C 19,3 km/h (3 Bft)
07.11.2022 13:24 22,7 °C 13,4 °C 55 % 76 % 1014,0 hPa 0,0 l/m² 12,9 km/h (3 Bft) S-SW 202 ° 0 min 35 W/m² 9,3 °C 10,1 °C 16,1 km/h (3 Bft)
07.11.2022 13:25 22,7 °C 13,4 °C 55 % 77 % 1014,0 hPa 0,0 l/m² 11,3 km/h (2 Bft) S-SW 202 ° 0 min 35 W/m² 9,5 °C 10,7 °C 14,5 km/h (3 Bft)
07.11.2022 13:26 22,7 °C 13,4 °C 55 % 77 % 1014,0 hPa 0,0 l/m² 9,7 km/h (2 Bft) S-SW 202 ° 0 min 35 W/m² 9,5 °C 11,5 °C 12,9 km/h (3 Bft)
07.11.2022 13:27 22,7 °C 13,4 °C 55 % 77 % 1014,0 hPa 0,0 l/m² 9,7 km/h (2 Bft) S-SW 202 ° 0 min 37 W/m² 9,5 °C 11,5 °C 12,9 km/h (3 Bft)
07.11.2022 13:34 22,6 °C 13,3 °C 55 % 78 % 1013,9 hPa 0,0 l/m² 15,0 km/h (3 Bft) S 184 ° 0 min 37 W/m² 9,5 °C 9,1 °C 19,3 km/h (3 Bft)
07.11.2022 13:36 22,6 °C 13,3 °C 55 % 78 % 1013,8 hPa 0,0 l/m² 11,1 km/h (2 Bft) S 180 ° 0 min 37 W/m² 9,5 °C 10,7 °C 16,1 km/h (3 Bft)
07.11.2022 13:37 22,6 °C 13,3 °C 55 % 78 % 1013,8 hPa 0,0 l/m² 8,7 km/h (2 Bft) S 179 ° 0 min 40 W/m² 9,5 °C 11,9 °C 11,3 km/h (2 Bft)
07.11.2022 13:38 22,6 °C 13,3 °C 55 % 78 % 1013,8 hPa 0,0 l/m² 9,7 km/h (2 Bft) S 188 ° 0 min 39 W/m² 9,5 °C 11,4 °C 14,5 km/h (3 Bft)
07.11.2022 13:40 22,6 °C 13,3 °C 55 % 78 % 1013,8 hPa 0,0 l/m² 11,4 km/h (2 Bft) S-SO 165 ° 0 min 46 W/m² 9,5 °C 10,6 °C 14,5 km/h (3 Bft)
07.11.2022 13:41 22,6 °C 13,3 °C 55 % 78 % 1013,9 hPa 0,0 l/m² 8,2 km/h (2 Bft) S 182 ° 0 min 46 W/m² 9,5 °C 12,2 °C 11,3 km/h (2 Bft)
07.11.2022 13:42 22,6 °C 13,3 °C 55 % 78 % 1013,9 hPa 0,0 l/m² 12,5 km/h (2 Bft) S-SW 192 ° 0 min 44 W/m² 9,5 °C 10,1 °C 14,5 km/h (3 Bft)
07.11.2022 13:44 22,6 °C 13,3 °C 55 % 78 % 1013,8 hPa 0,0 l/m² 12,8 km/h (3 Bft) S-SW 202 ° 0 min 42 W/m² 9,5 °C 10,0 °C 17,7 km/h (3 Bft)
07.11.2022 13:45 22,6 °C 13,4 °C 55 % 78 % 1013,8 hPa 0,0 l/m² 14,7 km/h (3 Bft) S 182 ° 0 min 46 W/m² 9,6 °C 9,4 °C 17,7 km/h (3 Bft)
07.11.2022 13:47 22,6 °C 13,4 °C 55 % 78 % 1013,8 hPa 0,0 l/m² 11,3 km/h (2 Bft) S 179 ° 0 min 51 W/m² 9,6 °C 10,7 °C 17,7 km/h (3 Bft)
07.11.2022 13:49 22,6 °C 13,4 °C 55 % 78 % 1013,7 hPa 0,0 l/m² 12,2 km/h (2 Bft) S 187 ° 0 min 40 W/m² 9,6 °C 10,3 °C 16,1 km/h (3 Bft)
07.11.2022 13:50 22,6 °C 13,4 °C 55 % 78 % 1013,7 hPa 0,0 l/m² 12,1 km/h (2 Bft) S-SW 193 ° 0 min 42 W/m² 9,6 °C 10,4 °C 17,7 km/h (3 Bft)
07.11.2022 13:51 22,6 °C 13,4 °C 55 % 77 % 1013,7 hPa 0,0 l/m² 10,5 km/h (2 Bft) S 169 ° 0 min 44 W/m² 9,5 °C 11,1 °C 16,1 km/h (3 Bft)
07.11.2022 13:52 22,6 °C 13,4 °C 55 % 78 % 1013,7 hPa 0,0 l/m² 11,5 km/h (2 Bft) S-SW 194 ° 0 min 44 W/m² 9,6 °C 10,6 °C 14,5 km/h (3 Bft)
07.11.2022 13:54 22,6 °C 13,4 °C 55 % 77 % 1013,7 hPa 0,0 l/m² 13,4 km/h (3 Bft) S 171 ° 0 min 47 W/m² 9,5 °C 9,9 °C 17,7 km/h (3 Bft)
07.11.2022 13:55 22,6 °C 13,4 °C 55 % 77 % 1013,7 hPa 0,0 l/m² 16,4 km/h (3 Bft) S-SW 201 ° 0 min 49 W/m² 9,5 °C 8,8 °C 19,3 km/h (3 Bft)
07.11.2022 13:57 22,5 °C 13,6 °C 55 % 77 % 1013,7 hPa 0,0 l/m² 11,7 km/h (2 Bft) S 181 ° 2 min 53 W/m² 9,6 °C 10,8 °C 14,5 km/h (3 Bft)
07.11.2022 13:59 22,6 °C 13,6 °C 55 % 77 % 1013,7 hPa 0,0 l/m² 11,6 km/h (2 Bft) S 189 ° 2 min 58 W/m² 9,6 °C 10,8 °C 14,5 km/h (3 Bft)
07.11.2022 14:00 22,5 °C 13,6 °C 55 % 77 % 1013,8 hPa 0,0 l/m² 13,2 km/h (3 Bft) S 184 ° 1 min 62 W/m² 9,6 °C 10,2 °C 17,7 km/h (3 Bft)
07.11.2022 14:01 22,6 °C 13,6 °C 55 % 77 % 1013,8 hPa 0,0 l/m² 12,9 km/h (3 Bft) S 182 ° 1 min 63 W/m² 9,6 °C 10,3 °C 16,1 km/h (3 Bft)
07.11.2022 14:02 22,6 °C 13,6 °C 55 % 77 % 1013,8 hPa 0,0 l/m² 13,0 km/h (3 Bft) S-SW 196 ° 1 min 63 W/m² 9,6 °C 10,2 °C 16,1 km/h (3 Bft)
07.11.2022 14:04 22,5 °C 13,6 °C 55 % 77 % 1013,7 hPa 0,0 l/m² 12,1 km/h (2 Bft) S-SW 212 ° 2 min 54 W/m² 9,6 °C 10,6 °C 19,3 km/h (3 Bft)
07.11.2022 14:05 22,5 °C 13,6 °C 55 % 77 % 1013,8 hPa 0,0 l/m² 14,8 km/h (3 Bft) S-SW 207 ° 1 min 56 W/m² 9,6 °C 9,6 °C 19,3 km/h (3 Bft)
07.11.2022 14:07 22,5 °C 13,7 °C 55 % 77 % 1013,8 hPa 0,0 l/m² 14,9 km/h (3 Bft) S 189 ° 2 min 76 W/m² 9,7 °C 9,7 °C 20,9 km/h (4 Bft)
07.11.2022 14:09 22,5 °C 13,7 °C 55 % 77 % 1013,7 hPa 0,0 l/m² 16,5 km/h (3 Bft) S-SW 212 ° 2 min 88 W/m² 9,7 °C 9,1 °C 24,1 km/h (4 Bft)
07.11.2022 14:10 22,5 °C 13,7 °C 55 % 76 % 1013,7 hPa 0,0 l/m² 18,3 km/h (3 Bft) S 190 ° 1 min 93 W/m² 9,5 °C 8,6 °C 22,5 km/h (4 Bft)
07.11.2022 14:11 22,5 °C 13,8 °C 55 % 76 % 1013,7 hPa 0,0 l/m² 17,4 km/h (3 Bft) S 187 ° 1 min 98 W/m² 9,6 °C 8,9 °C 20,9 km/h (4 Bft)
07.11.2022 14:12 22,5 °C 13,8 °C 55 % 76 % 1013,7 hPa 0,0 l/m² 15,2 km/h (3 Bft) S 191 ° 1 min 107 W/m² 9,6 °C 9,7 °C 17,7 km/h (3 Bft)
07.11.2022 14:14 22,5 °C 13,8 °C 55 % 76 % 1013,7 hPa 0,0 l/m² 15,4 km/h (3 Bft) S-SW 198 ° 2 min 123 W/m² 9,6 °C 9,6 °C 22,5 km/h (4 Bft)
07.11.2022 14:16 22,5 °C 13,9 °C 55 % 76 % 1013,7 hPa 0,0 l/m² 16,5 km/h (3 Bft) S-SW 206 ° 2 min 114 W/m² 9,7 °C 9,4 °C 22,5 km/h (4 Bft)
07.11.2022 14:18 22,5 °C 13,9 °C 55 % 76 % 1013,7 hPa 0,0 l/m² 12,9 km/h (3 Bft) SW 223 ° 2 min 97 W/m² 9,7 °C 10,6 °C 17,7 km/h (3 Bft)
07.11.2022 14:20 22,4 °C 13,9 °C 55 % 76 % 1013,7 hPa 0,0 l/m² 14,5 km/h (3 Bft) S-SW 204 ° 2 min 91 W/m² 9,7 °C 10,0 °C 20,9 km/h (4 Bft)
07.11.2022 14:21 22,4 °C 13,9 °C 55 % 76 % 1013,6 hPa 0,0 l/m² 11,4 km/h (2 Bft) S-SW 192 ° 1 min 93 W/m² 9,7 °C 11,3 °C 14,5 km/h (3 Bft)
07.11.2022 14:22 22,5 °C 13,8 °C 55 % 76 % 1013,7 hPa 0,0 l/m² 12,7 km/h (3 Bft) S-SW 203 ° 1 min 95 W/m² 9,6 °C 10,6 °C 16,1 km/h (3 Bft)
07.11.2022 14:23 22,5 °C 13,8 °C 55 % 76 % 1013,7 hPa 0,0 l/m² 14,2 km/h (3 Bft) S-SW 210 ° 1 min 93 W/m² 9,6 °C 10,0 °C 19,3 km/h (3 Bft)
07.11.2022 14:25 22,5 °C 13,8 °C 55 % 76 % 1013,7 hPa 0,0 l/m² 13,7 km/h (3 Bft) S-SW 207 ° 2 min 76 W/m² 9,6 °C 10,2 °C 17,7 km/h (3 Bft)
07.11.2022 14:27 22,4 °C 13,8 °C 55 % 77 % 1013,7 hPa 0,0 l/m² 13,5 km/h (3 Bft) S-SW 196 ° 2 min 58 W/m² 9,8 °C 10,3 °C 19,3 km/h (3 Bft)
07.11.2022 14:29 22,4 °C 13,8 °C 55 % 76 % 1013,7 hPa 0,0 l/m² 12,9 km/h (3 Bft) SW 214 ° 2 min 60 W/m² 9,6 °C 10,5 °C 17,7 km/h (3 Bft)
07.11.2022 14:30 22,4 °C 13,7 °C 55 % 76 % 1013,7 hPa 0,0 l/m² 14,5 km/h (3 Bft) S 183 ° 1 min 56 W/m² 9,5 °C 9,8 °C 19,3 km/h (3 Bft)
07.11.2022 14:32 22,4 °C 13,7 °C 56 % 76 % 1013,8 hPa 0,0 l/m² 12,7 km/h (3 Bft) SW 215 ° 2 min 58 W/m² 9,5 °C 10,5 °C 20,9 km/h (4 Bft)
07.11.2022 14:33 22,5 °C 13,7 °C 56 % 77 % 1013,7 hPa 0,0 l/m² 11,6 km/h (2 Bft) S-SW 205 ° 1 min 58 W/m² 9,7 °C 10,9 °C 16,1 km/h (3 Bft)
07.11.2022 14:34 22,4 °C 13,7 °C 56 % 76 % 1013,7 hPa 0,0 l/m² 14,5 km/h (3 Bft) S-SW 209 ° 1 min 58 W/m² 9,5 °C 9,8 °C 17,7 km/h (3 Bft)
07.11.2022 14:36 22,4 °C 13,7 °C 56 % 76 % 1013,7 hPa 0,0 l/m² 16,0 km/h (3 Bft) S-SW 206 ° 2 min 63 W/m² 9,5 °C 9,3 °C 20,9 km/h (4 Bft)
07.11.2022 14:38 22,4 °C 13,7 °C 56 % 77 % 1013,7 hPa 0,0 l/m² 13,7 km/h (3 Bft) SW 215 ° 2 min 62 W/m² 9,7 °C 10,1 °C 19,3 km/h (3 Bft)
07.11.2022 14:40 22,4 °C 13,7 °C 56 % 77 % 1013,7 hPa 0,0 l/m² 14,1 km/h (3 Bft) S-SW 194 ° 2 min 62 W/m² 9,7 °C 9,9 °C 19,3 km/h (3 Bft)
07.11.2022 14:41 22,4 °C 13,7 °C 56 % 76 % 1013,7 hPa 0,0 l/m² 16,9 km/h (3 Bft) S-SW 207 ° 1 min 62 W/m² 9,5 °C 9,0 °C 22,5 km/h (4 Bft)
07.11.2022 14:42 22,4 °C 13,7 °C 55 % 76 % 1013,7 hPa 0,0 l/m² 17,4 km/h (3 Bft) S-SW 198 ° 1 min 62 W/m² 9,5 °C 8,8 °C 22,5 km/h (4 Bft)
07.11.2022 14:43 22,4 °C 13,7 °C 55 % 76 % 1013,7 hPa 0,0 l/m² 16,0 km/h (3 Bft) S-SW 211 ° 1 min 60 W/m² 9,5 °C 9,3 °C 19,3 km/h (3 Bft)
07.11.2022 14:45 22,4 °C 13,7 °C 55 % 76 % 1013,7 hPa 0,0 l/m² 13,8 km/h (3 Bft) S-SW 204 ° 2 min 63 W/m² 9,5 °C 10,1 °C 19,3 km/h (3 Bft)
07.11.2022 14:47 22,4 °C 13,7 °C 55 % 77 % 1013,7 hPa 0,0 l/m² 9,3 km/h (2 Bft) S-SW 200 ° 2 min 65 W/m² 9,7 °C 12,0 °C 14,5 km/h (3 Bft)
07.11.2022 14:49 22,4 °C 13,7 °C 56 % 77 % 1013,6 hPa 0,0 l/m² 9,6 km/h (2 Bft) S-SW 202 ° 2 min 63 W/m² 9,7 °C 11,9 °C 17,7 km/h (3 Bft)
07.11.2022 14:50 22,4 °C 13,6 °C 56 % 77 % 1013,7 hPa 0,0 l/m² 13,6 km/h (3 Bft) S-SW 196 ° 1 min 62 W/m² 9,6 °C 10,0 °C 19,3 km/h (3 Bft)
07.11.2022 14:51 22,4 °C 13,6 °C 56 % 77 % 1013,7 hPa 0,0 l/m² 11,0 km/h (2 Bft) S-SW 194 ° 1 min 58 W/m² 9,6 °C 11,1 °C 12,9 km/h (3 Bft)
07.11.2022 14:52 22,4 °C 13,6 °C 56 % 77 % 1013,6 hPa 0,0 l/m² 13,0 km/h (3 Bft) S 188 ° 1 min 54 W/m² 9,6 °C 10,2 °C 16,1 km/h (3 Bft)
07.11.2022 14:54 22,4 °C 13,6 °C 56 % 77 % 1013,6 hPa 0,0 l/m² 13,5 km/h (3 Bft) S-SW 197 ° 0 min 49 W/m² 9,6 °C 10,1 °C 17,7 km/h (3 Bft)
07.11.2022 14:56 22,4 °C 13,6 °C 56 % 77 % 1013,7 hPa 0,0 l/m² 11,8 km/h (2 Bft) S-SW 200 ° 2 min 56 W/m² 9,6 °C 10,7 °C 17,7 km/h (3 Bft)
07.11.2022 14:58 22,4 °C 13,6 °C 56 % 77 % 1013,6 hPa 0,0 l/m² 12,7 km/h (3 Bft) S 183 ° 2 min 60 W/m² 9,6 °C 10,4 °C 17,7 km/h (3 Bft)
07.11.2022 15:00 22,4 °C 13,6 °C 56 % 77 % 1013,8 hPa 0,0 l/m² 13,7 km/h (3 Bft) S-SW 209 ° 2 min 53 W/m² 9,6 °C 10,0 °C 17,7 km/h (3 Bft)
07.11.2022 15:01 22,4 °C 13,6 °C 56 % 77 % 1013,7 hPa 0,0 l/m² 14,9 km/h (3 Bft) S-SW 205 ° 0 min 49 W/m² 9,6 °C 9,5 °C 19,3 km/h (3 Bft)
07.11.2022 15:02 22,4 °C 13,6 °C 56 % 77 % 1013,7 hPa 0,0 l/m² 15,6 km/h (3 Bft) S-SW 196 ° 0 min 46 W/m² 9,6 °C 9,3 °C 20,9 km/h (4 Bft)
07.11.2022 15:03 22,4 °C 13,6 °C 56 % 77 % 1013,7 hPa 0,0 l/m² 12,7 km/h (3 Bft) S-SW 208 ° 0 min 42 W/m² 9,6 °C 10,4 °C 16,1 km/h (3 Bft)
07.11.2022 15:05 22,4 °C 13,6 °C 56 % 77 % 1013,7 hPa 0,0 l/m² 13,8 km/h (3 Bft) S 185 ° 0 min 42 W/m² 9,6 °C 9,9 °C 17,7 km/h (3 Bft)
07.11.2022 15:07 22,4 °C 13,6 °C 56 % 77 % 1013,8 hPa 0,0 l/m² 12,3 km/h (2 Bft) SW 221 ° 0 min 42 W/m² 9,6 °C 10,5 °C 17,7 km/h (3 Bft)
07.11.2022 15:09 22,4 °C 13,5 °C 56 % 77 % 1013,8 hPa 0,0 l/m² 11,9 km/h (2 Bft) S-SW 196 ° 0 min 47 W/m² 9,5 °C 10,6 °C 16,1 km/h (3 Bft)
07.11.2022 15:10 22,4 °C 13,5 °C 56 % 77 % 1013,7 hPa 0,0 l/m² 13,4 km/h (3 Bft) S 171 ° 0 min 51 W/m² 9,5 °C 10,0 °C 16,1 km/h (3 Bft)
07.11.2022 15:11 22,4 °C 13,5 °C 56 % 77 % 1013,8 hPa 0,0 l/m² 12,6 km/h (3 Bft) SW 216 ° 1 min 56 W/m² 9,5 °C 10,3 °C 17,7 km/h (3 Bft)
07.11.2022 15:12 22,4 °C 13,6 °C 56 % 77 % 1013,7 hPa 0,0 l/m² 13,7 km/h (3 Bft) S-SW 196 ° 1 min 58 W/m² 9,6 °C 10,0 °C 17,7 km/h (3 Bft)
07.11.2022 15:14 22,4 °C 13,6 °C 56 % 77 % 1013,7 hPa 0,0 l/m² 10,8 km/h (2 Bft) S 185 ° 2 min 56 W/m² 9,6 °C 11,2 °C 14,5 km/h (3 Bft)
07.11.2022 15:16 22,4 °C 13,6 °C 56 % 77 % 1013,6 hPa 0,0 l/m² 13,1 km/h (3 Bft) S-SW 201 ° 2 min 56 W/m² 9,6 °C 10,2 °C 22,5 km/h (4 Bft)
07.11.2022 15:18 22,4 °C 13,6 °C 56 % 77 % 1013,7 hPa 0,0 l/m² 13,6 km/h (3 Bft) S 190 ° 2 min 63 W/m² 9,6 °C 10,0 °C 17,7 km/h (3 Bft)
07.11.2022 15:20 22,5 °C 13,6 °C 56 % 77 % 1013,6 hPa 0,0 l/m² 15,0 km/h (3 Bft) S-SW 202 ° 2 min 63 W/m² 9,6 °C 9,5 °C 20,9 km/h (4 Bft)
07.11.2022 15:21 22,5 °C 13,6 °C 56 % 77 % 1013,7 hPa 0,0 l/m² 16,9 km/h (3 Bft) S-SW 211 ° 1 min 63 W/m² 9,6 °C 8,9 °C 20,9 km/h (4 Bft)
07.11.2022 15:22 22,5 °C 13,6 °C 56 % 77 % 1013,7 hPa 0,0 l/m² 17,3 km/h (3 Bft) S-SW 200 ° 1 min 63 W/m² 9,6 °C 8,7 °C 20,9 km/h (4 Bft)
07.11.2022 15:23 22,5 °C 13,6 °C 56 % 77 % 1013,7 hPa 0,0 l/m² 17,8 km/h (3 Bft) S 180 ° 1 min 65 W/m² 9,6 °C 8,6 °C 22,5 km/h (4 Bft)
07.11.2022 15:25 22,4 °C 13,7 °C 55 % 76 % 1013,7 hPa 0,0 l/m² 13,9 km/h (3 Bft) S-SW 194 ° 2 min 63 W/m² 9,5 °C 10,0 °C 20,9 km/h (4 Bft)
07.11.2022 15:27 22,4 °C 13,7 °C 55 % 76 % 1013,7 hPa 0,0 l/m² 13,4 km/h (3 Bft) S-SW 202 ° 2 min 62 W/m² 9,5 °C 10,2 °C 16,1 km/h (3 Bft)
07.11.2022 15:29 22,4 °C 13,7 °C 55 % 77 % 1013,7 hPa 0,0 l/m² 14,4 km/h (3 Bft) S 184 ° 2 min 62 W/m² 9,7 °C 9,8 °C 20,9 km/h (4 Bft)
07.11.2022 15:30 22,4 °C 13,7 °C 55 % 76 % 1013,6 hPa 0,0 l/m² 11,0 km/h (2 Bft) S 182 ° 1 min 62 W/m² 9,5 °C 11,2 °C 16,1 km/h (3 Bft)
07.11.2022 15:31 22,4 °C 13,7 °C 55 % 77 % 1013,6 hPa 0,0 l/m² 11,8 km/h (2 Bft) S 189 ° 1 min 60 W/m² 9,7 °C 10,9 °C 14,5 km/h (3 Bft)
07.11.2022 15:32 22,4 °C 13,7 °C 55 % 77 % 1013,6 hPa 0,0 l/m² 10,4 km/h (2 Bft) S-SW 211 ° 1 min 60 W/m² 9,7 °C 11,5 °C 12,9 km/h (3 Bft)
07.11.2022 15:34 22,4 °C 13,7 °C 55 % 77 % 1013,6 hPa 0,0 l/m² 11,9 km/h (2 Bft) S 183 ° 2 min 60 W/m² 9,7 °C 10,8 °C 16,1 km/h (3 Bft)
07.11.2022 15:36 22,4 °C 13,6 °C 55 % 77 % 1013,7 hPa 0,0 l/m² 14,1 km/h (3 Bft) S-SW 211 ° 2 min 62 W/m² 9,6 °C 9,8 °C 17,7 km/h (3 Bft)
07.11.2022 15:38 22,4 °C 13,7 °C 55 % 76 % 1013,6 hPa 0,0 l/m² 15,9 km/h (3 Bft) S-SW 195 ° 2 min 60 W/m² 9,5 °C 9,3 °C 19,3 km/h (3 Bft)
07.11.2022 15:40 22,4 °C 13,7 °C 55 % 76 % 1013,5 hPa 0,0 l/m² 15,3 km/h (3 Bft) S-SW 207 ° 2 min 54 W/m² 9,5 °C 9,5 °C 24,1 km/h (4 Bft)
07.11.2022 15:41 22,3 °C 13,7 °C 55 % 76 % 1013,6 hPa 0,0 l/m² 15,7 km/h (3 Bft) S-SW 203 ° 0 min 51 W/m² 9,5 °C 9,4 °C 19,3 km/h (3 Bft)
07.11.2022 15:42 22,3 °C 13,7 °C 55 % 76 % 1013,6 hPa 0,0 l/m² 14,2 km/h (3 Bft) S 190 ° 0 min 49 W/m² 9,5 °C 9,9 °C 17,7 km/h (3 Bft)
07.11.2022 15:43 22,4 °C 13,7 °C 55 % 76 % 1013,7 hPa 0,0 l/m² 11,4 km/h (2 Bft) S 190 ° 0 min 47 W/m² 9,5 °C 11,0 °C 16,1 km/h (3 Bft)
07.11.2022 15:45 22,3 °C 13,7 °C 55 % 76 % 1013,6 hPa 0,0 l/m² 15,3 km/h (3 Bft) S 185 ° 0 min 44 W/m² 9,5 °C 9,5 °C 20,9 km/h (4 Bft)
07.11.2022 15:46 22,4 °C 13,7 °C 55 % 76 % 1013,6 hPa 0,0 l/m² 17,7 km/h (3 Bft) S-SW 198 ° 0 min 40 W/m² 9,5 °C 8,7 °C 22,5 km/h (4 Bft)
07.11.2022 15:47 22,3 °C 13,7 °C 55 % 76 % 1013,6 hPa 0,0 l/m² 16,3 km/h (3 Bft) S-SW 194 ° 0 min 40 W/m² 9,5 °C 9,2 °C 22,5 km/h (4 Bft)
07.11.2022 15:48 22,3 °C 13,6 °C 55 % 76 % 1013,6 hPa 0,0 l/m² 11,5 km/h (2 Bft) S-SW 196 ° 0 min 40 W/m² 9,4 °C 10,9 °C 12,9 km/h (3 Bft)
07.11.2022 15:50 22,3 °C 13,6 °C 55 % 76 % 1013,6 hPa 0,0 l/m² 13,3 km/h (3 Bft) S-SW 198 ° 0 min 40 W/m² 9,4 °C 10,1 °C 19,3 km/h (3 Bft)
07.11.2022 15:51 22,4 °C 13,6 °C 55 % 76 % 1013,6 hPa 0,0 l/m² 15,4 km/h (3 Bft) S-SW 203 ° 0 min 39 W/m² 9,4 °C 9,4 °C 22,5 km/h (4 Bft)
07.11.2022 15:52 22,4 °C 13,6 °C 55 % 76 % 1013,6 hPa 0,0 l/m² 14,1 km/h (3 Bft) S-SW 205 ° 0 min 39 W/m² 9,4 °C 9,8 °C 17,7 km/h (3 Bft)
07.11.2022 15:53 22,4 °C 13,6 °C 55 % 77 % 1013,6 hPa 0,0 l/m² 17,9 km/h (3 Bft) S-SW 207 ° 0 min 37 W/m² 9,6 °C 8,5 °C 22,5 km/h (4 Bft)
07.11.2022 15:55 22,3 °C 13,6 °C 55 % 76 % 1013,6 hPa 0,0 l/m² 13,5 km/h (3 Bft) S-SW 198 ° 0 min 35 W/m² 9,4 °C 10,1 °C 17,7 km/h (3 Bft)
07.11.2022 15:57 22,3 °C 13,6 °C 56 % 76 % 1013,5 hPa 0,0 l/m² 15,1 km/h (3 Bft) S-SW 199 ° 0 min 33 W/m² 9,4 °C 9,5 °C 19,3 km/h (3 Bft)
07.11.2022 15:59 22,3 °C 13,6 °C 56 % 76 % 1013,5 hPa 0,0 l/m² 16,0 km/h (3 Bft) S-SW 196 ° 0 min 30 W/m² 9,4 °C 9,2 °C 19,3 km/h (3 Bft)
07.11.2022 16:00 22,3 °C 13,6 °C 56 % 76 % 1013,5 hPa 0,0 l/m² 15,9 km/h (3 Bft) S 188 ° 0 min 30 W/m² 9,4 °C 9,2 °C 20,9 km/h (4 Bft)
07.11.2022 16:01 22,3 °C 13,6 °C 56 % 76 % 1013,5 hPa 0,0 l/m² 16,3 km/h (3 Bft) S-SW 203 ° 0 min 28 W/m² 9,4 °C 9,1 °C 20,9 km/h (4 Bft)
07.11.2022 16:02 22,3 °C 13,5 °C 56 % 76 % 1013,5 hPa 0,0 l/m² 15,6 km/h (3 Bft) S-SW 199 ° 0 min 28 W/m² 9,4 °C 9,2 °C 19,3 km/h (3 Bft)
07.11.2022 16:04 22,3 °C 13,4 °C 56 % 76 % 1013,5 hPa 0,0 l/m² 15,8 km/h (3 Bft) S-SW 199 ° 0 min 26 W/m² 9,3 °C 9,0 °C 20,9 km/h (4 Bft)
07.11.2022 16:06 22,3 °C 13,4 °C 56 % 76 % 1013,5 hPa 0,0 l/m² 13,6 km/h (3 Bft) S 184 ° 0 min 23 W/m² 9,3 °C 9,8 °C 17,7 km/h (3 Bft)
07.11.2022 16:08 22,3 °C 13,3 °C 56 % 77 % 1013,4 hPa 0,0 l/m² 14,6 km/h (3 Bft) S 184 ° 0 min 21 W/m² 9,4 °C 9,3 °C 19,3 km/h (3 Bft)
07.11.2022 16:10 22,3 °C 13,3 °C 56 % 77 % 1013,4 hPa 0,0 l/m² 15,1 km/h (3 Bft) S 189 ° 0 min 19 W/m² 9,4 °C 9,1 °C 17,7 km/h (3 Bft)
07.11.2022 16:11 22,3 °C 13,2 °C 56 % 77 % 1013,4 hPa 0,0 l/m² 13,5 km/h (3 Bft) S 190 ° 0 min 19 W/m² 9,3 °C 9,6 °C 17,7 km/h (3 Bft)
07.11.2022 16:12 22,3 °C 13,2 °C 56 % 77 % 1013,4 hPa 0,0 l/m² 15,0 km/h (3 Bft) S 182 ° 0 min 18 W/m² 9,3 °C 9,0 °C 19,3 km/h (3 Bft)
07.11.2022 16:13 22,3 °C 13,2 °C 56 % 77 % 1013,4 hPa 0,0 l/m² 13,9 km/h (3 Bft) S-SW 192 ° 0 min 18 W/m² 9,3 °C 9,4 °C 17,7 km/h (3 Bft)
07.11.2022 16:15 22,3 °C 13,1 °C 56 % 77 % 1013,5 hPa 0,0 l/m² 16,7 km/h (3 Bft) S-SW 196 ° 0 min 16 W/m² 9,2 °C 8,3 °C 24,1 km/h (4 Bft)
07.11.2022 16:17 22,3 °C 13,1 °C 56 % 77 % 1013,5 hPa 0,0 l/m² 14,6 km/h (3 Bft) S 184 ° 0 min 14 W/m² 9,2 °C 9,0 °C 20,9 km/h (4 Bft)
07.11.2022 16:19 22,3 °C 13,1 °C 56 % 78 % 1013,4 hPa 0,0 l/m² 14,4 km/h (3 Bft) S-SW 192 ° 0 min 12 W/m² 9,4 °C 9,1 °C 22,5 km/h (4 Bft)
07.11.2022 16:20 22,3 °C 13,1 °C 56 % 78 % 1013,5 hPa 0,0 l/m² 16,0 km/h (3 Bft) S 180 ° 0 min 12 W/m² 9,4 °C 8,5 °C 22,5 km/h (4 Bft)
07.11.2022 16:21 22,3 °C 13,0 °C 56 % 78 % 1013,5 hPa 0,0 l/m² 16,4 km/h (3 Bft) S 190 ° 0 min 12 W/m² 9,3 °C 8,3 °C 22,5 km/h (4 Bft)
07.11.2022 16:22 22,4 °C 13,1 °C 56 % 78 % 1013,4 hPa 0,0 l/m² 16,4 km/h (3 Bft) S 188 ° 0 min 11 W/m² 9,4 °C 8,4 °C 19,3 km/h (3 Bft)
07.11.2022 16:24 22,3 °C 13,0 °C 57 % 78 % 1013,5 hPa 0,0 l/m² 13,9 km/h (3 Bft) S 188 ° 0 min 9 W/m² 9,3 °C 9,2 °C 20,9 km/h (4 Bft)
07.11.2022 16:26 22,3 °C 13,0 °C 57 % 78 % 1013,5 hPa 0,0 l/m² 12,9 km/h (3 Bft) S 182 ° 0 min 7 W/m² 9,3 °C 9,6 °C 17,7 km/h (3 Bft)
07.11.2022 16:28 22,4 °C 12,9 °C 57 % 78 % 1013,5 hPa 0,0 l/m² 10,7 km/h (2 Bft) S-SW 193 ° 0 min 5 W/m² 9,2 °C 10,5 °C 17,7 km/h (3 Bft)
07.11.2022 16:30 22,3 °C 12,9 °C 57 % 78 % 1013,5 hPa 0,0 l/m² 11,3 km/h (2 Bft) S 184 ° 0 min 5 W/m² 9,2 °C 10,2 °C 17,7 km/h (3 Bft)
07.11.2022 16:31 22,3 °C 12,8 °C 57 % 78 % 1013,5 hPa 0,0 l/m² 9,7 km/h (2 Bft) S-SO 164 ° 0 min 0 W/m² 9,1 °C 10,8 °C 12,9 km/h (3 Bft)
07.11.2022 16:32 22,3 °C 12,8 °C 57 % 78 % 1013,5 hPa 0,0 l/m² 8,6 km/h (2 Bft) S 174 ° 0 min 0 W/m² 9,1 °C 11,4 °C 11,3 km/h (2 Bft)
07.11.2022 16:33 22,3 °C 12,8 °C 57 % 78 % 1013,5 hPa 0,0 l/m² 8,0 km/h (2 Bft) S-SO 168 ° 0 min 0 W/m² 9,1 °C 11,8 °C 12,9 km/h (3 Bft)
07.11.2022 16:35 22,3 °C 12,7 °C 57 % 78 % 1013,5 hPa 0,0 l/m² 10,9 km/h (2 Bft) S 181 ° 0 min 0 W/m² 9,0 °C 10,1 °C 17,7 km/h (3 Bft)
07.11.2022 16:37 22,3 °C 12,7 °C 57 % 79 % 1013,5 hPa 0,0 l/m² 11,5 km/h (2 Bft) S 188 ° 0 min 0 W/m² 9,2 °C 9,8 °C 19,3 km/h (3 Bft)
07.11.2022 16:39 22,3 °C 12,7 °C 57 % 79 % 1013,5 hPa 0,0 l/m² 11,0 km/h (2 Bft) S 182 ° 0 min 0 W/m² 9,2 °C 10,1 °C 16,1 km/h (3 Bft)
07.11.2022 16:40 22,3 °C 12,7 °C 57 % 79 % 1013,6 hPa 0,0 l/m² 11,4 km/h (2 Bft) S 186 ° 0 min 0 W/m² 9,2 °C 9,9 °C 16,1 km/h (3 Bft)
07.11.2022 16:41 22,3 °C 12,7 °C 57 % 79 % 1013,6 hPa 0,0 l/m² 10,3 km/h (2 Bft) S-SO 162 ° 0 min 0 W/m² 9,2 °C 10,4 °C 12,9 km/h (3 Bft)
07.11.2022 16:42 22,3 °C 12,7 °C 57 % 79 % 1013,6 hPa 0,0 l/m² 11,7 km/h (2 Bft) S 174 ° 0 min 0 W/m² 9,2 °C 9,8 °C 17,7 km/h (3 Bft)
07.11.2022 16:44 22,3 °C 12,7 °C 57 % 79 % 1013,5 hPa 0,0 l/m² 14,1 km/h (3 Bft) S 184 ° 0 min 0 W/m² 9,2 °C 8,7 °C 19,3 km/h (3 Bft)
07.11.2022 16:46 22,3 °C 12,7 °C 57 % 79 % 1013,6 hPa 0,0 l/m² 10,4 km/h (2 Bft) S 188 ° 0 min 0 W/m² 9,2 °C 10,4 °C 17,7 km/h (3 Bft)
07.11.2022 16:48 22,3 °C 12,7 °C 57 % 79 % 1013,6 hPa 0,0 l/m² 10,2 km/h (2 Bft) S 188 ° 0 min 0 W/m² 9,2 °C 10,5 °C 12,9 km/h (3 Bft)
07.11.2022 16:50 22,3 °C 12,7 °C 57 % 79 % 1013,5 hPa 0,0 l/m² 13,0 km/h (3 Bft) S-SW 203 ° 0 min 0 W/m² 9,2 °C 9,2 °C 19,3 km/h (3 Bft)
07.11.2022 16:51 22,3 °C 12,7 °C 57 % 79 % 1013,6 hPa 0,0 l/m² 11,1 km/h (2 Bft) S-SO 155 ° 0 min 0 W/m² 9,2 °C 10,0 °C 17,7 km/h (3 Bft)
07.11.2022 16:52 22,3 °C 12,7 °C 57 % 79 % 1013,6 hPa 0,0 l/m² 9,7 km/h (2 Bft) S 183 ° 0 min 0 W/m² 9,2 °C 10,7 °C 14,5 km/h (3 Bft)
07.11.2022 16:53 22,3 °C 12,7 °C 57 % 79 % 1013,5 hPa 0,0 l/m² 9,7 km/h (2 Bft) S-SW 194 ° 0 min 0 W/m² 9,2 °C 10,7 °C 16,1 km/h (3 Bft)
07.11.2022 16:55 22,3 °C 12,7 °C 57 % 79 % 1013,6 hPa 0,0 l/m² 11,6 km/h (2 Bft) S 184 ° 0 min 0 W/m² 9,2 °C 9,8 °C 16,1 km/h (3 Bft)
07.11.2022 16:57 22,3 °C 12,7 °C 57 % 79 % 1013,7 hPa 0,0 l/m² 8,8 km/h (2 Bft) S 191 ° 0 min 0 W/m² 9,2 °C 11,2 °C 16,1 km/h (3 Bft)
07.11.2022 16:59 22,3 °C 12,7 °C 57 % 79 % 1013,7 hPa 0,0 l/m² 8,8 km/h (2 Bft) S 183 ° 0 min 0 W/m² 9,2 °C 11,2 °C 14,5 km/h (3 Bft)
07.11.2022 17:00 22,3 °C 12,6 °C 57 % 79 % 1013,7 hPa 0,0 l/m² 9,5 km/h (2 Bft) S-SW 192 ° 0 min 0 W/m² 9,1 °C 10,7 °C 12,9 km/h (3 Bft)
07.11.2022 17:01 22,3 °C 12,6 °C 57 % 79 % 1013,7 hPa 0,0 l/m² 8,7 km/h (2 Bft) S-SW 199 ° 0 min 0 W/m² 9,1 °C 11,2 °C 12,9 km/h (3 Bft)
07.11.2022 17:02 22,3 °C 12,6 °C 57 % 79 % 1013,7 hPa 0,0 l/m² 8,2 km/h (2 Bft) S-SW 192 ° 0 min 0 W/m² 9,1 °C 11,5 °C 9,7 km/h (2 Bft)
07.11.2022 17:04 22,2 °C 12,5 °C 57 % 79 % 1013,7 hPa 0,0 l/m² 8,4 km/h (2 Bft) S 187 ° 0 min 0 W/m² 9,0 °C 11,2 °C 12,9 km/h (3 Bft)
07.11.2022 17:06 22,3 °C 12,5 °C 57 % 79 % 1013,7 hPa 0,0 l/m² 7,9 km/h (2 Bft) S 187 ° 0 min 0 W/m² 9,0 °C 11,5 °C 12,9 km/h (3 Bft)
07.11.2022 17:08 22,3 °C 12,4 °C 57 % 79 % 1013,7 hPa 0,0 l/m² 9,2 km/h (2 Bft) S 191 ° 0 min 0 W/m² 8,9 °C 10,7 °C 14,5 km/h (3 Bft)
07.11.2022 17:10 22,2 °C 12,4 °C 57 % 79 % 1013,8 hPa 0,0 l/m² 8,6 km/h (2 Bft) S-SW 200 ° 0 min 0 W/m² 8,9 °C 11,0 °C 11,3 km/h (2 Bft)
07.11.2022 17:11 22,2 °C 12,4 °C 56 % 79 % 1013,7 hPa 0,0 l/m² 8,9 km/h (2 Bft) S 185 ° 0 min 0 W/m² 8,9 °C 10,8 °C 14,5 km/h (3 Bft)
07.11.2022 17:12 22,2 °C 12,4 °C 56 % 79 % 1013,7 hPa 0,0 l/m² 7,6 km/h (2 Bft) S-SW 194 ° 0 min 0 W/m² 8,9 °C 11,6 °C 8,0 km/h (2 Bft)
07.11.2022 17:13 22,2 °C 12,4 °C 56 % 79 % 1013,8 hPa 0,0 l/m² 8,0 km/h (2 Bft) S-SW 192 ° 0 min 0 W/m² 8,9 °C 11,4 °C 12,9 km/h (3 Bft)
07.11.2022 17:15 22,2 °C 12,3 °C 56 % 79 % 1013,7 hPa 0,0 l/m² 9,6 km/h (2 Bft) S-SW 197 ° 0 min 0 W/m² 8,8 °C 10,3 °C 12,9 km/h (3 Bft)
07.11.2022 17:17 22,2 °C 12,3 °C 56 % 79 % 1013,9 hPa 0,0 l/m² 8,7 km/h (2 Bft) S-SW 198 ° 0 min 0 W/m² 8,8 °C 10,8 °C 11,3 km/h (2 Bft)
07.11.2022 17:19 22,2 °C 12,3 °C 56 % 80 % 1013,8 hPa 0,0 l/m² 7,4 km/h (2 Bft) S-SW 195 ° 0 min 0 W/m² 8,9 °C 11,6 °C 11,3 km/h (2 Bft)
07.11.2022 17:21 22,2 °C 12,3 °C 56 % 80 % 1013,8 hPa 0,0 l/m² 7,8 km/h (2 Bft) S-SW 192 ° 0 min 0 W/m² 8,9 °C 11,4 °C 11,3 km/h (2 Bft)
07.11.2022 17:22 22,2 °C 12,3 °C 56 % 80 % 1013,9 hPa 0,0 l/m² 7,8 km/h (2 Bft) S-SW 192 ° 0 min 0 W/m² 8,9 °C 11,4 °C 9,7 km/h (2 Bft)
07.11.2022 17:23 22,2 °C 12,2 °C 56 % 80 % 1013,9 hPa 0,0 l/m² 8,4 km/h (2 Bft) S 191 ° 0 min 0 W/m² 8,9 °C 10,9 °C 9,7 km/h (2 Bft)
07.11.2022 17:24 22,2 °C 12,2 °C 56 % 80 % 1013,9 hPa 0,0 l/m² 7,8 km/h (2 Bft) S 186 ° 0 min 0 W/m² 8,9 °C 11,3 °C 9,7 km/h (2 Bft)
07.11.2022 17:26 22,2 °C 12,2 °C 56 % 80 % 1013,9 hPa 0,0 l/m² 8,1 km/h (2 Bft) S-SW 196 ° 0 min 0 W/m² 8,9 °C 11,1 °C 11,3 km/h (2 Bft)
07.11.2022 17:28 22,2 °C 12,2 °C 56 % 80 % 1013,9 hPa 0,0 l/m² 7,7 km/h (2 Bft) S 191 ° 0 min 0 W/m² 8,9 °C 11,3 °C 9,7 km/h (2 Bft)
07.11.2022 17:30 22,2 °C 12,1 °C 57 % 80 % 1013,8 hPa 0,0 l/m² 8,0 km/h (2 Bft) S 186 ° 0 min 0 W/m² 8,8 °C 11,1 °C 11,3 km/h (2 Bft)
07.11.2022 17:31 22,2 °C 12,1 °C 57 % 80 % 1013,9 hPa 0,0 l/m² 7,1 km/h (2 Bft) S 186 ° 0 min 0 W/m² 8,8 °C 11,6 °C 9,7 km/h (2 Bft)
07.11.2022 17:32 22,2 °C 12,1 °C 57 % 80 % 1013,9 hPa 0,0 l/m² 5,9 km/h (2 Bft) S 186 ° 0 min 0 W/m² 8,8 °C 12,1 °C 6,4 km/h (2 Bft)
07.11.2022 17:33 22,2 °C 12,1 °C 57 % 80 % 1013,9 hPa 0,0 l/m² 5,0 km/h (1 Bft) S 186 ° 0 min 0 W/m² 8,8 °C 12,1 °C 6,4 km/h (2 Bft)
07.11.2022 17:35 22,2 °C 12,1 °C 57 % 80 % 1013,9 hPa 0,0 l/m² 7,5 km/h (2 Bft) S 187 ° 0 min 0 W/m² 8,8 °C 11,4 °C 9,7 km/h (2 Bft)
07.11.2022 17:37 22,2 °C 12,1 °C 57 % 80 % 1013,9 hPa 0,0 l/m² 6,0 km/h (2 Bft) S 184 ° 0 min 0 W/m² 8,8 °C 12,1 °C 8,0 km/h (2 Bft)
07.11.2022 17:39 22,2 °C 12,0 °C 57 % 80 % 1013,9 hPa 0,0 l/m² 4,6 km/h (1 Bft) S 181 ° 0 min 0 W/m² 8,7 °C 12,0 °C 6,4 km/h (2 Bft)
07.11.2022 17:41 22,2 °C 12,0 °C 57 % 80 % 1013,9 hPa 0,0 l/m² 3,7 km/h (1 Bft) S 181 ° 0 min 0 W/m² 8,7 °C 12,0 °C 6,4 km/h (2 Bft)
07.11.2022 17:42 22,1 °C 11,9 °C 57 % 80 % 1013,9 hPa 0,0 l/m² 4,5 km/h (1 Bft) S 181 ° 0 min 0 W/m² 8,6 °C 11,9 °C 6,4 km/h (2 Bft)
07.11.2022 17:43 22,2 °C 11,9 °C 57 % 80 % 1013,9 hPa 0,0 l/m² 4,7 km/h (1 Bft) S 181 ° 0 min 0 W/m² 8,6 °C 11,9 °C 6,4 km/h (2 Bft)
07.11.2022 17:44 22,2 °C 11,9 °C 57 % 80 % 1014,0 hPa 0,0 l/m² 5,3 km/h (1 Bft) S 180 ° 0 min 0 W/m² 8,6 °C 11,9 °C 6,4 km/h (2 Bft)
07.11.2022 17:46 22,1 °C 11,9 °C 57 % 79 % 1014,0 hPa 0,0 l/m² 5,7 km/h (2 Bft) S-SO 161 ° 0 min 0 W/m² 8,4 °C 11,9 °C 8,0 km/h (2 Bft)
07.11.2022 17:48 22,1 °C 11,8 °C 57 % 80 % 1013,9 hPa 0,0 l/m² 7,3 km/h (2 Bft) S 170 ° 0 min 0 W/m² 8,5 °C 11,2 °C 9,7 km/h (2 Bft)
07.11.2022 17:50 22,1 °C 11,7 °C 57 % 80 % 1014,0 hPa 0,0 l/m² 8,7 km/h (2 Bft) S 169 ° 0 min 0 W/m² 8,4 °C 10,2 °C 12,9 km/h (3 Bft)
07.11.2022 17:51 22,2 °C 11,7 °C 57 % 80 % 1014,0 hPa 0,0 l/m² 8,2 km/h (2 Bft) S-SO 165 ° 0 min 0 W/m² 8,4 °C 10,5 °C 9,7 km/h (2 Bft)
07.11.2022 17:52 22,2 °C 11,7 °C 57 % 80 % 1014,0 hPa 0,0 l/m² 8,1 km/h (2 Bft) S 177 ° 0 min 0 W/m² 8,4 °C 10,6 °C 14,5 km/h (3 Bft)
07.11.2022 17:53 22,1 °C 11,7 °C 57 % 80 % 1014,0 hPa 0,0 l/m² 7,6 km/h (2 Bft) S-SO 159 ° 0 min 0 W/m² 8,4 °C 10,9 °C 11,3 km/h (2 Bft)
07.11.2022 17:55 22,2 °C 11,6 °C 58 % 81 % 1014,0 hPa 0,0 l/m² 7,8 km/h (2 Bft) S 169 ° 0 min 0 W/m² 8,5 °C 10,7 °C 11,3 km/h (2 Bft)
07.11.2022 17:57 22,2 °C 11,5 °C 58 % 81 % 1013,9 hPa 0,0 l/m² 5,9 km/h (2 Bft) S-SO 159 ° 0 min 0 W/m² 8,4 °C 11,5 °C 11,3 km/h (2 Bft)
07.11.2022 17:59 22,2 °C 11,5 °C 58 % 81 % 1014,0 hPa 0,0 l/m² 6,4 km/h (2 Bft) S-SO 150 ° 0 min 0 W/m² 8,4 °C 11,5 °C 11,3 km/h (2 Bft)
07.11.2022 18:01 22,2 °C 11,5 °C 58 % 82 % 1014,1 hPa 0,0 l/m² 7,3 km/h (2 Bft) S 169 ° 0 min 0 W/m² 8,5 °C 10,9 °C 12,9 km/h (3 Bft)
07.11.2022 18:02 22,2 °C 11,4 °C 58 % 82 % 1014,1 hPa 0,0 l/m² 7,0 km/h (2 Bft) S-SO 164 ° 0 min 0 W/m² 8,4 °C 11,0 °C 11,3 km/h (2 Bft)
07.11.2022 18:03 22,2 °C 11,4 °C 58 % 82 % 1014,0 hPa 0,0 l/m² 7,8 km/h (2 Bft) S-SO 157 ° 0 min 0 W/m² 8,4 °C 10,5 °C 12,9 km/h (3 Bft)
07.11.2022 18:04 22,2 °C 11,4 °C 58 % 82 % 1014,0 hPa 0,0 l/m² 7,3 km/h (2 Bft) S-SO 149 ° 0 min 0 W/m² 8,4 °C 10,8 °C 9,7 km/h (2 Bft)
07.11.2022 18:06 22,2 °C 11,4 °C 58 % 82 % 1014,2 hPa 0,0 l/m² 7,8 km/h (2 Bft) S 173 ° 0 min 0 W/m² 8,4 °C 10,5 °C 12,9 km/h (3 Bft)
07.11.2022 18:08 22,2 °C 11,4 °C 58 % 82 % 1014,2 hPa 0,0 l/m² 7,0 km/h (2 Bft) S 180 ° 0 min 0 W/m² 8,4 °C 11,0 °C 11,3 km/h (2 Bft)
07.11.2022 18:10 22,2 °C 11,3 °C 58 % 82 % 1014,2 hPa 0,0 l/m² 6,2 km/h (2 Bft) S 174 ° 0 min 0 W/m² 8,3 °C 11,3 °C 9,7 km/h (2 Bft)
07.11.2022 18:11 22,2 °C 11,3 °C 58 % 82 % 1014,2 hPa 0,0 l/m² 7,9 km/h (2 Bft) S 175 ° 0 min 0 W/m² 8,3 °C 10,3 °C 11,3 km/h (2 Bft)
07.11.2022 18:12 22,2 °C 11,3 °C 58 % 82 % 1014,2 hPa 0,0 l/m² 6,2 km/h (2 Bft) S-SO 164 ° 0 min 0 W/m² 8,3 °C 11,3 °C 8,0 km/h (2 Bft)
07.11.2022 18:13 22,2 °C 11,3 °C 58 % 82 % 1014,1 hPa 0,0 l/m² 8,6 km/h (2 Bft) S 170 ° 0 min 0 W/m² 8,3 °C 9,8 °C 11,3 km/h (2 Bft)
07.11.2022 18:15 22,2 °C 11,3 °C 58 % 82 % 1014,1 hPa 0,0 l/m² 6,3 km/h (2 Bft) S-SO 160 ° 0 min 0 W/m² 8,3 °C 11,3 °C 9,7 km/h (2 Bft)
07.11.2022 18:17 22,2 °C 11,3 °C 58 % 82 % 1014,2 hPa 0,0 l/m² 6,9 km/h (2 Bft) S 171 ° 0 min 0 W/m² 8,3 °C 11,0 °C 11,3 km/h (2 Bft)
07.11.2022 18:19 22,2 °C 11,3 °C 58 % 82 % 1014,1 hPa 0,0 l/m² 8,0 km/h (2 Bft) S 171 ° 0 min 0 W/m² 8,3 °C 10,2 °C 12,9 km/h (3 Bft)
07.11.2022 18:20 22,2 °C 11,3 °C 58 % 82 % 1014,2 hPa 0,0 l/m² 7,1 km/h (2 Bft) S 169 ° 0 min 0 W/m² 8,3 °C 10,8 °C 11,3 km/h (2 Bft)
07.11.2022 18:21 22,2 °C 11,2 °C 58 % 82 % 1014,1 hPa 0,0 l/m² 6,7 km/h (2 Bft) S 180 ° 0 min 0 W/m² 8,2 °C 11,0 °C 9,7 km/h (2 Bft)
07.11.2022 18:22 22,2 °C 11,2 °C 58 % 83 % 1014,1 hPa 0,0 l/m² 8,0 km/h (2 Bft) S 171 ° 0 min 0 W/m² 8,4 °C 10,1 °C 11,3 km/h (2 Bft)
07.11.2022 18:24 22,2 °C 11,2 °C 58 % 83 % 1014,1 hPa 0,0 l/m² 7,3 km/h (2 Bft) S 185 ° 0 min 0 W/m² 8,4 °C 10,6 °C 9,7 km/h (2 Bft)
07.11.2022 18:26 22,2 °C 11,2 °C 58 % 83 % 1014,2 hPa 0,0 l/m² 7,8 km/h (2 Bft) S-SW 197 ° 0 min 0 W/m² 8,4 °C 10,2 °C 11,3 km/h (2 Bft)
07.11.2022 18:28 22,2 °C 11,1 °C 58 % 83 % 1014,2 hPa 0,0 l/m² 9,0 km/h (2 Bft) S 176 ° 0 min 0 W/m² 8,3 °C 9,4 °C 14,5 km/h (3 Bft)
07.11.2022 18:29 22,2 °C 11,2 °C 58 % 83 % 1014,1 hPa 0,0 l/m² 10,0 km/h (2 Bft) S 187 ° 0 min 0 W/m² 8,4 °C 8,9 °C 11,3 km/h (2 Bft)
07.11.2022 18:30 22,2 °C 11,1 °C 58 % 83 % 1014,1 hPa 0,0 l/m² 10,6 km/h (2 Bft) S 188 ° 0 min 0 W/m² 8,3 °C 8,5 °C 12,9 km/h (3 Bft)
07.11.2022 18:32 22,2 °C 11,1 °C 58 % 83 % 1014,2 hPa 0,0 l/m² 8,4 km/h (2 Bft) S-SW 197 ° 0 min 0 W/m² 8,3 °C 9,8 °C 12,9 km/h (3 Bft)
07.11.2022 18:34 22,2 °C 11,1 °C 58 % 83 % 1014,2 hPa 0,0 l/m² 9,8 km/h (2 Bft) S 188 ° 0 min 0 W/m² 8,3 °C 8,9 °C 12,9 km/h (3 Bft)
07.11.2022 18:36 22,2 °C 11,1 °C 58 % 83 % 1014,2 hPa 0,0 l/m² 9,2 km/h (2 Bft) S 182 ° 0 min 0 W/m² 8,3 °C 9,3 °C 11,3 km/h (2 Bft)
07.11.2022 18:38 22,2 °C 11,2 °C 58 % 83 % 1014,2 hPa 0,0 l/m² 9,9 km/h (2 Bft) S-SW 198 ° 0 min 0 W/m² 8,4 °C 9,0 °C 14,5 km/h (3 Bft)
07.11.2022 18:40 22,2 °C 11,2 °C 58 % 84 % 1014,2 hPa 0,0 l/m² 10,0 km/h (2 Bft) S 187 ° 0 min 0 W/m² 8,6 °C 8,9 °C 12,9 km/h (3 Bft)
07.11.2022 18:41 22,2 °C 11,2 °C 58 % 84 % 1014,2 hPa 0,0 l/m² 9,6 km/h (2 Bft) S-SW 195 ° 0 min 0 W/m² 8,6 °C 9,1 °C 14,5 km/h (3 Bft)
07.11.2022 18:42 22,2 °C 11,2 °C 58 % 84 % 1014,2 hPa 0,0 l/m² 9,2 km/h (2 Bft) S-SW 192 ° 0 min 0 W/m² 8,6 °C 9,4 °C 12,9 km/h (3 Bft)
07.11.2022 18:43 22,2 °C 11,2 °C 58 % 84 % 1014,2 hPa 0,0 l/m² 9,4 km/h (2 Bft) S-SW 204 ° 0 min 0 W/m² 8,6 °C 9,3 °C 14,5 km/h (3 Bft)
07.11.2022 18:45 22,2 °C 11,3 °C 58 % 83 % 1014,2 hPa 0,0 l/m² 10,4 km/h (2 Bft) S 190 ° 0 min 0 W/m² 8,5 °C 8,8 °C 14,5 km/h (3 Bft)
07.11.2022 18:46 22,2 °C 11,3 °C 58 % 83 % 1014,2 hPa 0,0 l/m² 10,6 km/h (2 Bft) S 190 ° 0 min 0 W/m² 8,5 °C 8,7 °C 12,9 km/h (3 Bft)
07.11.2022 18:48 22,2 °C 11,4 °C 58 % 83 % 1014,2 hPa 0,0 l/m² 9,9 km/h (2 Bft) S 186 ° 0 min 0 W/m² 8,6 °C 9,2 °C 12,9 km/h (3 Bft)
07.11.2022 18:50 22,2 °C 11,4 °C 58 % 83 % 1014,2 hPa 0,0 l/m² 11,1 km/h (2 Bft) S 186 ° 0 min 0 W/m² 8,6 °C 8,6 °C 16,1 km/h (3 Bft)
07.11.2022 18:51 22,2 °C 11,4 °C 58 % 83 % 1014,2 hPa 0,0 l/m² 10,0 km/h (2 Bft) S 188 ° 0 min 0 W/m² 8,6 °C 9,1 °C 14,5 km/h (3 Bft)
07.11.2022 18:52 22,2 °C 11,4 °C 58 % 83 % 1014,2 hPa 0,0 l/m² 12,7 km/h (3 Bft) S-SW 196 ° 0 min 0 W/m² 8,6 °C 7,8 °C 17,7 km/h (3 Bft)
07.11.2022 18:53 22,2 °C 11,5 °C 58 % 83 % 1014,3 hPa 0,0 l/m² 12,1 km/h (2 Bft) S-SW 192 ° 0 min 0 W/m² 8,7 °C 8,2 °C 14,5 km/h (3 Bft)
07.11.2022 18:55 22,2 °C 11,6 °C 58 % 83 % 1014,2 hPa 0,0 l/m² 12,8 km/h (3 Bft) S 187 ° 0 min 0 W/m² 8,8 °C 8,0 °C 19,3 km/h (3 Bft)
07.11.2022 18:57 22,2 °C 11,6 °C 58 % 83 % 1014,2 hPa 0,0 l/m² 10,7 km/h (2 Bft) S 184 ° 0 min 0 W/m² 8,8 °C 9,0 °C 17,7 km/h (3 Bft)
07.11.2022 18:59 22,2 °C 11,6 °C 58 % 82 % 1014,2 hPa 0,0 l/m² 9,6 km/h (2 Bft) S 184 ° 0 min 0 W/m² 8,6 °C 9,6 °C 14,5 km/h (3 Bft)
07.11.2022 19:00 22,2 °C 11,6 °C 58 % 82 % 1014,1 hPa 0,0 l/m² 12,2 km/h (2 Bft) S 180 ° 0 min 0 W/m² 8,6 °C 8,3 °C 17,7 km/h (3 Bft)
07.11.2022 19:01 22,2 °C 11,7 °C 58 % 82 % 1014,1 hPa 0,0 l/m² 10,9 km/h (2 Bft) S 178 ° 0 min 0 W/m² 8,7 °C 9,0 °C 12,9 km/h (3 Bft)
07.11.2022 19:02 22,2 °C 11,7 °C 58 % 82 % 1014,1 hPa 0,0 l/m² 9,8 km/h (2 Bft) S 182 ° 0 min 0 W/m² 8,7 °C 9,6 °C 14,5 km/h (3 Bft)
07.11.2022 19:04 22,2 °C 11,7 °C 58 % 82 % 1014,1 hPa 0,0 l/m² 9,4 km/h (2 Bft) S 169 ° 0 min 0 W/m² 8,7 °C 9,8 °C 16,1 km/h (3 Bft)
07.11.2022 19:06 22,2 °C 11,7 °C 58 % 82 % 1014,2 hPa 0,0 l/m² 8,6 km/h (2 Bft) S 171 ° 0 min 0 W/m² 8,7 °C 10,3 °C 14,5 km/h (3 Bft)
07.11.2022 19:08 22,2 °C 11,6 °C 58 % 82 % 1014,2 hPa 0,0 l/m² 8,0 km/h (2 Bft) S 170 ° 0 min 0 W/m² 8,6 °C 10,5 °C 12,9 km/h (3 Bft)
07.11.2022 19:10 22,2 °C 11,6 °C 58 % 82 % 1014,2 hPa 0,0 l/m² 9,3 km/h (2 Bft) S 178 ° 0 min 0 W/m² 8,6 °C 9,8 °C 12,9 km/h (3 Bft)
07.11.2022 19:11 22,2 °C 11,6 °C 58 % 82 % 1014,2 hPa 0,0 l/m² 5,8 km/h (2 Bft) S 179 ° 0 min 0 W/m² 8,6 °C 11,6 °C 8,0 km/h (2 Bft)
07.11.2022 19:12 22,2 °C 11,6 °C 58 % 81 % 1014,2 hPa 0,0 l/m² 8,9 km/h (2 Bft) S 175 ° 0 min 0 W/m² 8,5 °C 10,0 °C 14,5 km/h (3 Bft)
07.11.2022 19:13 22,2 °C 11,6 °C 58 % 81 % 1014,3 hPa 0,0 l/m² 7,4 km/h (2 Bft) S 174 ° 0 min 0 W/m² 8,5 °C 10,9 °C 9,7 km/h (2 Bft)
07.11.2022 19:15 22,2 °C 11,6 °C 58 % 81 % 1014,2 hPa 0,0 l/m² 7,0 km/h (2 Bft) S-SW 194 ° 0 min 0 W/m² 8,5 °C 11,2 °C 9,7 km/h (2 Bft)
07.11.2022 19:17 22,2 °C 11,6 °C 58 % 81 % 1014,2 hPa 0,0 l/m² 7,0 km/h (2 Bft) S 175 ° 0 min 0 W/m² 8,5 °C 11,2 °C 9,7 km/h (2 Bft)
07.11.2022 19:19 22,2 °C 11,5 °C 58 % 81 % 1014,2 hPa 0,0 l/m² 8,0 km/h (2 Bft) S 187 ° 0 min 0 W/m² 8,4 °C 10,4 °C 11,3 km/h (2 Bft)
07.11.2022 19:20 22,2 °C 11,5 °C 58 % 81 % 1014,3 hPa 0,0 l/m² 7,0 km/h (2 Bft) S 180 ° 0 min 0 W/m² 8,4 °C 11,1 °C 9,7 km/h (2 Bft)
07.11.2022 19:21 22,2 °C 11,5 °C 58 % 81 % 1014,3 hPa 0,0 l/m² 7,7 km/h (2 Bft) S 178 ° 0 min 0 W/m² 8,4 °C 10,6 °C 11,3 km/h (2 Bft)
07.11.2022 19:22 22,2 °C 11,5 °C 58 % 81 % 1014,2 hPa 0,0 l/m² 6,8 km/h (2 Bft) S 180 ° 0 min 0 W/m² 8,4 °C 11,2 °C 8,0 km/h (2 Bft)
07.11.2022 19:24 22,2 °C 11,4 °C 58 % 81 % 1014,2 hPa 0,0 l/m² 6,6 km/h (2 Bft) S 185 ° 0 min 0 W/m² 8,3 °C 11,3 °C 9,7 km/h (2 Bft)
07.11.2022 19:26 22,1 °C 11,4 °C 58 % 81 % 1014,3 hPa 0,0 l/m² 6,3 km/h (2 Bft) S 185 ° 0 min 0 W/m² 8,3 °C 11,4 °C 8,0 km/h (2 Bft)
07.11.2022 19:28 22,1 °C 11,3 °C 58 % 81 % 1014,2 hPa 0,0 l/m² 6,4 km/h (2 Bft) S 186 ° 0 min 0 W/m² 8,2 °C 11,3 °C 8,0 km/h (2 Bft)
07.11.2022 19:30 22,1 °C 11,3 °C 58 % 81 % 1014,3 hPa 0,0 l/m² 5,9 km/h (2 Bft) S 182 ° 0 min 0 W/m² 8,2 °C 11,3 °C 9,7 km/h (2 Bft)
07.11.2022 19:31 22,1 °C 11,3 °C 58 % 81 % 1014,3 hPa 0,0 l/m² 5,9 km/h (2 Bft) S 185 ° 0 min 0 W/m² 8,2 °C 11,3 °C 8,0 km/h (2 Bft)
07.11.2022 19:32 22,1 °C 11,3 °C 58 % 81 % 1014,3 hPa 0,0 l/m² 6,1 km/h (2 Bft) S 188 ° 0 min 0 W/m² 8,2 °C 11,3 °C 6,4 km/h (2 Bft)
07.11.2022 19:33 22,1 °C 11,2 °C 58 % 81 % 1014,3 hPa 0,0 l/m² 6,6 km/h (2 Bft) S 186 ° 0 min 0 W/m² 8,1 °C 11,1 °C 8,0 km/h (2 Bft)
07.11.2022 19:35 22,1 °C 11,2 °C 58 % 81 % 1014,3 hPa 0,0 l/m² 5,9 km/h (2 Bft) S 187 ° 0 min 0 W/m² 8,1 °C 11,2 °C 8,0 km/h (2 Bft)
07.11.2022 19:37 22,1 °C 11,1 °C 58 % 81 % 1014,3 hPa 0,0 l/m² 5,6 km/h (2 Bft) S 190 ° 0 min 0 W/m² 8,0 °C 11,1 °C 8,0 km/h (2 Bft)
07.11.2022 19:39 22,1 °C 11,1 °C 58 % 81 % 1014,4 hPa 0,0 l/m² 5,8 km/h (2 Bft) S 191 ° 0 min 0 W/m² 8,0 °C 11,1 °C 9,7 km/h (2 Bft)
07.11.2022 19:40 22,1 °C 11,0 °C 58 % 82 % 1014,3 hPa 0,0 l/m² 5,7 km/h (2 Bft) S-SW 192 ° 0 min 0 W/m² 8,0 °C 11,0 °C 8,0 km/h (2 Bft)
07.11.2022 19:41 22,1 °C 11,1 °C 58 % 82 % 1014,3 hPa 0,0 l/m² 4,5 km/h (1 Bft) S-SW 192 ° 0 min 0 W/m² 8,1 °C 11,1 °C 6,4 km/h (2 Bft)
07.11.2022 19:42 22,1 °C 11,0 °C 58 % 82 % 1014,4 hPa 0,0 l/m² 5,7 km/h (2 Bft) S 190 ° 0 min 0 W/m² 8,0 °C 11,0 °C 8,0 km/h (2 Bft)
07.11.2022 19:44 22,2 °C 10,9 °C 58 % 82 % 1014,4 hPa 0,0 l/m² 4,8 km/h (1 Bft) S 190 ° 0 min 0 W/m² 7,9 °C 10,9 °C 6,4 km/h (2 Bft)
07.11.2022 19:46 22,1 °C 10,9 °C 58 % 82 % 1014,5 hPa 0,0 l/m² 4,0 km/h (1 Bft) S 190 ° 0 min 0 W/m² 7,9 °C 10,9 °C 6,4 km/h (2 Bft)
07.11.2022 19:48 22,1 °C 10,8 °C 58 % 82 % 1014,5 hPa 0,0 l/m² 3,4 km/h (1 Bft) S 190 ° 0 min 0 W/m² 7,9 °C 10,8 °C 4,8 km/h (1 Bft)
07.11.2022 19:50 22,1 °C 10,8 °C 58 % 82 % 1014,5 hPa 0,0 l/m² 4,3 km/h (1 Bft) S 190 ° 0 min 0 W/m² 7,9 °C 10,8 °C 4,8 km/h (1 Bft)
07.11.2022 19:51 22,1 °C 10,8 °C 58 % 82 % 1014,4 hPa 0,0 l/m² 4,2 km/h (1 Bft) S 190 ° 0 min 0 W/m² 7,9 °C 10,8 °C 6,4 km/h (2 Bft)
07.11.2022 19:52 22,1 °C 10,7 °C 58 % 82 % 1014,4 hPa 0,0 l/m² 3,9 km/h (1 Bft) S 190 ° 0 min 0 W/m² 7,8 °C 10,7 °C 4,8 km/h (1 Bft)
07.11.2022 19:53 22,2 °C 10,7 °C 58 % 82 % 1014,5 hPa 0,0 l/m² 2,8 km/h (1 Bft) S 190 ° 0 min 0 W/m² 7,8 °C 10,7 °C 4,8 km/h (1 Bft)
07.11.2022 19:55 22,1 °C 10,7 °C 58 % 82 % 1014,5 hPa 0,0 l/m² 3,1 km/h (1 Bft) S 190 ° 0 min 0 W/m² 7,8 °C 10,7 °C 4,8 km/h (1 Bft)
07.11.2022 19:57 22,1 °C 10,6 °C 58 % 82 % 1014,6 hPa 0,0 l/m² 2,8 km/h (1 Bft) S 190 ° 0 min 0 W/m² 7,7 °C 10,6 °C 4,8 km/h (1 Bft)
07.11.2022 19:59 22,1 °C 10,6 °C 58 % 82 % 1014,5 hPa 0,0 l/m² 2,9 km/h (1 Bft) S 190 ° 0 min 0 W/m² 7,7 °C 10,6 °C 6,4 km/h (2 Bft)
07.11.2022 20:00 22,1 °C 10,6 °C 58 % 82 % 1014,5 hPa 0,0 l/m² 1,3 km/h (1 Bft) S 190 ° 0 min 0 W/m² 7,7 °C 10,6 °C 3,2 km/h (1 Bft)
07.11.2022 20:01 22,1 °C 10,6 °C 58 % 82 % 1014,5 hPa 0,0 l/m² 2,8 km/h (1 Bft) S 190 ° 0 min 0 W/m² 7,7 °C 10,6 °C 4,8 km/h (1 Bft)
07.11.2022 20:02 22,1 °C 10,5 °C 58 % 82 % 1014,5 hPa 0,0 l/m² 3,7 km/h (1 Bft) S 190 ° 0 min 0 W/m² 7,6 °C 10,5 °C 4,8 km/h (1 Bft)
07.11.2022 20:04 22,1 °C 10,4 °C 58 % 82 % 1014,6 hPa 0,0 l/m² 3,6 km/h (1 Bft) S 190 ° 0 min 0 W/m² 7,5 °C 10,4 °C 4,8 km/h (1 Bft)
07.11.2022 20:06 22,1 °C 10,4 °C 58 % 82 % 1014,5 hPa 0,0 l/m² 5,8 km/h (2 Bft) S 185 ° 0 min 0 W/m² 7,5 °C 10,4 °C 8,0 km/h (2 Bft)
07.11.2022 20:08 22,1 °C 10,3 °C 58 % 83 % 1014,5 hPa 0,0 l/m² 4,6 km/h (1 Bft) S 185 ° 0 min 0 W/m² 7,5 °C 10,3 °C 6,4 km/h (2 Bft)
07.11.2022 20:10 22,1 °C 10,2 °C 58 % 83 % 1014,6 hPa 0,0 l/m² 4,9 km/h (1 Bft) S 178 ° 0 min 0 W/m² 7,4 °C 10,2 °C 8,0 km/h (2 Bft)
07.11.2022 20:11 22,1 °C 10,2 °C 58 % 83 % 1014,6 hPa 0,0 l/m² 6,1 km/h (2 Bft) S 171 ° 0 min 0 W/m² 7,4 °C 10,2 °C 9,7 km/h (2 Bft)
07.11.2022 20:12 22,1 °C 10,2 °C 58 % 83 % 1014,6 hPa 0,0 l/m² 8,3 km/h (2 Bft) S-SO 164 ° 0 min 0 W/m² 7,4 °C 8,9 °C 9,7 km/h (2 Bft)
07.11.2022 20:13 22,1 °C 10,2 °C 58 % 83 % 1014,5 hPa 0,0 l/m² 8,9 km/h (2 Bft) S-SO 163 ° 0 min 0 W/m² 7,4 °C 8,5 °C 11,3 km/h (2 Bft)
07.11.2022 20:15 22,1 °C 10,1 °C 58 % 83 % 1014,5 hPa 0,0 l/m² 8,8 km/h (2 Bft) S-SO 167 ° 0 min 0 W/m² 7,3 °C 8,4 °C 11,3 km/h (2 Bft)
07.11.2022 20:17 22,1 °C 10,0 °C 58 % 84 % 1014,4 hPa 0,0 l/m² 8,6 km/h (2 Bft) S-SO 160 ° 0 min 0 W/m² 7,4 °C 8,5 °C 11,3 km/h (2 Bft)
07.11.2022 20:19 22,1 °C 9,9 °C 58 % 84 % 1014,5 hPa 0,0 l/m² 9,8 km/h (2 Bft) S-SO 160 ° 0 min 0 W/m² 7,3 °C 7,6 °C 12,9 km/h (3 Bft)
07.11.2022 20:20 22,1 °C 9,8 °C 58 % 84 % 1014,6 hPa 0,0 l/m² 11,3 km/h (2 Bft) S-SO 159 ° 0 min 0 W/m² 7,2 °C 6,6 °C 14,5 km/h (3 Bft)
07.11.2022 20:21 22,1 °C 9,8 °C 58 % 85 % 1014,6 hPa 0,0 l/m² 11,6 km/h (2 Bft) S 170 ° 0 min 0 W/m² 7,4 °C 6,5 °C 14,5 km/h (3 Bft)
07.11.2022 20:22 22,1 °C 9,8 °C 58 % 85 % 1014,6 hPa 0,0 l/m² 10,8 km/h (2 Bft) S-SO 164 ° 0 min 0 W/m² 7,4 °C 6,9 °C 14,5 km/h (3 Bft)
07.11.2022 20:24 22,1 °C 9,8 °C 58 % 85 % 1014,7 hPa 0,0 l/m² 9,9 km/h (2 Bft) S 176 ° 0 min 0 W/m² 7,4 °C 7,4 °C 16,1 km/h (3 Bft)
07.11.2022 20:26 22,1 °C 9,7 °C 58 % 85 % 1014,6 hPa 0,0 l/m² 9,9 km/h (2 Bft) S-SO 150 ° 0 min 0 W/m² 7,3 °C 7,3 °C 12,9 km/h (3 Bft)
07.11.2022 20:28 22,2 °C 9,7 °C 58 % 86 % 1014,7 hPa 0,0 l/m² 11,3 km/h (2 Bft) S-SO 164 ° 0 min 0 W/m² 7,5 °C 6,5 °C 14,5 km/h (3 Bft)
07.11.2022 20:30 22,2 °C 9,7 °C 59 % 86 % 1014,7 hPa 0,0 l/m² 11,0 km/h (2 Bft) S-SO 161 ° 0 min 0 W/m² 7,5 °C 6,7 °C 16,1 km/h (3 Bft)
07.11.2022 20:31 22,2 °C 9,7 °C 59 % 86 % 1014,6 hPa 0,0 l/m² 8,5 km/h (2 Bft) S-SO 158 ° 0 min 0 W/m² 7,5 °C 8,2 °C 11,3 km/h (2 Bft)
07.11.2022 20:32 22,2 °C 9,8 °C 59 % 86 % 1014,6 hPa 0,0 l/m² 9,9 km/h (2 Bft) S-SO 159 ° 0 min 0 W/m² 7,6 °C 7,4 °C 14,5 km/h (3 Bft)
07.11.2022 20:33 22,2 °C 9,8 °C 59 % 86 % 1014,8 hPa 0,0 l/m² 11,6 km/h (2 Bft) S-SO 163 ° 0 min 0 W/m² 7,6 °C 6,5 °C 14,5 km/h (3 Bft)
07.11.2022 20:35 22,2 °C 9,8 °C 59 % 86 % 1014,6 hPa 0,0 l/m² 9,3 km/h (2 Bft) S-SO 154 ° 0 min 0 W/m² 7,6 °C 7,8 °C 16,1 km/h (3 Bft)
07.11.2022 20:37 22,3 °C 9,8 °C 59 % 86 % 1014,7 hPa 0,0 l/m² 7,6 km/h (2 Bft) S-SO 156 ° 0 min 0 W/m² 7,6 °C 8,9 °C 11,3 km/h (2 Bft)
07.11.2022 20:39 22,3 °C 9,8 °C 59 % 86 % 1014,7 hPa 0,0 l/m² 6,7 km/h (2 Bft) S-SO 150 ° 0 min 0 W/m² 7,6 °C 9,6 °C 9,7 km/h (2 Bft)
07.11.2022 20:40 22,3 °C 9,8 °C 59 % 86 % 1014,8 hPa 0,0 l/m² 8,5 km/h (2 Bft) S-SO 168 ° 0 min 0 W/m² 7,6 °C 8,3 °C 12,9 km/h (3 Bft)
07.11.2022 20:41 22,3 °C 9,8 °C 59 % 86 % 1014,8 hPa 0,0 l/m² 10,1 km/h (2 Bft) S 169 ° 0 min 0 W/m² 7,6 °C 7,3 °C 12,9 km/h (3 Bft)
07.11.2022 20:42 22,3 °C 9,7 °C 59 % 86 % 1014,8 hPa 0,0 l/m² 10,9 km/h (2 Bft) S-SO 162 ° 0 min 0 W/m² 7,5 °C 6,8 °C 12,9 km/h (3 Bft)
07.11.2022 20:44 22,3 °C 9,7 °C 59 % 86 % 1014,7 hPa 0,0 l/m² 10,0 km/h (2 Bft) S 170 ° 0 min 0 W/m² 7,5 °C 7,3 °C 14,5 km/h (3 Bft)
07.11.2022 20:46 22,3 °C 9,7 °C 59 % 86 % 1014,7 hPa 0,0 l/m² 9,9 km/h (2 Bft) S-SO 167 ° 0 min 0 W/m² 7,5 °C 7,3 °C 14,5 km/h (3 Bft)
07.11.2022 20:48 22,3 °C 9,7 °C 59 % 86 % 1014,7 hPa 0,0 l/m² 8,2 km/h (2 Bft) S 175 ° 0 min 0 W/m² 7,5 °C 8,4 °C 11,3 km/h (2 Bft)
07.11.2022 20:50 22,3 °C 9,7 °C 59 % 86 % 1014,7 hPa 0,0 l/m² 6,7 km/h (2 Bft) S 173 ° 0 min 0 W/m² 7,5 °C 9,5 °C 9,7 km/h (2 Bft)
07.11.2022 20:51 22,3 °C 9,6 °C 59 % 86 % 1014,7 hPa 0,0 l/m² 7,7 km/h (2 Bft) S-SO 160 ° 0 min 0 W/m² 7,4 °C 8,6 °C 11,3 km/h (2 Bft)
07.11.2022 20:52 22,3 °C 9,7 °C 59 % 86 % 1014,7 hPa 0,0 l/m² 7,4 km/h (2 Bft) S 181 ° 0 min 0 W/m² 7,5 °C 9,0 °C 11,3 km/h (2 Bft)
07.11.2022 20:53 22,3 °C 9,6 °C 59 % 86 % 1014,7 hPa 0,0 l/m² 8,9 km/h (2 Bft) S 187 ° 0 min 0 W/m² 7,4 °C 7,8 °C 12,9 km/h (3 Bft)
07.11.2022 20:55 22,4 °C 9,6 °C 59 % 86 % 1014,7 hPa 0,0 l/m² 6,9 km/h (2 Bft) S 175 ° 0 min 0 W/m² 7,4 °C 9,2 °C 11,3 km/h (2 Bft)
07.11.2022 20:57 22,4 °C 9,6 °C 59 % 86 % 1014,7 hPa 0,0 l/m² 5,1 km/h (1 Bft) S-SO 164 ° 0 min 0 W/m² 7,4 °C 9,6 °C 8,0 km/h (2 Bft)
07.11.2022 20:59 22,4 °C 9,6 °C 59 % 86 % 1014,8 hPa 0,0 l/m² 5,3 km/h (1 Bft) S 182 ° 0 min 0 W/m² 7,4 °C 9,6 °C 8,0 km/h (2 Bft)
07.11.2022 21:00 22,4 °C 9,6 °C 59 % 86 % 1014,8 hPa 0,0 l/m² 6,9 km/h (2 Bft) S-SO 168 ° 0 min 0 W/m² 7,4 °C 9,2 °C 9,7 km/h (2 Bft)
07.11.2022 21:01 22,4 °C 9,6 °C 59 % 86 % 1014,8 hPa 0,0 l/m² 8,3 km/h (2 Bft) S 172 ° 0 min 0 W/m² 7,4 °C 8,2 °C 9,7 km/h (2 Bft)
07.11.2022 21:02 22,4 °C 9,6 °C 59 % 86 % 1014,8 hPa 0,0 l/m² 6,9 km/h (2 Bft) S 174 ° 0 min 0 W/m² 7,4 °C 9,2 °C 8,0 km/h (2 Bft)
07.11.2022 21:04 22,4 °C 9,6 °C 59 % 87 % 1014,8 hPa 0,0 l/m² 6,9 km/h (2 Bft) S-SO 167 ° 0 min 0 W/m² 7,5 °C 9,2 °C 9,7 km/h (2 Bft)
07.11.2022 21:06 22,4 °C 9,6 °C 59 % 87 % 1014,7 hPa 0,0 l/m² 7,5 km/h (2 Bft) S 172 ° 0 min 0 W/m² 7,5 °C 8,8 °C 11,3 km/h (2 Bft)
07.11.2022 21:08 22,4 °C 9,6 °C 59 % 87 % 1014,7 hPa 0,0 l/m² 7,5 km/h (2 Bft) S-SO 162 ° 0 min 0 W/m² 7,5 °C 8,8 °C 9,7 km/h (2 Bft)
07.11.2022 21:10 22,4 °C 9,6 °C 59 % 87 % 1014,7 hPa 0,0 l/m² 7,9 km/h (2 Bft) S-SO 159 ° 0 min 0 W/m² 7,5 °C 8,5 °C 11,3 km/h (2 Bft)
07.11.2022 21:11 22,4 °C 9,6 °C 59 % 87 % 1014,7 hPa 0,0 l/m² 6,4 km/h (2 Bft) SO 144 ° 0 min 0 W/m² 7,5 °C 9,6 °C 9,7 km/h (2 Bft)
07.11.2022 21:12 22,4 °C 9,6 °C 59 % 87 % 1014,7 hPa 0,0 l/m² 3,1 km/h (1 Bft) S-SO 164 ° 0 min 0 W/m² 7,5 °C 9,6 °C 6,4 km/h (2 Bft)
07.11.2022 21:13 22,4 °C 9,6 °C 59 % 87 % 1014,8 hPa 0,0 l/m² 6,8 km/h (2 Bft) S 169 ° 0 min 0 W/m² 7,5 °C 9,3 °C 9,7 km/h (2 Bft)
07.11.2022 21:15 22,4 °C 9,7 °C 59 % 87 % 1014,8 hPa 0,0 l/m² 6,1 km/h (2 Bft) S-SO 165 ° 0 min 0 W/m² 7,6 °C 9,7 °C 9,7 km/h (2 Bft)
07.11.2022 21:17 22,4 °C 9,6 °C 59 % 87 % 1014,7 hPa 0,0 l/m² 6,7 km/h (2 Bft) S-SO 148 ° 0 min 0 W/m² 7,5 °C 9,4 °C 8,0 km/h (2 Bft)
07.11.2022 21:19 22,4 °C 9,6 °C 59 % 87 % 1014,7 hPa 0,0 l/m² 6,4 km/h (2 Bft) S-SO 163 ° 0 min 0 W/m² 7,5 °C 9,6 °C 8,0 km/h (2 Bft)
07.11.2022 21:20 22,4 °C 9,6 °C 58 % 87 % 1014,8 hPa 0,0 l/m² 6,6 km/h (2 Bft) S-SO 155 ° 0 min 0 W/m² 7,5 °C 9,5 °C 9,7 km/h (2 Bft)
07.11.2022 21:21 22,4 °C 9,7 °C 58 % 87 % 1014,8 hPa 0,0 l/m² 5,4 km/h (2 Bft) S-SO 147 ° 0 min 0 W/m² 7,6 °C 9,7 °C 6,4 km/h (2 Bft)
07.11.2022 21:22 22,5 °C 9,7 °C 58 % 87 % 1014,7 hPa 0,0 l/m² 6,0 km/h (2 Bft) S-SO 150 ° 0 min 0 W/m² 7,6 °C 9,7 °C 8,0 km/h (2 Bft)
07.11.2022 21:24 22,5 °C 9,7 °C 58 % 87 % 1014,7 hPa 0,0 l/m² 6,4 km/h (2 Bft) S-SO 152 ° 0 min 0 W/m² 7,6 °C 9,7 °C 9,7 km/h (2 Bft)
07.11.2022 21:26 22,5 °C 9,7 °C 58 % 87 % 1014,8 hPa 0,0 l/m² 4,6 km/h (1 Bft) S-SO 147 ° 0 min 0 W/m² 7,6 °C 9,7 °C 8,0 km/h (2 Bft)
07.11.2022 21:28 22,5 °C 9,7 °C 58 % 87 % 1014,7 hPa 0,0 l/m² 4,5 km/h (1 Bft) S-SO 150 ° 0 min 0 W/m² 7,6 °C 9,7 °C 6,4 km/h (2 Bft)
07.11.2022 21:30 22,5 °C 9,7 °C 58 % 87 % 1014,7 hPa 0,0 l/m² 4,4 km/h (1 Bft) S-SO 147 ° 0 min 0 W/m² 7,6 °C 9,7 °C 8,0 km/h (2 Bft)
07.11.2022 21:31 22,4 °C 9,8 °C 58 % 87 % 1014,8 hPa 0,0 l/m² 3,6 km/h (1 Bft) S-SO 151 ° 0 min 0 W/m² 7,7 °C 9,8 °C 4,8 km/h (1 Bft)
07.11.2022 21:32 22,4 °C 9,8 °C 58 % 87 % 1014,8 hPa 0,0 l/m² 2,8 km/h (1 Bft) S-SO 155 ° 0 min 0 W/m² 7,7 °C 9,8 °C 4,8 km/h (1 Bft)
07.11.2022 21:33 22,5 °C 9,8 °C 58 % 87 % 1014,8 hPa 0,0 l/m² 2,1 km/h (1 Bft) S-SO 154 ° 0 min 0 W/m² 7,7 °C 9,8 °C 4,8 km/h (1 Bft)
07.11.2022 21:35 22,5 °C 9,8 °C 58 % 87 % 1014,8 hPa 0,0 l/m² 2,9 km/h (1 Bft) SO 136 ° 0 min 0 W/m² 7,7 °C 9,8 °C 4,8 km/h (1 Bft)
07.11.2022 21:37 22,5 °C 9,8 °C 58 % 87 % 1014,8 hPa 0,0 l/m² 3,6 km/h (1 Bft) SO 140 ° 0 min 0 W/m² 7,7 °C 9,8 °C 6,4 km/h (2 Bft)
07.11.2022 21:39 22,5 °C 9,8 °C 58 % 87 % 1014,8 hPa 0,0 l/m² 2,5 km/h (1 Bft) S-SO 155 ° 0 min 0 W/m² 7,7 °C 9,8 °C 6,4 km/h (2 Bft)
07.11.2022 21:40 22,5 °C 9,8 °C 58 % 87 % 1014,8 hPa 0,0 l/m² 3,3 km/h (1 Bft) S-SO 155 ° 0 min 0 W/m² 7,7 °C 9,8 °C 6,4 km/h (2 Bft)
07.11.2022 21:41 22,5 °C 9,8 °C 58 % 87 % 1014,8 hPa 0,0 l/m² 2,2 km/h (1 Bft) S-SO 155 ° 0 min 0 W/m² 7,7 °C 9,8 °C 4,8 km/h (1 Bft)
07.11.2022 21:42 22,5 °C 9,9 °C 58 % 87 % 1014,8 hPa 0,0 l/m² 2,5 km/h (1 Bft) S-SO 155 ° 0 min 0 W/m² 7,8 °C 9,9 °C 4,8 km/h (1 Bft)
07.11.2022 21:44 22,4 °C 9,9 °C 58 % 87 % 1014,8 hPa 0,0 l/m² 1,8 km/h (1 Bft) S-SO 159 ° 0 min 0 W/m² 7,8 °C 9,9 °C 6,4 km/h (2 Bft)
07.11.2022 21:47 22,4 °C 9,9 °C 58 % 87 % 1014,9 hPa 0,0 l/m² 2,1 km/h (1 Bft) S 189 ° 0 min 0 W/m² 7,8 °C 9,9 °C 6,4 km/h (2 Bft)
07.11.2022 21:49 22,4 °C 9,9 °C 59 % 87 % 1014,9 hPa 0,0 l/m² 2,6 km/h (1 Bft) S 188 ° 0 min 0 W/m² 7,8 °C 9,9 °C 4,8 km/h (1 Bft)
07.11.2022 21:50 22,5 °C 9,9 °C 59 % 87 % 1015,0 hPa 0,0 l/m² 0,2 km/h (0 Bft) S 188 ° 0 min 0 W/m² 7,8 °C 9,9 °C 1,6 km/h (1 Bft)
07.11.2022 21:51 22,5 °C 10,0 °C 59 % 87 % 1015,0 hPa 0,0 l/m² 0,1 km/h (0 Bft) S 189 ° 0 min 0 W/m² 7,9 °C 10,0 °C 1,6 km/h (1 Bft)
07.11.2022 21:52 22,5 °C 10,0 °C 59 % 87 % 1014,9 hPa 0,0 l/m² 0,8 km/h (0 Bft) S 189 ° 0 min 0 W/m² 7,9 °C 10,0 °C 1,6 km/h (1 Bft)
07.11.2022 21:54 22,5 °C 10,1 °C 59 % 87 % 1014,9 hPa 0,0 l/m² 0,3 km/h (0 Bft) S 188 ° 0 min 0 W/m² 8,0 °C 10,1 °C 3,2 km/h (1 Bft)
07.11.2022 21:56 22,4 °C 10,1 °C 59 % 87 % 1014,9 hPa 0,0 l/m² 0,2 km/h (0 Bft) S 189 ° 0 min 0 W/m² 8,0 °C 10,1 °C 1,6 km/h (1 Bft)
07.11.2022 21:58 22,4 °C 10,1 °C 59 % 87 % 1015,0 hPa 0,0 l/m² 0,0 km/h (0 Bft) S 189 ° 0 min 0 W/m² 8,0 °C 10,1 °C 0,0 km/h (0 Bft)
07.11.2022 22:00 22,4 °C 10,1 °C 59 % 86 % 1015,0 hPa 0,0 l/m² 0,5 km/h (0 Bft) S 188 ° 0 min 0 W/m² 7,9 °C 10,1 °C 3,2 km/h (1 Bft)
07.11.2022 22:01 22,4 °C 10,1 °C 59 % 86 % 1015,1 hPa 0,0 l/m² 0,3 km/h (0 Bft) S 188 ° 0 min 0 W/m² 7,9 °C 10,1 °C 1,6 km/h (1 Bft)
07.11.2022 22:02 22,4 °C 10,1 °C 59 % 86 % 1015,1 hPa 0,0 l/m² 0,0 km/h (0 Bft) S 188 ° 0 min 0 W/m² 7,9 °C 10,1 °C 0,0 km/h (0 Bft)
07.11.2022 22:03 22,4 °C 10,1 °C 59 % 86 % 1015,0 hPa 0,0 l/m² 0,0 km/h (0 Bft) S 188 ° 0 min 0 W/m² 7,9 °C 10,1 °C 0,0 km/h (0 Bft)
07.11.2022 22:05 22,4 °C 10,1 °C 59 % 86 % 1015,0 hPa 0,0 l/m² 0,0 km/h (0 Bft) S 189 ° 0 min 0 W/m² 7,9 °C 10,1 °C 1,6 km/h (1 Bft)
07.11.2022 22:07 22,4 °C 10,1 °C 59 % 86 % 1015,0 hPa 0,0 l/m² 0,0 km/h (0 Bft) S 188 ° 0 min 0 W/m² 7,9 °C 10,1 °C 1,6 km/h (1 Bft)
07.11.2022 22:09 22,3 °C 10,0 °C 59 % 86 % 1015,0 hPa 0,0 l/m² 1,0 km/h (0 Bft) S 188 ° 0 min 0 W/m² 7,8 °C 10,0 °C 3,2 km/h (1 Bft)
07.11.2022 22:10 22,4 °C 10,0 °C 59 % 86 % 1015,1 hPa 0,0 l/m² 1,5 km/h (1 Bft) O-SO 117 ° 0 min 0 W/m² 7,8 °C 10,0 °C 4,8 km/h (1 Bft)
07.11.2022 22:11 22,4 °C 10,0 °C 59 % 86 % 1015,1 hPa 0,0 l/m² 0,1 km/h (0 Bft) O-SO 117 ° 0 min 0 W/m² 7,8 °C 10,0 °C 1,6 km/h (1 Bft)
07.11.2022 22:12 22,3 °C 10,0 °C 59 % 86 % 1015,1 hPa 0,0 l/m² 2,0 km/h (1 Bft) O 94 ° 0 min 0 W/m² 7,8 °C 10,0 °C 4,8 km/h (1 Bft)
07.11.2022 22:14 22,3 °C 9,9 °C 59 % 86 % 1015,1 hPa 0,0 l/m² 0,6 km/h (0 Bft) O 94 ° 0 min 0 W/m² 7,7 °C 9,9 °C 3,2 km/h (1 Bft)
07.11.2022 22:16 22,3 °C 9,9 °C 59 % 86 % 1015,1 hPa 0,0 l/m² 0,9 km/h (0 Bft) O 90 ° 0 min 0 W/m² 7,7 °C 9,9 °C 3,2 km/h (1 Bft)
07.11.2022 22:18 22,3 °C 9,9 °C 59 % 86 % 1015,1 hPa 0,0 l/m² 0,4 km/h (0 Bft) O 90 ° 0 min 0 W/m² 7,7 °C 9,9 °C 1,6 km/h (1 Bft)
07.11.2022 22:20 22,3 °C 9,8 °C 59 % 86 % 1015,2 hPa 0,0 l/m² 2,5 km/h (1 Bft) O 89 ° 0 min 0 W/m² 7,6 °C 9,8 °C 4,8 km/h (1 Bft)
07.11.2022 22:21 22,3 °C 9,8 °C 59 % 86 % 1015,2 hPa 0,0 l/m² 4,2 km/h (1 Bft) O-NO 73 ° 0 min 0 W/m² 7,6 °C 9,8 °C 8,0 km/h (2 Bft)
07.11.2022 22:22 22,3 °C 9,8 °C 59 % 86 % 1015,2 hPa 0,0 l/m² 3,4 km/h (1 Bft) O-NO 73 ° 0 min 0 W/m² 7,6 °C 9,8 °C 4,8 km/h (1 Bft)
07.11.2022 22:23 22,3 °C 9,8 °C 59 % 86 % 1015,1 hPa 0,0 l/m² 1,9 km/h (1 Bft) O-NO 70 ° 0 min 0 W/m² 7,6 °C 9,8 °C 3,2 km/h (1 Bft)
07.11.2022 22:25 22,3 °C 9,8 °C 59 % 86 % 1015,2 hPa 0,0 l/m² 1,2 km/h (1 Bft) O-NO 70 ° 0 min 0 W/m² 7,6 °C 9,8 °C 3,2 km/h (1 Bft)
07.11.2022 22:27 22,3 °C 9,8 °C 59 % 86 % 1015,2 hPa 0,0 l/m² 3,2 km/h (1 Bft) O-NO 70 ° 0 min 0 W/m² 7,6 °C 9,8 °C 4,8 km/h (1 Bft)
07.11.2022 22:29 22,3 °C 9,8 °C 59 % 86 % 1015,2 hPa 0,0 l/m² 1,2 km/h (1 Bft) O-NO 70 ° 0 min 0 W/m² 7,6 °C 9,8 °C 4,8 km/h (1 Bft)
07.11.2022 22:30 22,2 °C 9,7 °C 59 % 86 % 1015,1 hPa 0,0 l/m² 0,0 km/h (0 Bft) O-NO 70 ° 0 min 0 W/m² 7,5 °C 9,7 °C 0,0 km/h (0 Bft)
07.11.2022 22:31 22,2 °C 9,7 °C 59 % 86 % 1015,1 hPa 0,0 l/m² 0,2 km/h (0 Bft) O-NO 70 ° 0 min 0 W/m² 7,5 °C 9,7 °C 1,6 km/h (1 Bft)
07.11.2022 22:32 22,2 °C 9,7 °C 59 % 86 % 1015,0 hPa 0,0 l/m² 1,5 km/h (1 Bft) O-NO 70 ° 0 min 0 W/m² 7,5 °C 9,7 °C 3,2 km/h (1 Bft)
07.11.2022 22:34 22,2 °C 9,7 °C 59 % 86 % 1015,1 hPa 0,0 l/m² 1,1 km/h (1 Bft) O-NO 70 ° 0 min 0 W/m² 7,5 °C 9,7 °C 3,2 km/h (1 Bft)
07.11.2022 22:36 22,2 °C 9,7 °C 59 % 86 % 1015,0 hPa 0,0 l/m² 2,7 km/h (1 Bft) O-NO 70 ° 0 min 0 W/m² 7,5 °C 9,7 °C 4,8 km/h (1 Bft)
07.11.2022 22:38 22,2 °C 9,6 °C 59 % 86 % 1015,1 hPa 0,0 l/m² 1,9 km/h (1 Bft) O-NO 70 ° 0 min 0 W/m² 7,4 °C 9,6 °C 3,2 km/h (1 Bft)
07.11.2022 22:40 22,2 °C 9,5 °C 59 % 85 % 1015,1 hPa 0,0 l/m² 0,0 km/h (0 Bft) O-NO 70 ° 0 min 0 W/m² 7,1 °C 9,5 °C 1,6 km/h (1 Bft)
07.11.2022 22:41 22,2 °C 9,5 °C 59 % 86 % 1015,0 hPa 0,0 l/m² 0,0 km/h (0 Bft) O-NO 70 ° 0 min 0 W/m² 7,3 °C 9,5 °C 0,0 km/h (0 Bft)
07.11.2022 22:42 22,2 °C 9,4 °C 59 % 86 % 1015,0 hPa 0,0 l/m² 0,0 km/h (0 Bft) O-NO 70 ° 0 min 0 W/m² 7,2 °C 9,4 °C 0,0 km/h (0 Bft)
07.11.2022 22:43 22,2 °C 9,4 °C 59 % 85 % 1015,0 hPa 0,0 l/m² 0,0 km/h (0 Bft) O-NO 70 ° 0 min 0 W/m² 7,0 °C 9,4 °C 0,0 km/h (0 Bft)
07.11.2022 22:45 22,2 °C 9,4 °C 59 % 86 % 1015,0 hPa 0,0 l/m² 0,1 km/h (0 Bft) O-NO 70 ° 0 min 0 W/m² 7,2 °C 9,4 °C 1,6 km/h (1 Bft)
07.11.2022 22:47 22,2 °C 9,3 °C 59 % 86 % 1015,0 hPa 0,0 l/m² 0,0 km/h (0 Bft) O-NO 70 ° 0 min 0 W/m² 7,1 °C 9,3 °C 0,0 km/h (0 Bft)
07.11.2022 22:49 22,2 °C 9,3 °C 59 % 86 % 1014,9 hPa 0,0 l/m² 0,4 km/h (0 Bft) O-NO 70 ° 0 min 0 W/m² 7,1 °C 9,3 °C 1,6 km/h (1 Bft)
07.11.2022 22:50 22,2 °C 9,3 °C 59 % 86 % 1015,0 hPa 0,0 l/m² 0,0 km/h (0 Bft) O-NO 70 ° 0 min 0 W/m² 7,1 °C 9,3 °C 0,0 km/h (0 Bft)
07.11.2022 22:51 22,2 °C 9,3 °C 59 % 86 % 1015,0 hPa 0,0 l/m² 0,0 km/h (0 Bft) O-NO 70 ° 0 min 0 W/m² 7,1 °C 9,3 °C 0,0 km/h (0 Bft)
07.11.2022 22:52 22,1 °C 9,3 °C 59 % 86 % 1014,9 hPa 0,0 l/m² 0,0 km/h (0 Bft) O-NO 70 ° 0 min 0 W/m² 7,1 °C 9,3 °C 0,0 km/h (0 Bft)
07.11.2022 22:54 22,1 °C 9,3 °C 59 % 86 % 1015,0 hPa 0,0 l/m² 0,0 km/h (0 Bft) O-NO 70 ° 0 min 0 W/m² 7,1 °C 9,3 °C 0,0 km/h (0 Bft)
07.11.2022 22:56 22,1 °C 9,3 °C 59 % 87 % 1014,9 hPa 0,0 l/m² 0,6 km/h (0 Bft) O-NO 70 ° 0 min 0 W/m² 7,2 °C 9,3 °C 3,2 km/h (1 Bft)
07.11.2022 22:58 22,1 °C 9,3 °C 59 % 87 % 1014,9 hPa 0,0 l/m² 2,6 km/h (1 Bft) O-NO 69 ° 0 min 0 W/m² 7,2 °C 9,3 °C 4,8 km/h (1 Bft)
07.11.2022 23:00 22,1 °C 9,3 °C 59 % 87 % 1014,9 hPa 0,0 l/m² 2,0 km/h (1 Bft) O-NO 69 ° 0 min 0 W/m² 7,2 °C 9,3 °C 4,8 km/h (1 Bft)
07.11.2022 23:01 22,1 °C 9,3 °C 59 % 87 % 1014,8 hPa 0,0 l/m² 1,8 km/h (1 Bft) O-NO 69 ° 0 min 0 W/m² 7,2 °C 9,3 °C 3,2 km/h (1 Bft)
07.11.2022 23:02 22,1 °C 9,3 °C 59 % 88 % 1014,8 hPa 0,0 l/m² 3,8 km/h (1 Bft) O-NO 61 ° 0 min 0 W/m² 7,4 °C 9,3 °C 6,4 km/h (2 Bft)
07.11.2022 23:03 22,1 °C 9,3 °C 59 % 88 % 1014,9 hPa 0,0 l/m² 3,6 km/h (1 Bft) O-NO 61 ° 0 min 0 W/m² 7,4 °C 9,3 °C 4,8 km/h (1 Bft)
07.11.2022 23:05 22,1 °C 9,3 °C 59 % 88 % 1014,8 hPa 0,0 l/m² 3,9 km/h (1 Bft) O-NO 60 ° 0 min 0 W/m² 7,4 °C 9,3 °C 6,4 km/h (2 Bft)
07.11.2022 23:07 22,1 °C 9,3 °C 58 % 88 % 1014,9 hPa 0,0 l/m² 2,2 km/h (1 Bft) O-NO 60 ° 0 min 0 W/m² 7,4 °C 9,3 °C 6,4 km/h (2 Bft)
07.11.2022 23:09 22,1 °C 9,3 °C 59 % 88 % 1014,9 hPa 0,0 l/m² 0,4 km/h (0 Bft) O-NO 60 ° 0 min 0 W/m² 7,4 °C 9,3 °C 3,2 km/h (1 Bft)
07.11.2022 23:10 22,1 °C 9,3 °C 58 % 88 % 1014,9 hPa 0,0 l/m² 0,4 km/h (0 Bft) O-NO 60 ° 0 min 0 W/m² 7,4 °C 9,3 °C 1,6 km/h (1 Bft)
07.11.2022 23:11 22,1 °C 9,3 °C 58 % 88 % 1014,9 hPa 0,0 l/m² 1,0 km/h (0 Bft) O-NO 60 ° 0 min 0 W/m² 7,4 °C 9,3 °C 1,6 km/h (1 Bft)
07.11.2022 23:12 22,1 °C 9,3 °C 58 % 88 % 1014,9 hPa 0,0 l/m² 0,1 km/h (0 Bft) O-NO 60 ° 0 min 0 W/m² 7,4 °C 9,3 °C 1,6 km/h (1 Bft)
07.11.2022 23:14 22,1 °C 9,3 °C 58 % 88 % 1014,9 hPa 0,0 l/m² 0,9 km/h (0 Bft) O-NO 60 ° 0 min 0 W/m² 7,4 °C 9,3 °C 3,2 km/h (1 Bft)
07.11.2022 23:15 22,1 °C 9,3 °C 58 % 88 % 1014,9 hPa 0,0 l/m² 1,6 km/h (1 Bft) O-NO 67 ° 0 min 0 W/m² 7,4 °C 9,3 °C 3,2 km/h (1 Bft)
07.11.2022 23:16 22,1 °C 9,3 °C 58 % 88 % 1014,9 hPa 0,0 l/m² 0,0 km/h (0 Bft) O-NO 67 ° 0 min 0 W/m² 7,4 °C 9,3 °C 1,6 km/h (1 Bft)
07.11.2022 23:22 22,1 °C 9,3 °C 58 % 88 % 1014,8 hPa 0,0 l/m² 3,2 km/h (1 Bft) O-NO 60 ° 0 min 0 W/m² 7,4 °C 9,3 °C 3,2 km/h (1 Bft)
07.11.2022 23:24 22,1 °C 9,3 °C 58 % 88 % 1014,9 hPa 0,0 l/m² 2,9 km/h (1 Bft) O-NO 60 ° 0 min 0 W/m² 7,4 °C 9,3 °C 4,8 km/h (1 Bft)
07.11.2022 23:25 22,1 °C 9,3 °C 58 % 88 % 1014,9 hPa 0,0 l/m² 3,8 km/h (1 Bft) O-NO 60 ° 0 min 0 W/m² 7,4 °C 9,3 °C 4,8 km/h (1 Bft)
07.11.2022 23:26 22,1 °C 9,3 °C 58 % 88 % 1014,9 hPa 0,0 l/m² 2,2 km/h (1 Bft) O-NO 60 ° 0 min 0 W/m² 7,4 °C 9,3 °C 4,8 km/h (1 Bft)
07.11.2022 23:28 22,1 °C 9,3 °C 58 % 88 % 1014,9 hPa 0,0 l/m² 4,1 km/h (1 Bft) O-NO 59 ° 0 min 0 W/m² 7,4 °C 9,3 °C 6,4 km/h (2 Bft)
07.11.2022 23:30 22,1 °C 9,3 °C 58 % 88 % 1014,8 hPa 0,0 l/m² 4,1 km/h (1 Bft) NO 46 ° 0 min 0 W/m² 7,4 °C 9,3 °C 8,0 km/h (2 Bft)
07.11.2022 23:31 22,1 °C 9,3 °C 58 % 88 % 1014,7 hPa 0,0 l/m² 4,0 km/h (1 Bft) NO 44 ° 0 min 0 W/m² 7,4 °C 9,3 °C 4,8 km/h (1 Bft)
07.11.2022 23:32 22,1 °C 9,3 °C 58 % 88 % 1014,7 hPa 0,0 l/m² 4,8 km/h (1 Bft) NO 42 ° 0 min 0 W/m² 7,4 °C 9,3 °C 6,4 km/h (2 Bft)
07.11.2022 23:34 22,1 °C 9,3 °C 58 % 88 % 1014,7 hPa 0,0 l/m² 4,7 km/h (1 Bft) NO 44 ° 0 min 0 W/m² 7,4 °C 9,3 °C 8,0 km/h (2 Bft)
07.11.2022 23:35 22,1 °C 9,3 °C 58 % 88 % 1014,7 hPa 0,0 l/m² 6,6 km/h (2 Bft) NO 52 ° 0 min 0 W/m² 7,4 °C 9,2 °C 9,7 km/h (2 Bft)
07.11.2022 23:37 22,1 °C 9,3 °C 58 % 88 % 1014,8 hPa 0,0 l/m² 5,7 km/h (2 Bft) O-NO 67 ° 0 min 0 W/m² 7,4 °C 9,3 °C 8,0 km/h (2 Bft)
07.11.2022 23:39 22,1 °C 9,3 °C 58 % 89 % 1014,9 hPa 0,0 l/m² 5,2 km/h (1 Bft) O 79 ° 0 min 0 W/m² 7,6 °C 9,3 °C 8,0 km/h (2 Bft)
07.11.2022 23:40 22,1 °C 9,3 °C 58 % 89 % 1014,9 hPa 0,0 l/m² 5,0 km/h (1 Bft) O-NO 74 ° 0 min 0 W/m² 7,6 °C 9,3 °C 8,0 km/h (2 Bft)
07.11.2022 23:41 22,1 °C 9,3 °C 58 % 89 % 1014,8 hPa 0,0 l/m² 4,0 km/h (1 Bft) O-NO 69 ° 0 min 0 W/m² 7,6 °C 9,3 °C 4,8 km/h (1 Bft)
07.11.2022 23:42 22,1 °C 9,3 °C 58 % 88 % 1014,8 hPa 0,0 l/m² 4,0 km/h (1 Bft) O-NO 69 ° 0 min 0 W/m² 7,4 °C 9,3 °C 6,4 km/h (2 Bft)
07.11.2022 23:44 22,1 °C 9,3 °C 58 % 88 % 1014,9 hPa 0,0 l/m² 4,4 km/h (1 Bft) O-NO 68 ° 0 min 0 W/m² 7,4 °C 9,3 °C 6,4 km/h (2 Bft)
07.11.2022 23:45 22,1 °C 9,3 °C 58 % 88 % 1014,9 hPa 0,0 l/m² 5,3 km/h (1 Bft) O-NO 69 ° 0 min 0 W/m² 7,4 °C 9,3 °C 6,4 km/h (2 Bft)
07.11.2022 23:47 22,1 °C 9,4 °C 58 % 88 % 1014,9 hPa 0,0 l/m² 5,2 km/h (1 Bft) O-NO 72 ° 0 min 0 W/m² 7,5 °C 9,4 °C 6,4 km/h (2 Bft)
07.11.2022 23:49 22,1 °C 9,3 °C 58 % 89 % 1014,9 hPa 0,0 l/m² 3,5 km/h (1 Bft) O-NO 72 ° 0 min 0 W/m² 7,6 °C 9,3 °C 6,4 km/h (2 Bft)
07.11.2022 23:50 22,1 °C 9,4 °C 58 % 89 % 1014,8 hPa 0,0 l/m² 3,3 km/h (1 Bft) O-NO 72 ° 0 min 0 W/m² 7,7 °C 9,4 °C 4,8 km/h (1 Bft)
07.11.2022 23:51 22,1 °C 9,4 °C 58 % 89 % 1014,7 hPa 0,0 l/m² 2,2 km/h (1 Bft) O-NO 72 ° 0 min 0 W/m² 7,7 °C 9,4 °C 3,2 km/h (1 Bft)
07.11.2022 23:52 22,1 °C 9,4 °C 58 % 88 % 1014,7 hPa 0,0 l/m² 2,0 km/h (1 Bft) O-NO 72 ° 0 min 0 W/m² 7,5 °C 9,4 °C 3,2 km/h (1 Bft)
07.11.2022 23:54 22,1 °C 9,3 °C 58 % 88 % 1014,7 hPa 0,0 l/m² 0,2 km/h (0 Bft) O-NO 72 ° 0 min 0 W/m² 7,4 °C 9,3 °C 1,6 km/h (1 Bft)
07.11.2022 23:55 22,1 °C 9,3 °C 58 % 88 % 1014,7 hPa 0,0 l/m² 0,3 km/h (0 Bft) O-NO 72 ° 0 min 0 W/m² 7,4 °C 9,3 °C 1,6 km/h (1 Bft)
07.11.2022 23:57 22,1 °C 9,3 °C 58 % 88 % 1014,7 hPa 0,0 l/m² 0,2 km/h (0 Bft) O-NO 72 ° 0 min 0 W/m² 7,4 °C 9,3 °C 1,6 km/h (1 Bft)
07.11.2022 23:59 22,1 °C 9,3 °C 58 % 88 % 1014,6 hPa 0,0 l/m² 1,1 km/h (1 Bft) O-NO 72 ° 0 min 0 W/m² 7,4 °C 9,3 °C 3,2 km/h (1 Bft)
_ Min-Zeit 23:59 01:59 11:48 12:58 00:34 - 23:16 - - - - 01:54 03:52 22:54
Minimum _ 22,1 °C 7,1 °C 53 % 75 % 1010,5 hPa - 0,0 km/h (0 Bft) - - - - 4,5 °C -0,1 °C 0,0 km/h (0 Bft)
_ Max-Zeit 11:13 14:21 23:09 23:51 22:29 23:59 04:11 - - 15:40 10:34 10:51 13:41 04:05
Maximum _ 23,3 °C 13,9 °C 59 % 89 % 1015,2 hPa 0,0 l/m² 25,7 km/h
SW (4 Bft)
- - 2 min 401 W/m² 9,9 °C 12,2 °C 38,6 km/h
SW (6 Bft)
Durchschnitt _ 22,4 °C 10,5 °C 56 % 82 % 1013,4 hPa #0,0 l/m² 10,1 km/h (2 Bft) S-SW - #6:08 h 43 W/m² 7,5 °C 8,0 °C 14,0 km/h (3 Bft)
© 2009 Mathias Hoßbach